GFSMA_850_thetae_000.txt.gz
Theta_e
316 315 309 307 308 308 308 309 309 307 306 304 304 304 304 303 304 305 306 311 316 318 320 320 320 322 324 325 327 327 327 327 325 325 327 328 327 328 323 321 324 321 324
312 309 307 307 307 308 308 308 308 306 305 304 305 305 305 306 306 306 305 305 306 312 316 318 320 320 319 320 322 326 328 327 326 325 326 329 329 327 325 320 321 324 321
310 309 308 307 307 307 307 307 306 305 304 304 305 306 306 306 305 305 305 304 304 304 305 308 316 319 319 318 318 319 322 325 328 326 325 325 325 327 326 322 320 324 323
308 308 307 306 307 307 305 304 304 304 304 305 306 306 305 304 305 305 304 303 303 302 304 305 306 307 314 320 321 320 318 319 322 325 326 328 326 325 326 326 320 322 323
308 308 307 306 307 307 306 305 305 305 306 306 306 305 304 305 305 304 303 302 302 303 304 304 305 307 308 311 316 318 320 320 319 320 321 321 323 327 326 326 325 320 321
309 308 307 307 307 307 306 306 305 305 305 305 305 304 304 304 303 304 303 302 302 300 301 301 302 303 305 306 307 309 313 315 320 320 321 320 320 322 323 326 326 324 320
310 309 308 308 307 307 306 306 306 306 305 305 305 304 304 304 302 303 303 302 302 301 300 299 300 300 303 304 305 306 308 311 314 318 320 323 320 323 323 321 325 326 325
310 310 309 309 308 307 307 306 306 306 306 305 305 304 303 303 303 303 303 302 302 300 299 299 299 298 298 299 303 305 307 309 310 310 311 317 319 320 319 321 318 326 326
309 309 310 309 307 307 307 306 307 306 306 306 305 304 302 302 303 302 301 302 302 301 299 298 297 296 295 295 300 305 305 305 306 308 307 308 311 315 318 319 322 321 323
308 308 308 309 309 307 307 306 307 307 306 305 304 303 302 302 301 300 300 300 301 300 299 296 295 294 293 294 296 301 304 303 303 303 304 305 308 312 316 318 318 323 322
306 306 307 306 306 307 306 306 308 305 306 305 303 302 300 298 297 297 296 298 300 301 298 295 294 293 292 292 300 301 301 302 302 302 302 303 304 307 313 316 316 317 321
304 304 304 303 304 305 305 305 305 304 302 300 297 296 296 295 294 294 295 297 299 300 296 293 292 292 292 292 296 299 300 301 301 302 304 304 303 303 307 313 316 317 319
303 302 302 302 304 303 302 303 301 299 297 298 298 299 299 298 298 298 298 294 292 292 292 292 291 292 292 292 297 297 298 301 303 303 302 300 300 300 302 308 315 316 313
302 301 301 302 302 301 299 298 298 298 297 298 299 298 299 299 297 292 292 292 292 291 291 291 291 291 291 291 295 298 297 298 299 299 300 300 299 301 301 303 308 308 303
301 300 300 299 298 297 297 299 299 298 298 296 294 293 295 294 292 292 291 291 291 292 291 291 290 291 291 291 291 292 295 295 296 298 298 300 298 296 298 298 302 308 303
299 298 297 297 297 297 298 299 297 293 292 292 292 291 291 290 290 289 289 289 288 289 290 290 290 290 290 291 291 291 294 295 294 295 296 297 298 297 297 297 296 296 297
296 296 296 296 296 295 293 291 292 291 291 290 290 289 289 288 288 288 288 288 288 288 289 289 289 289 289 290 290 290 291 292 292 292 293 295 296 296 296 296 296 295 295
295 294 295 295 292 292 291 290 290 291 290 289 289 287 287 287 287 287 287 288 288 288 289 289 289 289 289 290 290 290 291 289 290 290 291 292 293 295 296 295 296 296 295
294 293 294 293 292 291 291 291 291 290 288 287 286 286 286 287 287 287 287 287 287 287 287 287 287 288 288 288 288 289 289 289 289 289 289 289 290 293 294 295 294 295 295
294 294 294 292 292 291 290 290 289 287 287 286 286 286 286 287 286 286 286 286 286 286 286 286 286 286 286 286 286 286 287 287 287 287 288 288 288 289 291 293 292 294 294
294 293 292 292 291 290 289 287 286 286 286 285 285 285 285 284 284 284 283 284 283 283 284 284 285 285 285 285 285 285 285 285 286 286 286 287 287 288 288 289 290 292 296
291 291 290 289 289 288 286 286 285 285 285 285 284 284 283 283 284 283 283 283 283 283 283 283 283 284 284 284 284 284 284 285 285 286 286 286 287 288 288 289 290 291 294
289 288 288 287 286 285 285 285 285 284 284 283 283 282 282 283 283 282 282 283 283 283 283 283 283 284 284 284 284 284 284 284 284 285 285 286 287 288 288 289 293 294 295
286 286 286 285 285 285 284 284 284 283 282 282 282 282 282 283 283 282 281 282 282 282 283 283 283 283 283 284 284 284 284 284 284 284 285 285 286 287 287 288 290 292 295
285 285 284 284 284 284 283 282 282 281 281 281 282 283 282 282 282 282 282 282 282 282 283 283 283 283 283 283 284 284 284 284 284 284 284 285 285 285 286 286 288 289 294
284 284 284 283 282 282 281 281 281 280 281 281 282 282 282 283 282 282 282 282 282 283 283 284 284 284 283 283 284 284 284 284 284 284 284 285 285 286 286 287 287 288 292

GFSMA_850_thetae_003.txt.gz
Theta_e
315 314 310 308 308 307 307 308 308 308 307 306 304 304 304 304 305 305 304 304 304 306 313 319 323 322 322 325 326 328 328 328 328 327 326 326 327 326 325 324 322 322 323
312 311 310 308 307 307 307 307 307 307 306 305 304 304 305 306 306 306 306 306 305 305 305 309 316 320 321 321 321 323 326 328 327 327 326 326 326 327 327 327 325 322 323
308 308 308 307 307 307 307 307 306 305 304 304 304 305 306 306 306 305 305 305 305 304 305 305 306 309 316 321 321 319 319 320 323 327 327 326 326 327 328 328 327 323 322
309 308 308 308 307 306 307 307 306 305 304 304 304 306 306 305 305 305 305 304 303 302 302 303 304 305 307 309 316 320 321 320 319 321 324 327 326 325 326 327 328 327 322
310 309 309 309 308 307 307 307 307 306 306 305 305 305 305 305 304 304 304 304 303 302 302 301 302 304 305 306 308 309 315 318 320 320 320 321 324 326 326 326 325 325 326
310 310 310 310 309 308 308 308 307 307 306 306 306 305 305 305 304 304 303 303 304 303 302 301 300 300 301 304 305 306 307 310 315 316 319 321 321 321 324 323 326 326 326
311 310 310 310 310 309 308 307 307 307 307 306 305 306 305 305 304 304 302 303 303 304 303 302 301 300 300 299 302 305 306 307 311 313 312 314 319 321 321 320 322 323 326
310 309 309 308 309 309 310 308 307 308 308 307 306 306 306 306 304 304 303 302 302 303 303 302 302 300 300 300 298 299 304 306 307 308 308 310 311 317 321 322 321 321 321
308 307 306 306 307 306 307 309 309 307 308 308 307 306 306 305 305 304 303 302 301 302 302 301 301 301 298 297 296 296 298 304 305 305 305 306 307 309 310 314 317 319 320
304 303 302 303 304 304 304 305 306 306 306 308 306 306 305 305 305 305 303 301 300 300 300 301 301 300 297 295 294 295 297 301 304 304 303 303 303 304 306 308 311 315 318
300 300 300 301 302 302 302 302 303 304 304 305 306 305 304 304 302 300 301 301 298 298 299 300 299 298 297 294 293 294 302 302 302 303 303 303 303 306 304 305 309 314 317
299 299 300 301 301 301 302 302 302 302 302 302 302 301 302 300 299 297 297 297 297 298 298 299 297 296 295 294 293 296 299 301 303 302 302 303 304 303 302 304 305 311 315
298 300 301 301 300 301 301 299 298 298 298 298 298 298 298 298 297 297 297 297 297 297 296 296 296 295 295 295 293 294 298 299 302 302 303 302 300 302 302 301 302 306 312
299 301 300 299 299 298 297 298 298 298 298 297 297 298 297 297 297 298 297 296 295 296 295 295 295 294 294 294 294 292 296 298 298 299 300 299 300 299 300 300 300 301 304
300 299 298 297 297 297 297 296 296 297 298 295 293 294 293 292 292 292 294 294 293 294 294 295 294 293 293 293 293 292 293 292 295 297 298 298 300 298 296 296 297 299 300
298 297 296 295 293 292 292 292 292 292 291 291 290 290 290 290 290 289 289 290 291 291 291 291 291 291 292 291 291 292 292 290 292 294 295 296 298 298 297 297 297 297 297
296 294 294 293 294 295 296 292 291 291 290 290 290 289 289 289 288 289 289 289 289 290 290 290 290 291 291 291 291 291 292 291 292 292 292 293 294 296 297 297 297 297 296
293 293 293 293 294 294 291 291 291 291 290 290 289 287 286 286 286 286 287 288 289 289 289 289 290 290 290 290 291 291 292 292 292 292 291 289 291 292 293 295 296 296 297
294 293 294 293 292 292 291 291 289 289 289 288 287 286 286 286 286 286 287 287 287 287 287 288 288 288 289 289 289 289 290 290 290 290 289 289 289 289 290 291 294 296 296
293 293 292 291 291 292 291 289 289 289 287 286 286 285 285 285 285 285 285 285 285 285 286 286 286 287 287 287 288 288 288 289 289 288 289 288 288 289 288 289 290 293 295
289 290 290 290 290 289 288 287 286 286 285 285 285 285 284 284 284 283 283 284 285 286 286 286 286 286 287 287 287 287 288 288 288 288 289 289 289 290 290 289 288 289 291
287 287 287 287 287 286 285 285 285 285 285 284 284 284 283 282 282 283 283 283 283 284 285 285 285 285 286 286 286 286 286 286 287 288 288 288 288 289 289 290 290 288 289
285 285 285 285 285 284 284 284 284 284 283 283 282 282 282 282 282 282 282 282 283 283 283 283 284 285 285 285 285 285 285 286 286 286 287 287 288 289 289 290 288 288 289
285 285 284 284 284 283 283 283 282 282 282 281 281 281 282 282 282 282 282 282 283 283 283 283 283 284 284 284 284 285 285 285 285 286 286 286 287 287 288 289 289 288 289
285 284 284 283 282 282 282 281 281 281 281 280 281 281 281 281 281 282 282 282 283 283 283 283 283 283 284 283 283 284 284 285 285 285 285 286 286 286 287 286 286 287 288
284 284 283 282 282 281 281 280 280 280 280 280 281 281 281 282 282 282 282 282 282 283 283 284 284 284 284 284 284 283 283 284 285 285 285 286 286 286 287 287 286 286 286

GFSMA_850_thetae_009.txt.gz
Theta_e
323 321 320 319 318 318 318 318 318 318 316 314 312 312 312 312 312 312 312 311 308 307 307 308 308 307 311 319 322 321 323 323 326 326 327 327 324 325 326 327 325 323 321
321 320 318 318 317 317 317 317 318 318 316 314 313 312 312 311 311 312 311 311 309 307 306 307 307 307 307 309 316 322 322 324 325 326 329 328 326 325 325 327 326 324 322
316 317 318 318 317 317 317 317 317 317 317 316 314 312 312 312 312 311 311 309 310 309 307 306 306 306 307 307 307 315 321 322 322 324 327 328 328 326 326 326 325 324 324
317 315 317 317 317 317 317 317 316 316 317 316 315 313 312 311 311 311 310 310 309 310 309 308 305 305 305 306 306 307 309 319 321 321 321 322 327 327 326 326 326 326 325
314 311 312 314 315 317 316 317 316 316 316 316 315 314 312 311 312 311 310 310 310 309 309 309 307 304 304 304 304 304 305 307 312 321 321 321 321 322 327 326 326 326 326
313 312 313 313 313 314 314 314 314 315 315 315 315 314 313 312 311 311 311 310 309 310 308 308 308 306 306 304 303 303 303 303 305 307 314 320 319 320 321 323 325 326 326
310 309 310 310 310 310 309 307 309 311 312 313 314 315 315 313 312 311 311 311 310 309 308 309 309 308 307 305 304 303 302 303 302 303 306 307 310 317 318 320 320 321 324
309 309 307 307 307 307 306 306 307 309 310 311 312 313 314 314 313 313 311 311 310 309 308 308 309 308 307 306 305 303 303 302 301 302 302 306 307 307 310 314 319 320 319
308 307 306 307 307 307 307 307 307 307 308 309 309 311 312 312 313 312 313 312 311 310 308 308 308 307 305 305 305 304 303 303 302 301 301 301 304 306 307 308 310 316 320
306 305 305 306 306 305 306 306 305 306 306 306 307 307 308 310 311 311 311 312 311 310 309 308 308 306 304 304 304 304 303 303 303 302 300 299 299 304 304 305 306 307 309
305 304 304 304 304 304 305 305 305 305 305 305 305 306 307 307 308 308 309 310 311 310 309 308 308 305 304 304 303 302 302 302 302 302 302 299 298 300 305 304 304 305 306
303 303 303 304 304 304 304 303 304 303 303 302 302 302 301 301 302 301 301 305 307 308 308 307 305 304 304 303 303 302 301 301 300 300 300 299 298 298 302 305 305 304 305
302 302 303 303 303 303 303 303 302 301 302 301 300 299 298 298 299 298 298 298 299 301 303 305 301 302 301 302 302 301 300 299 297 296 296 297 297 297 299 301 303 304 305
301 301 302 302 302 301 300 300 300 300 298 298 298 297 296 296 296 296 295 295 296 297 297 298 300 301 301 300 301 300 299 297 296 295 299 301 302 300 299 302 303 303 303
300 300 300 300 299 298 298 297 297 297 296 296 295 295 295 295 295 295 295 294 294 295 296 297 297 298 299 299 298 298 298 298 297 296 295 299 300 301 302 302 302 302 302
299 299 298 298 298 297 297 296 295 295 295 294 295 294 294 294 294 294 294 295 295 295 295 295 294 295 295 295 296 296 296 296 295 295 295 296 297 298 299 300 300 300 301
298 297 297 296 296 296 295 295 294 294 295 294 294 294 293 293 293 292 292 292 292 293 293 293 293 293 293 293 294 294 294 294 294 294 294 293 293 293 296 299 299 298 298
297 296 296 295 295 295 294 294 293 293 293 293 293 293 293 292 292 291 291 291 291 291 291 292 292 292 292 293 293 293 294 294 294 294 293 293 293 293 292 292 295 298 298
295 294 294 294 293 292 291 291 290 291 291 291 291 290 290 290 289 289 290 290 290 290 290 290 290 291 291 291 291 292 292 292 293 293 293 293 293 293 292 292 291 292 294
292 291 290 290 290 289 289 289 289 289 289 289 289 289 289 289 289 289 289 289 288 288 288 288 289 289 289 290 290 290 291 291 292 292 292 292 292 292 292 292 292 291 290
290 290 289 289 289 289 288 288 287 287 287 287 288 288 288 288 288 287 286 286 286 286 287 287 288 289 289 290 290 291 291 291 291 291 292 292 292 292 292 291 291 291 290
289 289 289 288 288 288 287 287 286 285 284 285 286 286 287 287 287 286 285 285 284 284 285 285 287 287 288 289 289 290 290 290 290 290 290 290 291 291 292 292 292 292 292
289 289 288 288 288 287 287 286 285 284 283 284 285 286 286 286 286 286 286 286 285 285 284 284 284 285 286 287 287 288 289 289 289 289 289 289 289 290 290 290 291 291 291
289 288 288 288 287 287 286 285 284 283 283 283 284 284 285 285 285 285 285 285 284 284 284 285 285 285 285 285 286 286 287 287 288 288 289 288 288 288 289 289 289 289 290
289 288 288 287 286 285 284 283 282 281 281 282 282 283 283 283 283 283 283 283 284 284 284 285 285 285 284 284 284 285 286 286 287 287 287 287 288 287 288 287 287 287 287
288 288 287 286 285 284 284 282 281 280 280 281 281 282 282 283 283 283 283 283 283 284 283 283 284 285 285 285 285 284 284 285 285 286 287 287 288 288 288 288 287 287 287

GFSMA_850_thetae_012.txt.gz
Theta_e
317 318 318 318 317 317 317 317 317 317 317 316 314 313 312 312 312 311 311 312 312 311 308 307 307 308 308 308 308 314 319 320 322 322 326 324 327 325 323 324 327 326 325
313 313 313 314 316 317 317 315 317 317 317 318 317 315 313 312 311 310 311 312 311 311 309 307 307 307 307 307 307 308 313 321 321 322 325 324 323 327 324 324 326 326 325
313 312 312 313 315 315 314 313 316 317 316 316 317 316 315 313 312 311 311 311 311 310 310 309 308 306 306 307 307 307 309 315 321 322 324 326 326 328 326 325 326 327 325
313 313 312 312 313 313 312 312 313 316 317 316 316 316 316 315 313 312 311 311 310 310 310 310 309 308 306 306 306 306 307 309 317 321 321 322 325 327 327 325 325 326 326
315 314 312 310 310 310 310 310 313 315 316 316 315 314 315 315 316 313 312 312 311 310 310 310 309 309 307 305 305 306 306 306 307 311 319 321 321 321 324 326 326 326 325
315 311 310 310 310 310 308 310 311 309 308 309 313 314 313 314 314 312 313 312 311 311 310 309 309 309 308 306 305 305 305 305 305 305 307 313 320 321 321 320 320 324 326
312 311 309 309 308 308 308 307 306 306 307 306 310 311 312 312 313 315 315 314 312 311 310 310 309 309 309 308 307 305 304 304 304 304 304 305 307 313 319 320 321 322 325
311 310 308 306 306 306 305 304 305 306 304 305 307 309 310 309 309 311 313 314 314 313 311 310 309 309 309 309 307 306 304 303 303 303 302 302 304 305 307 314 317 320 321
312 307 306 305 305 305 304 300 304 305 307 307 307 307 308 307 309 309 309 311 311 312 313 311 310 309 308 309 307 306 305 303 303 303 302 301 301 302 303 306 308 312 316
306 306 305 304 304 303 303 305 306 305 304 305 305 306 306 307 305 307 307 308 309 310 311 312 311 310 309 309 307 305 305 304 303 303 303 303 302 300 301 302 304 306 308
306 304 303 303 302 301 302 304 304 304 304 304 304 303 302 302 301 302 303 304 304 307 307 309 310 309 309 306 305 305 305 304 303 302 303 303 303 302 299 301 301 302 304
302 301 300 301 301 303 303 303 303 303 303 302 301 300 300 299 298 299 298 298 298 300 301 304 307 308 307 304 304 304 303 303 302 302 300 301 302 301 300 299 303 303 303
301 299 300 301 302 302 301 301 301 300 300 300 299 299 298 298 297 297 297 296 297 297 298 300 302 303 303 302 303 301 302 301 301 301 300 299 298 299 298 298 302 304 303
300 300 300 300 300 299 299 298 298 298 297 296 296 296 296 296 296 296 295 295 294 294 295 297 298 298 300 300 300 300 299 300 299 300 300 296 298 298 298 298 299 301 302
299 299 297 299 298 298 298 298 297 297 296 296 295 295 295 295 294 295 294 295 296 295 295 294 295 295 295 297 299 300 298 298 298 298 297 295 297 300 301 302 302 303 303
298 296 298 297 297 297 296 296 295 295 295 294 294 294 295 295 294 294 293 293 293 293 294 294 294 294 295 294 295 297 296 297 297 297 297 296 296 297 298 300 301 301 301
295 296 296 295 295 294 294 293 293 292 292 292 293 293 294 293 293 293 293 292 292 292 292 292 293 293 293 293 295 294 294 295 294 295 295 295 295 296 296 296 299 300 300
295 294 294 294 293 292 291 291 290 290 290 291 292 291 291 291 291 290 290 290 290 291 291 291 291 291 291 291 291 292 293 294 294 294 294 294 294 294 293 293 293 296 299
293 293 292 291 290 290 290 289 289 290 290 290 290 288 289 289 289 289 289 289 289 289 289 289 289 289 289 290 290 290 291 291 292 293 293 293 293 293 293 293 293 292 292
292 291 290 290 289 289 289 289 289 288 288 287 286 286 287 288 288 288 289 289 288 288 288 287 287 287 288 288 289 289 289 290 290 291 292 292 292 292 292 293 293 292 292
290 290 289 289 289 289 289 288 287 287 287 286 285 285 285 286 287 287 287 287 287 286 286 285 285 286 287 288 289 290 291 291 291 292 292 292 292 292 293 292 291 291 291
290 289 289 289 288 288 288 288 287 286 286 285 284 284 284 285 286 286 286 286 286 285 285 285 285 285 285 286 287 288 288 289 289 290 290 290 291 291 292 292 292 293 293
289 289 289 289 288 288 287 287 286 285 283 282 282 283 283 284 284 285 285 286 286 286 285 285 285 284 284 284 285 286 286 287 287 288 289 289 289 289 289 289 290 290 291
289 289 289 288 288 287 286 285 284 283 282 281 280 281 281 282 283 284 284 283 283 284 284 284 284 284 285 285 285 285 285 286 286 286 287 288 288 288 288 288 288 288 289
289 289 289 288 288 286 284 284 284 283 282 281 280 281 281 281 281 282 282 283 283 283 283 283 284 285 285 285 285 285 284 284 284 285 286 287 287 287 287 287 287 287 287
289 289 288 288 286 284 284 284 283 282 281 280 280 280 280 281 282 283 283 283 283 284 284 283 283 283 283 283 284 285 285 285 285 284 285 285 286 287 288 287 287 287 287

GFSMA_850_thetae_015.txt.gz
Theta_e
313 312 312 312 313 314 315 315 314 313 315 316 316 317 317 316 314 312 311 310 311 312 312 310 309 307 307 308 308 308 313 319 320 322 324 321 323 322 323 323 323 327 326
312 312 312 312 313 313 314 314 314 313 315 316 316 316 317 316 316 314 313 311 311 310 310 310 309 308 307 307 307 307 308 310 318 321 321 322 322 322 321 324 322 326 327
317 314 314 313 313 312 312 311 310 310 313 313 316 316 316 316 316 315 315 313 312 311 311 309 308 309 308 307 307 307 307 307 309 318 322 322 321 323 319 326 323 323 326
317 315 314 311 310 311 311 310 309 311 312 315 316 316 316 314 314 315 315 315 312 312 311 311 310 309 309 308 308 307 307 307 307 309 317 322 323 325 322 326 326 324 325
315 314 313 311 312 310 309 309 308 309 311 310 307 304 303 307 311 307 307 312 312 313 312 311 310 310 310 309 308 306 306 306 306 306 308 316 321 323 325 325 326 325 324
314 313 312 312 312 310 308 307 306 305 304 303 303 302 302 302 305 308 309 311 316 315 313 312 311 310 310 309 309 308 307 305 305 305 305 307 311 320 321 322 324 324 322
313 313 312 310 307 307 306 305 304 302 299 300 302 302 302 302 302 303 303 306 310 313 314 314 313 311 310 309 309 308 308 306 304 304 304 304 305 307 315 321 321 322 323
313 312 310 306 306 305 305 304 303 301 303 304 306 307 306 304 303 303 303 308 309 309 310 311 312 312 310 309 309 309 308 308 305 303 302 302 303 304 305 310 319 321 321
311 308 306 306 305 303 303 303 300 302 305 305 305 304 305 305 303 303 303 304 306 307 308 309 311 312 311 310 310 309 309 308 306 303 302 301 301 302 303 304 307 315 319
307 307 306 304 301 300 300 299 303 305 304 304 304 304 304 303 300 300 300 300 301 302 304 306 306 308 311 310 310 310 309 307 306 304 302 301 301 300 301 302 303 305 307
307 306 303 299 298 301 302 303 303 303 302 302 302 301 300 300 299 299 298 297 298 298 298 298 299 300 305 309 309 309 309 305 304 304 303 302 302 301 299 300 301 302 303
304 300 298 299 300 301 301 301 301 299 299 299 299 297 297 297 298 298 297 297 296 296 296 296 297 297 299 305 307 304 303 304 303 303 304 302 301 301 300 301 304 301 302
299 299 299 298 299 299 299 299 299 298 298 297 297 295 295 296 296 295 296 296 295 295 295 294 294 296 297 298 302 302 300 301 301 299 301 301 301 300 300 299 302 307 306
299 299 299 296 296 297 297 297 297 297 296 295 295 295 295 295 295 295 295 295 294 294 295 295 294 294 294 294 295 300 300 301 301 298 298 300 300 300 300 298 298 302 305
299 299 295 296 296 295 294 294 294 293 293 293 294 294 294 294 295 295 295 294 295 294 293 293 293 293 293 294 295 294 298 299 298 297 297 297 299 297 297 299 300 303 304
298 294 293 293 294 294 293 292 292 291 291 291 291 291 292 292 292 292 293 293 293 292 292 292 292 291 292 292 294 294 294 298 297 297 296 296 297 297 295 297 300 302 304
294 294 294 293 292 291 290 290 289 289 289 290 290 291 291 290 290 291 291 290 290 290 290 290 290 290 291 291 291 292 292 293 294 294 295 294 295 295 296 296 296 298 300
294 293 293 292 291 290 289 289 289 289 289 289 289 289 289 289 287 289 289 289 289 289 289 289 289 290 290 290 290 291 291 291 293 293 294 294 294 294 294 293 293 294 295
294 293 292 290 290 289 289 289 288 288 288 288 287 287 286 286 285 285 287 288 288 289 289 289 288 288 288 289 289 290 289 290 290 291 292 293 293 293 293 293 294 293 293
293 291 290 290 289 289 288 288 288 288 288 287 287 286 286 285 284 284 286 286 287 287 287 288 287 287 286 286 286 287 288 288 289 289 290 291 291 292 292 292 293 293 293
291 290 290 289 289 289 288 288 288 288 287 286 285 284 283 282 284 284 285 286 286 287 287 286 285 285 285 285 285 287 287 288 290 291 291 291 291 291 292 292 292 292 292
290 290 289 289 289 289 288 288 287 286 285 284 283 282 281 281 282 283 284 284 285 286 286 286 285 285 285 285 284 284 285 285 286 288 289 291 291 291 291 291 292 292 292
290 289 289 289 289 289 288 287 285 284 284 283 282 281 280 280 280 281 282 283 283 284 285 285 285 285 284 284 284 284 284 284 285 285 286 287 288 289 290 289 289 289 290
289 289 289 289 288 288 286 284 284 284 283 282 281 280 280 280 281 281 281 281 282 282 282 283 283 283 283 283 284 284 285 285 285 285 285 285 286 287 287 288 288 288 288
289 289 289 288 287 286 284 284 283 282 282 281 280 280 279 279 280 281 282 282 283 283 283 283 283 283 284 284 284 284 284 284 284 284 285 284 285 286 286 286 286 287 287
289 289 288 287 286 284 284 283 282 281 280 280 279 279 279 280 281 281 281 281 281 281 282 282 283 283 283 282 282 282 282 282 284 285 284 285 284 285 285 286 287 287 287

GFSMA_850_thetae_018.txt.gz
Theta_e
312 313 314 315 315 315 315 315 314 313 311 312 314 315 316 316 316 316 316 315 314 313 311 310 309 309 308 308 307 307 307 308 311 317 319 323 322 322 325 324 322 320 322
314 314 314 314 315 313 313 312 311 311 310 310 311 312 314 315 316 317 316 315 315 315 313 312 311 309 309 308 308 307 307 307 307 308 315 320 322 322 322 326 323 322 320
316 316 314 313 311 311 312 311 311 310 309 309 309 311 315 315 315 315 315 314 315 314 313 312 311 311 310 309 308 308 307 306 306 307 308 313 320 322 323 325 324 320 321
318 317 315 314 312 312 312 313 311 310 309 307 307 306 305 303 303 303 305 307 308 310 313 312 312 311 311 311 310 309 308 308 306 306 306 308 314 321 321 322 323 322 322
316 315 314 313 313 314 312 311 309 306 305 303 302 301 301 302 302 301 302 303 307 310 313 315 314 312 311 311 311 310 310 308 307 306 305 306 307 314 321 324 321 321 324
313 313 313 313 313 311 311 307 306 303 302 302 301 301 301 301 301 301 304 305 304 308 310 310 312 313 312 311 310 310 310 310 309 307 306 305 305 307 314 321 324 323 323
313 313 313 312 310 307 306 305 303 302 302 300 300 301 301 301 304 305 302 304 305 308 308 309 310 312 312 311 310 310 309 309 309 309 307 306 304 305 307 314 319 322 324
313 311 309 307 306 305 304 302 301 300 298 300 303 303 304 302 302 303 302 303 303 303 304 306 308 309 311 312 311 311 311 309 309 309 308 307 304 303 304 307 312 317 320
309 308 307 306 305 303 300 298 297 298 301 303 303 303 303 303 301 301 300 300 300 299 299 299 301 303 307 311 311 311 310 309 308 307 308 307 306 302 302 304 306 311 317
309 308 307 305 300 296 295 298 301 302 302 301 300 300 301 300 299 299 299 298 298 297 296 296 296 297 299 301 307 310 310 310 310 308 306 306 304 302 301 301 303 306 309
308 307 301 296 295 297 298 299 299 299 299 298 298 298 298 297 296 296 296 297 296 296 296 296 295 295 297 297 299 301 306 309 310 309 306 305 303 301 300 300 301 302 304
307 301 297 297 298 297 296 297 298 298 297 297 297 297 296 296 295 295 295 295 295 295 295 295 294 295 296 295 296 299 304 305 306 309 305 302 301 301 301 300 300 305 304
300 299 298 299 296 293 295 295 295 296 295 295 294 294 294 295 295 295 295 295 295 295 295 294 295 293 294 294 294 294 297 303 304 306 306 305 299 298 299 300 300 302 309
300 299 299 294 292 293 293 293 293 292 292 292 292 292 292 293 293 293 294 294 294 294 295 294 293 292 292 293 294 295 294 295 300 301 302 299 298 297 298 299 300 300 304
300 299 294 293 292 293 293 292 291 290 289 290 290 290 291 292 292 292 292 292 291 292 292 292 291 291 291 291 292 294 293 293 294 298 299 299 300 298 296 298 299 298 299
299 295 294 293 292 292 291 290 290 289 289 289 289 289 290 290 290 288 288 289 291 290 290 290 289 290 290 291 291 291 292 293 293 296 297 297 295 296 297 299 297 300 300
296 295 294 293 292 292 290 289 289 289 288 288 288 288 288 288 288 287 287 287 287 289 289 289 289 289 288 289 290 291 291 290 292 293 295 295 295 295 295 296 298 296 300
296 294 293 293 292 290 289 289 288 287 288 288 288 287 286 286 286 286 285 285 285 287 288 289 289 288 288 288 288 289 290 290 289 290 291 293 294 294 294 294 294 294 295
297 293 292 292 290 289 289 289 288 288 288 288 287 287 286 285 284 284 284 284 284 285 287 287 287 288 288 288 287 286 287 289 289 289 289 291 291 293 294 293 293 294 293
295 292 291 290 289 289 289 288 288 288 288 287 287 285 283 282 282 281 283 284 285 285 285 286 287 287 286 286 286 285 285 286 287 288 289 289 290 291 292 292 293 293 293
293 292 290 289 289 289 289 288 288 288 287 285 284 283 283 282 281 281 282 283 283 284 285 285 286 286 285 285 285 285 284 284 287 288 289 290 290 290 291 291 291 292 292
291 291 289 289 289 289 288 288 287 286 284 284 283 283 282 281 280 280 281 281 282 283 283 284 285 285 285 285 285 284 284 284 284 286 287 289 290 290 290 291 292 292 292
291 290 289 289 289 288 288 287 285 284 283 283 282 281 280 280 279 280 280 280 281 281 282 282 283 284 284 284 284 284 284 284 284 284 285 286 288 289 289 289 290 290 290
290 289 289 289 288 287 286 284 283 283 282 281 281 280 279 279 279 279 280 281 281 282 282 282 282 282 282 282 283 283 284 284 284 284 285 285 285 286 287 288 288 288 288
289 289 289 288 287 285 284 282 281 280 279 279 279 279 278 279 279 280 280 280 281 281 281 282 282 283 283 283 284 283 283 284 284 284 284 284 284 285 285 286 286 286 287
289 289 288 287 285 284 282 281 279 279 278 278 278 279 279 279 279 280 280 281 280 280 280 281 281 281 282 283 283 283 283 282 282 282 283 283 284 285 284 285 285 286 286

GFSMA_850_thetae_021.txt.gz
Theta_e
314 313 313 313 314 314 313 312 311 311 311 311 311 310 311 314 316 315 316 316 315 315 314 314 314 312 311 309 308 308 308 307 307 308 310 316 318 321 323 324 325 324 321
315 314 314 314 313 312 311 311 312 312 312 311 311 310 309 311 315 315 315 315 316 315 315 314 312 312 312 311 310 309 309 308 307 306 307 308 314 319 322 322 324 325 322
318 317 317 315 314 312 312 313 313 313 312 310 308 307 305 305 304 303 303 303 306 307 310 313 314 313 311 311 311 311 309 309 308 308 307 307 307 312 320 322 322 323 323
319 317 315 315 314 313 313 313 312 312 308 306 304 303 302 301 301 301 301 301 303 305 307 310 311 313 312 312 311 311 311 310 309 309 307 306 306 307 312 320 322 323 324
317 315 314 313 313 313 311 309 307 306 305 303 302 302 302 302 301 301 301 301 303 304 304 305 307 311 314 313 312 311 311 311 311 310 310 308 307 306 307 313 320 321 323
314 314 313 313 311 308 307 307 306 305 304 301 299 298 298 298 299 302 305 305 304 303 304 306 307 309 310 311 313 312 311 310 310 310 310 310 309 307 306 306 313 320 323
313 313 310 309 308 308 307 306 305 304 302 297 297 299 298 301 300 299 301 302 302 302 302 303 303 305 307 309 311 312 312 310 310 310 310 309 309 308 308 305 305 311 320
311 310 311 310 308 307 306 305 302 297 295 297 300 301 301 299 301 299 299 301 300 299 299 298 298 299 301 305 308 310 311 311 310 312 311 310 310 309 308 305 304 305 308
309 308 307 307 306 303 298 295 294 294 295 296 299 299 299 299 298 298 298 298 299 297 296 296 296 296 296 297 301 305 309 310 310 310 311 311 309 310 309 307 304 303 304
309 308 307 306 299 295 294 293 293 294 296 297 297 297 297 297 296 296 296 295 295 295 295 295 295 295 295 296 297 298 302 307 310 310 308 309 308 306 309 307 304 302 303
308 305 303 299 297 296 293 293 294 296 297 297 297 296 296 296 295 296 295 295 295 294 294 295 295 294 295 296 296 297 298 301 303 306 309 310 309 308 307 306 303 301 302
301 300 300 299 298 294 292 292 293 294 294 294 294 293 293 293 294 294 294 294 294 294 294 295 294 294 293 294 294 294 296 298 300 301 303 308 309 308 307 305 301 300 301
301 300 299 299 295 292 292 292 292 292 292 291 291 291 291 291 291 292 293 293 293 292 293 293 294 293 292 292 293 294 294 294 297 300 301 304 305 307 306 302 301 301 300
301 300 299 296 293 292 292 291 291 291 290 290 289 289 289 289 291 291 290 290 291 292 291 291 292 292 291 291 292 293 294 293 293 295 299 301 301 303 304 305 300 299 301
300 300 298 294 296 293 292 291 290 289 289 289 288 288 288 288 289 289 288 287 287 289 291 291 289 290 290 291 290 291 291 292 292 293 294 298 300 299 300 299 299 298 299
299 298 297 297 294 293 292 290 289 289 288 287 287 288 288 288 287 287 286 286 286 285 287 288 288 289 289 288 288 289 290 291 291 291 292 295 297 298 298 297 299 302 302
299 297 297 294 293 292 291 290 289 288 287 288 288 288 287 287 286 286 285 285 285 285 284 285 287 288 289 288 288 287 289 290 290 290 291 292 294 296 296 296 298 298 297
297 296 296 295 292 291 290 289 288 288 288 288 287 287 287 287 286 284 283 283 283 283 284 284 285 288 288 288 288 288 287 288 289 289 289 289 291 294 295 295 295 295 299
295 295 295 293 291 290 289 289 288 288 288 288 287 287 286 284 283 283 282 282 281 283 284 285 285 286 286 287 287 287 286 287 286 286 288 288 289 291 293 294 294 294 294
295 295 293 292 290 289 289 289 288 288 288 287 286 284 283 283 283 282 281 280 281 282 283 284 284 285 286 286 286 286 286 285 285 285 287 288 288 290 291 292 292 293 294
294 294 293 289 289 289 289 288 288 287 287 285 284 283 282 282 281 281 280 280 280 281 281 283 283 284 285 286 286 285 285 284 284 284 285 288 290 290 290 291 292 292 293
292 293 291 289 289 289 288 288 287 285 284 283 282 282 281 280 280 279 279 280 280 281 281 281 282 282 284 285 285 285 285 284 284 284 284 285 288 289 290 290 291 291 291
293 289 290 289 289 288 287 286 285 283 282 281 280 279 279 279 279 279 279 279 280 281 281 281 281 281 282 283 284 283 284 283 283 283 284 284 285 287 289 289 289 290 291
290 290 289 288 288 287 286 284 283 281 280 280 279 279 278 279 279 279 279 280 280 281 281 281 281 282 282 282 282 282 283 283 283 283 284 284 284 285 286 287 289 289 289
289 289 289 288 287 286 284 282 281 280 280 280 279 279 278 278 279 280 280 280 281 280 280 280 280 281 282 283 283 283 283 283 283 283 284 284 284 284 284 285 285 286 287
289 289 288 287 286 284 282 281 280 280 279 279 279 279 278 278 279 279 279 280 280 281 280 280 280 280 280 281 282 283 283 283 283 283 282 282 283 283 283 284 285 285 285

GFSMA_850_thetae_024.txt.gz
Theta_e
315 313 313 314 315 315 312 311 311 313 313 313 313 312 309 307 309 312 314 314 314 314 311 309 311 313 312 312 312 311 310 309 308 308 307 307 308 314 317 320 323 324 324
316 315 314 315 314 312 311 312 313 313 311 310 308 307 305 303 302 302 303 306 310 312 313 312 310 309 313 312 311 311 311 310 309 308 307 307 306 307 311 318 321 322 325
318 318 317 316 315 314 313 313 312 309 308 307 306 306 304 303 302 302 301 301 301 301 302 304 306 308 312 313 312 311 311 311 311 310 309 308 307 306 307 308 318 322 322
319 318 317 315 313 312 311 309 308 307 307 306 306 305 305 304 303 302 301 301 302 302 302 301 303 306 308 310 312 312 311 311 311 311 310 310 308 306 306 306 309 319 322
317 315 314 313 314 310 309 308 308 307 306 305 305 303 301 299 298 298 300 304 304 304 304 305 304 303 304 306 310 312 311 311 311 313 312 311 310 310 308 306 306 311 320
314 314 314 311 310 309 308 308 307 307 305 302 299 296 295 295 296 300 300 299 300 301 301 301 302 303 304 305 307 309 312 313 311 311 313 314 311 310 309 309 307 305 311
313 312 311 309 310 309 308 307 305 300 297 295 294 294 294 297 296 295 298 300 296 296 298 297 297 298 298 300 303 305 308 310 312 312 311 313 314 312 310 309 308 307 305
312 311 310 309 308 308 307 300 295 294 293 293 294 294 296 295 297 298 295 295 296 294 295 294 294 295 294 295 296 298 301 305 309 311 311 311 312 314 312 310 309 308 304
311 309 307 306 303 301 298 296 294 293 293 293 294 296 297 297 296 295 294 294 295 294 294 294 294 294 294 295 295 296 296 298 303 308 310 310 311 313 313 312 309 308 307
308 305 301 299 299 298 297 294 292 292 293 294 295 297 296 296 295 294 294 294 293 294 294 293 294 294 294 294 295 295 296 296 297 301 305 310 310 310 312 311 310 308 308
303 302 300 300 299 299 294 292 292 292 292 293 293 292 292 292 292 293 292 292 292 292 293 292 294 294 294 293 295 295 295 296 297 297 299 303 307 309 309 308 311 308 307
300 301 300 300 299 299 294 292 291 291 290 290 290 290 290 291 291 291 291 291 292 293 291 292 293 294 293 292 293 294 294 294 295 296 297 299 302 305 309 309 310 309 308
300 300 300 300 299 296 294 296 292 291 290 289 289 288 289 289 289 289 290 288 287 289 289 290 291 292 293 291 291 292 293 294 294 294 295 296 299 302 306 308 309 307 306
301 300 300 299 299 297 296 294 291 290 289 288 287 288 288 288 288 288 288 286 286 287 287 288 288 290 290 290 291 290 291 292 293 293 293 293 296 300 302 304 303 302 300
300 300 299 298 297 297 294 292 291 290 289 288 287 287 287 287 287 287 287 286 285 285 285 286 286 287 287 288 288 290 290 290 291 291 291 291 291 296 298 301 302 302 302
299 298 296 296 296 295 293 292 290 289 288 288 287 287 287 287 287 287 287 286 285 284 283 284 285 285 285 286 287 288 287 287 289 290 290 290 290 292 296 299 299 300 301
293 293 296 296 296 294 292 291 289 289 288 288 288 288 287 287 287 287 285 284 283 282 282 283 283 284 284 285 288 288 288 287 287 288 290 289 290 290 291 296 298 298 301
292 293 295 294 294 294 290 290 289 288 288 288 288 288 287 287 286 284 283 283 282 282 281 281 282 283 283 284 287 288 287 287 287 287 287 288 289 289 289 293 296 297 297
291 293 294 293 294 291 290 289 289 288 288 288 287 287 286 284 283 283 282 282 281 281 280 282 282 282 283 284 285 286 286 286 286 286 286 286 286 288 289 291 294 294 296
291 292 293 293 293 290 289 289 288 288 288 287 286 284 283 282 282 281 281 281 280 280 280 280 281 282 284 283 285 286 286 286 286 285 285 285 286 287 289 290 292 293 294
292 293 292 292 290 289 289 288 288 288 286 285 283 282 281 280 280 280 280 280 280 279 280 280 280 281 282 282 284 285 285 285 285 285 284 284 286 289 289 290 290 291 292
291 291 292 290 289 289 289 288 287 286 284 283 281 281 280 280 279 279 279 279 279 280 280 281 280 281 281 281 282 283 284 284 284 284 284 284 284 288 289 291 291 290 291
291 290 290 290 289 288 288 287 286 284 282 281 281 280 279 279 279 279 279 279 280 280 280 280 281 281 281 282 281 282 282 283 283 283 283 283 283 285 288 288 290 291 291
290 290 289 289 288 288 287 286 284 282 281 281 280 279 279 279 279 279 280 280 280 280 280 280 280 280 280 281 282 282 282 282 282 283 283 283 283 284 284 287 289 288 289
290 289 289 288 287 287 285 284 282 281 281 281 280 279 278 278 278 279 279 279 279 280 280 280 280 280 280 280 281 282 282 282 282 282 283 283 283 283 284 284 285 286 289
289 289 288 287 287 285 284 282 281 280 280 280 279 279 278 278 278 278 278 278 279 279 279 280 280 280 280 280 280 281 282 282 283 282 282 282 282 282 282 283 284 285 285

GFSMA_850_thetae_027.txt.gz
Theta_e
319 316 315 314 314 314 313 311 312 312 312 310 309 308 307 307 307 306 305 304 305 309 312 313 311 309 309 309 313 312 311 310 310 310 309 308 307 307 308 314 318 322 324
318 317 315 315 315 314 314 313 312 309 308 308 307 307 307 306 306 305 304 303 302 302 301 302 303 304 308 308 308 312 313 311 311 310 310 310 308 307 307 307 310 317 320
318 318 317 317 315 313 313 312 310 309 308 308 307 306 306 305 304 302 302 303 303 303 303 302 301 302 303 304 305 307 312 313 311 311 310 310 310 309 307 307 307 308 317
318 318 316 314 314 313 312 310 310 309 309 307 305 304 303 301 299 298 298 299 300 301 302 303 303 303 303 302 303 305 307 310 312 312 311 310 310 310 310 307 306 307 309
317 317 315 314 313 311 309 309 308 308 305 303 300 298 297 296 295 295 297 300 299 299 299 300 300 302 302 303 303 303 304 307 310 312 312 311 311 311 311 310 308 306 306
315 313 313 311 308 309 308 308 305 301 297 295 294 295 294 294 295 298 298 296 297 298 296 295 295 295 296 298 300 301 302 304 306 309 312 312 312 313 313 311 310 309 307
312 311 309 308 308 307 304 300 299 297 295 294 295 297 296 295 300 295 297 298 297 294 294 293 294 293 293 293 293 294 297 299 300 305 308 311 312 312 312 313 311 310 309
310 309 308 307 303 299 299 298 298 297 295 293 293 297 298 297 298 297 297 294 294 294 295 294 293 293 293 293 293 294 294 294 296 298 302 307 310 312 312 313 313 312 309
309 308 306 302 300 299 299 298 298 295 294 294 292 296 297 297 296 295 295 295 295 294 294 294 294 294 294 294 294 294 294 294 295 295 296 299 306 310 311 313 313 312 312
306 301 301 299 299 298 298 298 297 295 292 294 294 295 294 294 293 294 294 293 293 292 293 294 294 294 294 294 294 294 295 295 295 295 296 296 299 304 309 310 313 312 312
300 298 298 299 299 299 299 298 296 295 291 291 293 292 292 292 292 293 292 291 291 291 292 291 293 293 293 293 294 293 294 294 294 294 295 296 297 298 303 308 310 311 311
300 301 300 300 300 299 299 297 296 294 291 290 291 291 290 290 290 290 290 289 289 289 289 290 290 292 292 292 292 292 292 293 294 294 294 294 295 297 299 304 309 309 310
301 301 300 300 300 299 298 296 296 293 290 290 289 289 288 289 288 288 288 288 288 288 288 288 288 290 289 291 291 290 291 291 292 293 293 292 292 295 296 304 307 309 310
297 299 300 300 299 298 296 296 294 292 290 289 288 287 287 288 287 287 288 288 288 287 287 287 287 287 288 290 289 288 289 291 290 290 291 291 291 291 294 299 303 306 307
295 298 298 297 295 296 296 295 293 292 290 289 288 288 287 287 287 287 287 287 287 287 286 286 286 286 287 288 288 288 289 288 289 290 289 290 290 290 291 295 298 300 302
293 293 292 293 295 296 295 294 293 291 289 289 288 288 288 288 287 287 286 286 285 285 284 284 284 284 284 285 286 286 287 288 288 288 287 287 289 290 290 291 294 297 299
292 291 291 293 294 295 294 293 292 290 289 288 288 288 288 287 287 286 286 285 284 284 283 284 283 283 284 284 285 285 287 288 288 288 286 287 287 289 289 290 290 294 299
291 291 291 293 294 293 293 292 290 289 289 288 288 288 287 286 285 285 284 284 283 283 283 283 283 283 284 284 285 285 286 287 288 287 286 287 287 287 287 289 289 291 295
291 290 291 293 293 293 291 290 289 289 289 288 288 287 286 284 284 283 283 283 283 282 282 282 282 282 282 283 284 285 285 286 287 286 286 286 286 286 286 287 289 290 294
290 291 291 292 291 292 290 289 289 288 288 288 286 285 283 282 282 282 282 281 281 281 281 281 281 282 282 282 284 284 285 286 286 286 286 286 285 285 285 286 289 290 293
290 290 292 290 290 289 289 289 288 288 287 286 284 282 282 281 281 280 280 280 280 280 281 281 281 281 282 282 282 283 284 284 285 286 286 286 285 286 287 287 288 290 291
290 291 290 290 290 290 288 288 287 287 285 284 282 282 281 280 279 279 280 279 280 280 280 281 281 282 282 282 282 283 283 284 284 285 285 285 285 285 286 288 290 290 290
290 290 290 290 289 288 288 287 287 285 284 282 282 281 280 279 279 279 279 280 280 280 280 280 280 281 282 282 282 282 283 283 283 283 284 285 285 285 285 287 289 290 291
290 290 290 289 288 288 287 287 285 284 282 281 281 280 279 278 278 278 279 279 280 280 280 280 280 281 281 281 281 282 282 282 283 283 283 283 284 285 285 284 287 289 291
289 289 289 289 288 287 286 285 284 283 282 281 281 279 278 278 277 278 278 279 279 279 280 279 279 280 280 280 280 281 281 282 283 283 283 283 284 284 285 284 284 287 289
289 289 289 288 287 286 285 284 282 282 281 281 279 278 277 278 277 277 277 278 278 279 278 279 279 280 281 281 281 281 281 282 282 283 284 283 284 284 284 284 284 284 285

GFSMA_850_thetae_030.txt.gz
Theta_e
319 318 316 316 315 314 313 313 313 313 312 310 310 310 309 309 308 308 308 308 306 305 304 303 302 304 306 308 308 309 310 313 312 311 310 309 309 307 306 307 313 318 321
319 318 317 316 316 315 314 313 313 311 310 310 309 309 309 308 308 307 306 307 306 304 304 304 303 302 302 302 302 304 305 306 312 313 311 310 310 309 309 307 307 309 316
319 318 317 316 316 314 313 312 310 310 310 310 309 308 307 307 306 306 305 306 306 305 302 301 302 303 303 303 303 303 303 305 307 310 313 311 311 310 309 309 307 306 307
318 318 317 315 313 312 310 309 309 309 308 307 306 304 304 303 303 305 305 304 304 303 303 302 299 300 301 302 303 303 303 303 303 305 309 312 312 312 310 310 309 306 306
317 315 314 312 310 309 309 308 307 305 304 304 303 301 301 301 300 302 303 303 302 301 301 301 298 296 296 296 297 298 299 300 301 302 303 307 312 312 312 311 310 309 308
314 313 312 311 309 308 306 305 303 302 302 301 301 300 301 300 301 303 302 301 301 301 300 299 299 299 297 296 294 294 294 294 295 300 300 302 305 311 313 312 312 311 309
312 311 309 308 308 307 304 301 301 301 300 301 301 300 300 301 303 303 301 300 300 298 299 298 298 297 297 297 298 298 294 293 294 297 297 298 300 304 309 313 312 313 311
310 309 309 307 306 303 303 300 300 299 299 299 300 299 299 299 299 301 299 299 298 298 297 297 296 296 297 297 297 296 297 297 293 294 294 295 295 298 302 308 313 312 313
309 305 302 302 301 299 300 301 300 299 298 298 298 298 299 298 298 297 297 296 297 295 295 295 295 295 296 297 297 297 296 295 294 294 294 294 298 300 302 305 309 313 313
304 302 299 298 298 300 301 300 298 299 297 297 297 297 297 296 296 295 295 295 294 294 293 293 294 293 294 295 295 295 295 294 294 294 294 295 296 297 303 304 307 310 313
304 302 301 299 299 301 301 300 299 299 297 296 296 295 295 294 293 293 293 293 292 292 292 291 291 291 292 293 294 294 293 292 293 293 294 294 294 294 300 302 303 306 310
303 303 303 302 302 301 300 299 298 297 297 295 294 294 293 293 293 292 291 291 290 290 290 290 290 290 290 291 292 293 292 291 291 291 292 293 293 293 295 299 300 304 308
302 301 302 301 301 300 300 298 297 297 296 295 294 293 293 292 292 291 291 290 290 290 290 290 290 290 289 289 290 290 292 291 290 291 291 290 291 291 292 293 297 301 306
300 300 300 299 298 299 298 297 297 296 296 295 294 293 292 291 291 291 290 290 289 289 289 289 289 288 288 288 289 288 289 290 289 290 290 291 290 289 291 291 294 298 302
298 296 297 297 297 297 297 297 296 296 295 294 293 292 292 291 290 290 290 289 289 288 288 288 288 287 287 287 287 287 287 288 288 288 289 288 289 288 288 290 290 294 299
296 295 295 295 295 296 296 296 295 295 294 294 292 291 291 290 290 289 289 288 288 288 287 287 287 287 287 286 286 286 287 287 287 287 288 288 288 287 287 288 290 290 292
295 294 294 294 295 295 295 295 295 294 293 292 291 291 290 290 289 288 288 287 287 287 286 286 286 286 286 286 286 286 286 287 288 288 289 288 288 286 287 287 288 290 290
294 294 294 294 294 294 295 294 294 292 292 291 291 290 290 288 288 287 287 286 286 285 285 285 285 285 285 284 285 285 285 286 287 288 288 288 288 286 287 287 287 287 289
293 294 294 294 294 294 293 292 291 291 290 290 289 289 288 287 286 286 285 285 284 284 284 284 284 284 284 284 284 285 286 286 287 287 287 287 287 286 286 286 286 286 288
293 294 293 292 292 292 291 291 290 290 290 289 288 287 285 284 284 283 283 283 283 283 283 283 283 283 283 283 284 284 284 285 286 287 287 287 287 286 285 285 285 286 288
293 293 293 292 291 291 290 290 290 289 288 287 286 285 284 283 282 281 281 281 281 282 282 282 283 283 283 283 284 284 284 284 284 285 287 288 288 288 288 288 288 287 288
293 293 292 291 291 289 289 288 288 287 287 285 284 283 283 282 282 280 280 280 280 281 281 282 282 282 283 283 283 284 284 284 285 285 286 287 287 287 287 288 289 289 289
293 292 292 291 290 290 288 288 287 286 285 284 283 283 282 282 281 281 280 280 281 281 281 281 281 282 283 283 283 283 283 284 284 285 285 285 286 286 287 287 286 287 289
292 292 291 290 290 288 288 287 286 284 284 283 283 282 282 281 281 279 279 280 281 281 281 281 281 281 281 282 282 282 283 283 283 284 285 285 285 285 286 286 286 286 288
291 291 291 290 289 288 288 286 285 284 284 283 282 282 281 280 279 278 278 279 280 280 281 280 279 280 280 281 281 281 282 283 284 284 285 285 285 285 285 286 286 286 286
290 290 290 289 288 287 287 286 284 283 283 283 282 282 280 278 278 277 277 278 279 279 279 279 280 281 281 282 282 282 282 283 283 283 284 285 285 285 286 286 287 287 286

GFSMA_850_thetae_033.txt.gz
Theta_e
324 324 322 320 318 318 318 317 316 314 314 314 313 313 312 312 311 311 310 309 308 307 305 304 303 303 302 302 302 302 303 304 306 309 312 312 311 310 309 307 307 310 318
319 323 321 319 318 317 317 315 313 313 314 313 312 312 310 309 309 308 308 308 308 307 306 304 302 302 303 303 303 303 303 302 303 304 307 312 312 311 310 309 308 307 307
320 320 318 318 317 315 313 313 313 312 312 311 309 308 307 304 306 304 306 307 307 306 305 304 302 301 300 300 300 301 302 303 303 302 303 306 311 312 311 310 310 309 307
321 319 318 317 314 312 312 312 311 309 308 307 306 306 303 303 304 303 303 305 305 305 303 303 302 300 298 297 296 296 296 299 299 300 302 302 304 308 312 312 310 310 310
318 316 315 314 312 312 311 309 308 307 306 305 303 303 302 302 303 302 303 305 304 303 303 302 301 300 300 299 298 298 298 301 300 303 304 303 302 302 306 312 312 311 310
316 313 313 312 311 310 309 308 307 305 303 302 302 302 302 302 302 303 305 305 303 302 302 301 300 300 299 298 298 299 301 300 301 302 301 303 300 299 302 304 311 313 312
312 312 312 311 309 308 307 306 304 302 302 301 301 301 301 301 301 303 302 303 301 301 300 299 299 298 298 298 299 299 299 299 300 299 300 299 299 296 296 299 303 311 313
312 311 310 309 308 307 305 303 303 302 301 300 300 300 300 299 301 301 300 300 299 299 298 297 297 297 297 296 297 297 298 297 296 296 297 298 299 299 298 299 301 304 311
310 309 308 307 305 304 302 303 303 301 300 300 299 299 299 299 298 298 298 298 297 296 296 295 295 294 295 294 295 296 295 295 295 294 296 298 298 298 298 300 301 304 307
309 308 306 305 304 303 303 303 302 301 300 299 298 298 298 298 297 296 296 296 295 295 294 294 294 293 293 293 294 293 294 294 294 293 293 296 298 298 298 298 301 302 305
308 306 305 305 304 303 303 302 302 301 299 299 298 297 296 296 295 295 295 294 294 293 293 292 292 292 292 292 292 292 293 291 291 292 292 293 294 297 297 297 298 300 302
304 305 304 304 303 302 302 302 301 299 299 298 298 296 295 295 294 294 294 293 293 292 292 292 291 291 291 291 291 291 290 290 291 292 291 291 292 293 294 295 294 297 300
303 302 302 301 301 301 300 300 300 298 298 298 297 297 295 294 293 293 293 293 292 291 291 291 291 291 290 290 290 289 289 289 289 289 290 290 290 291 291 291 291 292 295
301 301 299 299 299 299 298 298 298 298 297 297 297 296 295 294 293 293 292 292 291 291 290 290 290 290 289 289 289 288 289 288 288 288 289 289 289 289 290 292 291 291 291
299 297 297 297 296 296 297 297 297 298 296 296 296 295 295 294 293 292 292 291 290 290 290 289 289 289 289 288 288 288 288 288 287 287 287 288 288 288 288 288 291 290 290
297 297 296 296 296 296 296 296 297 296 296 296 295 294 293 293 292 291 291 290 290 289 289 289 288 288 288 288 287 287 287 287 287 287 288 288 287 288 288 287 288 289 289
297 296 295 296 296 296 296 296 296 296 295 294 294 293 293 292 291 291 290 289 289 288 288 288 287 287 287 287 286 286 286 286 286 286 287 287 288 289 289 288 287 287 289
296 295 295 296 296 295 295 294 295 294 294 293 292 292 291 291 290 289 288 288 287 287 287 286 286 286 286 286 285 285 285 286 286 287 287 287 288 289 288 288 287 286 287
295 295 295 295 295 294 293 293 293 292 292 291 291 291 290 289 288 287 286 286 285 285 285 285 285 284 284 284 284 285 285 285 286 286 287 287 287 287 287 287 287 285 286
295 295 295 295 294 293 292 292 292 291 291 290 290 289 288 287 286 285 284 284 284 284 284 283 283 284 284 284 285 285 285 285 285 285 286 286 288 288 288 287 286 285 285
295 295 294 294 293 292 292 291 291 290 289 288 288 287 286 285 284 283 282 282 282 282 282 282 283 283 284 284 284 284 284 284 285 285 286 286 287 288 288 288 288 288 287
294 294 294 293 292 292 291 289 289 288 288 287 287 286 285 285 284 283 283 282 281 281 281 282 282 282 282 283 283 284 284 284 284 285 285 286 286 287 289 289 289 289 289
294 294 294 293 292 292 291 289 288 288 286 286 286 285 285 284 284 283 282 281 281 281 281 282 282 282 283 282 282 283 283 284 284 284 284 285 285 286 287 288 287 287 287
294 293 293 293 292 291 290 288 288 287 286 286 286 285 284 284 283 281 280 280 281 281 282 282 282 281 281 281 281 282 282 283 283 283 284 285 285 285 286 286 286 286 286
293 293 293 293 292 291 290 288 287 286 286 286 285 284 284 282 281 279 278 279 279 280 281 281 280 280 280 281 282 282 282 283 284 284 284 285 285 285 285 286 286 286 286
292 292 292 291 291 290 289 288 286 285 284 285 285 284 283 283 281 278 277 277 278 280 279 279 279 281 281 282 283 283 283 284 284 284 284 285 286 286 286 286 286 286 287

GFSMA_850_thetae_036.txt.gz
Theta_e
326 323 322 320 320 318 318 318 317 314 314 314 313 312 311 310 307 307 308 308 307 307 307 306 305 304 302 302 302 303 303 303 302 303 305 309 313 312 311 309 308 307 308
321 322 321 320 319 318 318 316 314 313 313 312 310 309 308 307 305 304 305 304 306 307 307 306 304 303 302 301 299 298 298 300 302 303 303 303 306 312 313 311 310 309 308
322 320 320 319 318 319 316 314 313 312 310 309 308 305 305 304 302 303 304 302 305 306 306 304 303 303 302 300 301 302 303 301 298 297 299 302 303 304 311 313 312 310 309
321 321 320 319 318 315 313 312 310 309 308 306 304 302 302 303 301 303 303 302 305 305 305 303 303 301 301 299 301 301 302 303 303 303 303 301 304 302 303 307 313 313 311
320 319 318 317 314 312 312 310 309 307 305 302 300 301 302 301 302 302 302 303 305 304 303 303 302 301 300 299 300 300 301 302 302 303 303 302 302 299 299 301 303 311 314
317 316 314 313 312 311 310 309 307 305 302 302 301 301 300 301 301 301 302 305 305 303 301 300 300 299 298 298 298 299 301 301 301 301 301 300 300 300 299 296 297 302 309
313 313 313 312 311 309 308 306 304 304 303 301 300 299 300 300 300 300 301 301 301 300 300 299 297 297 296 296 296 297 298 298 297 297 299 298 299 299 299 299 294 295 300
313 312 311 310 309 308 306 303 303 303 302 301 300 300 299 299 299 299 299 298 297 297 296 296 296 295 295 294 294 294 296 295 295 294 296 296 298 298 299 299 299 295 297
312 311 310 308 307 305 304 303 303 302 302 301 300 299 299 299 298 297 297 297 296 296 295 294 294 294 293 293 292 293 293 292 293 293 294 295 295 297 298 298 299 299 301
312 310 308 307 305 305 304 303 303 302 302 301 300 299 298 297 297 296 295 295 295 295 294 293 293 292 292 292 292 292 292 291 291 291 292 293 293 294 296 297 297 298 300
309 307 306 306 305 305 304 303 302 302 302 301 300 299 297 297 296 295 295 294 294 293 293 293 292 292 292 292 291 291 291 291 290 290 290 291 292 293 294 295 296 297 297
306 305 305 304 304 303 302 302 301 301 301 300 298 299 298 297 296 295 294 294 294 293 293 292 291 291 291 291 290 290 290 289 289 289 289 290 291 292 292 293 295 295 296
305 303 302 302 299 299 299 299 299 299 299 299 298 298 297 297 295 295 294 293 293 292 291 291 290 290 290 290 290 289 289 289 289 288 288 288 289 290 291 291 292 294 294
302 301 300 298 298 297 297 297 297 298 298 298 298 297 296 296 295 294 294 293 292 291 291 290 290 290 289 289 290 288 288 288 288 288 288 288 287 288 289 289 290 291 292
300 299 298 297 296 296 296 296 296 296 297 297 297 296 295 295 294 294 293 292 291 291 290 290 290 289 289 288 288 287 287 287 287 287 287 287 287 287 288 289 289 290 290
299 298 297 296 296 296 296 296 296 297 296 296 295 295 294 294 293 293 292 291 291 290 290 289 289 288 287 287 286 286 287 286 286 286 286 286 286 287 287 288 288 288 287
298 297 296 296 296 296 296 296 296 295 295 295 294 294 293 292 292 291 290 289 288 288 287 287 287 286 286 286 285 285 285 285 285 285 286 286 287 287 287 287 288 288 288
298 297 296 295 296 296 295 294 293 294 294 293 292 292 291 291 290 289 288 287 287 287 286 285 285 285 285 284 284 284 285 284 285 285 285 286 286 286 287 287 288 289 288
297 296 295 295 295 295 294 293 293 293 292 292 291 291 290 289 288 287 287 286 285 284 284 284 283 283 283 283 283 284 284 284 284 285 285 286 286 286 286 287 287 287 287
297 295 295 295 295 295 293 293 292 292 291 291 290 289 288 287 287 286 285 284 283 282 282 282 282 282 282 283 283 282 284 284 284 284 284 284 285 285 286 287 287 287 287
296 295 295 295 295 294 293 292 292 290 290 289 287 287 287 286 286 285 284 283 283 282 281 280 281 281 282 282 282 283 283 283 283 283 284 285 285 285 286 286 288 288 287
295 295 295 294 294 293 292 292 291 290 288 287 287 287 286 286 285 284 284 284 283 281 281 281 281 281 282 282 282 281 281 281 282 282 283 283 284 284 284 286 289 288 289
294 294 294 294 294 293 292 292 291 289 287 286 286 286 286 285 285 284 284 283 280 280 281 281 281 282 282 281 280 280 280 281 281 282 282 283 283 284 284 285 287 287 287
294 294 294 293 294 293 292 292 290 289 287 286 286 286 285 284 284 283 282 280 278 279 280 281 281 281 280 280 280 281 282 282 282 283 283 284 284 284 284 285 285 285 286
294 294 293 292 293 293 292 291 290 288 287 286 285 285 285 284 283 283 282 279 279 278 279 280 279 279 280 281 281 282 283 283 283 284 284 284 284 284 285 285 285 285 285
294 293 293 292 292 291 291 290 289 288 286 285 284 285 284 283 283 283 281 279 279 278 277 278 279 280 280 281 282 282 282 282 283 284 284 285 284 284 284 286 286 286 286

GFSMA_850_thetae_039.txt.gz
Theta_e
327 324 322 321 320 319 318 318 318 317 315 313 311 309 306 305 306 303 304 304 304 303 307 306 305 304 303 302 301 300 299 298 299 301 303 303 303 308 313 313 312 313 311
326 323 319 320 319 319 318 318 316 314 312 310 307 303 303 304 303 301 302 303 303 303 306 306 304 303 304 302 301 303 303 303 301 300 301 301 302 303 304 310 312 311 312
322 322 321 321 319 318 318 316 313 311 310 308 303 301 302 302 301 300 302 302 302 305 306 305 303 303 303 302 302 302 302 302 303 303 303 304 304 303 302 303 307 312 312
321 321 321 319 318 317 315 311 311 310 308 304 300 299 299 300 299 300 301 302 303 305 304 303 303 302 301 300 301 301 301 303 302 303 302 302 303 302 300 297 301 303 310
321 320 318 316 315 313 312 311 310 308 305 302 300 299 299 298 300 301 301 301 304 302 301 300 300 300 299 299 298 299 300 300 300 302 301 300 300 300 301 300 298 297 301
318 313 312 312 312 311 311 309 308 306 303 301 301 300 299 298 300 300 301 301 301 300 300 299 299 298 297 295 295 296 297 298 300 300 299 299 299 299 300 300 300 300 296
312 312 312 312 311 310 309 308 305 303 301 301 301 301 299 299 297 299 299 299 298 297 297 296 296 295 295 294 294 294 295 297 296 296 297 297 296 297 298 300 300 300 300
312 312 313 312 311 310 309 306 303 302 301 302 302 301 299 298 298 297 297 297 296 296 295 295 294 293 293 293 292 292 292 292 293 294 294 294 295 295 295 297 298 299 299
312 312 312 311 309 306 304 304 302 302 302 302 302 301 299 298 298 297 297 296 296 295 295 294 293 293 292 292 292 292 292 291 291 292 293 293 293 293 294 295 297 297 299
313 311 308 306 305 305 305 304 303 303 302 302 302 301 300 299 298 297 296 295 295 294 293 294 293 293 292 291 291 291 291 291 291 290 291 292 292 293 293 293 295 296 297
309 307 306 306 306 305 305 304 303 301 302 301 301 301 299 298 298 297 297 295 295 293 293 293 292 292 291 290 290 290 290 290 290 289 290 290 291 291 292 292 294 294 295
310 307 306 305 305 304 303 301 297 299 299 299 299 299 298 298 298 297 297 295 294 294 293 292 291 290 290 289 289 289 289 289 289 289 289 290 290 290 290 290 291 293 294
306 306 306 304 303 302 297 295 296 296 297 298 298 298 298 298 297 296 295 295 294 293 293 292 290 290 290 289 289 289 289 289 289 288 288 288 289 289 289 289 290 290 291
307 306 304 302 298 296 295 295 294 294 295 296 297 298 297 296 296 296 295 294 293 293 292 291 290 289 289 289 289 288 288 288 287 287 287 287 287 288 288 288 288 289 290
303 301 299 297 297 295 294 294 295 295 296 297 297 296 295 295 295 294 294 293 292 292 291 290 289 288 288 288 288 288 287 286 285 285 286 286 285 286 287 287 288 289 290
301 300 298 296 295 294 294 296 296 296 296 295 295 294 294 294 294 293 292 291 290 289 288 288 288 287 286 286 286 286 285 284 284 284 284 284 285 286 286 287 287 288 289
300 298 297 296 295 294 296 296 296 294 292 294 294 294 293 292 291 291 290 289 288 288 287 287 286 285 284 284 284 284 283 283 284 284 284 285 285 285 285 286 286 286 287
299 298 297 296 295 295 295 295 295 293 292 293 292 292 291 291 290 289 289 288 287 286 286 284 283 283 282 282 282 282 283 283 283 284 284 284 285 285 286 286 286 287 287
298 298 297 296 295 295 295 295 294 293 292 292 291 290 289 289 288 288 287 286 286 285 283 283 282 281 281 281 282 281 282 282 283 283 283 283 283 284 284 285 285 286 287
298 298 297 295 294 295 295 295 293 291 291 291 291 289 288 287 287 287 286 285 284 284 283 283 281 281 281 281 282 282 282 282 281 281 282 282 284 284 284 284 285 285 286
298 297 296 294 295 294 294 294 293 292 291 290 289 287 286 287 287 286 285 284 284 284 283 281 280 281 281 281 282 282 281 280 280 280 281 282 282 283 283 283 284 285 286
296 295 294 294 294 294 294 294 293 292 291 290 287 286 286 286 286 285 285 284 284 283 281 278 280 281 281 281 281 281 280 280 281 282 282 282 283 283 283 283 284 285 287
294 294 294 294 294 294 293 294 293 292 291 289 287 286 286 286 285 285 284 284 282 281 279 278 280 280 281 280 280 280 280 282 282 283 283 283 284 283 283 283 284 285 285
294 294 294 294 294 293 293 293 293 292 291 289 288 286 285 285 285 284 284 283 282 281 279 279 280 280 280 279 280 281 281 282 282 282 283 283 284 284 284 284 285 285 285
294 294 293 294 293 292 292 292 292 291 290 289 287 285 285 284 284 283 283 282 281 281 279 278 278 279 280 280 281 281 281 281 281 282 283 283 284 284 284 284 286 286 285
293 293 293 293 293 292 292 291 290 290 289 288 286 285 285 284 283 283 282 281 281 280 280 280 278 279 279 280 280 280 280 281 281 282 283 283 284 285 284 284 284 285 285

GFSMA_850_thetae_042.txt.gz
Theta_e
326 324 322 321 320 319 318 318 318 317 316 312 310 306 301 300 302 301 301 302 302 303 305 306 305 305 305 303 303 302 301 300 299 299 299 299 299 303 304 304 309 312 312
325 325 323 321 319 318 318 318 318 314 311 310 308 302 299 299 300 299 301 302 302 303 306 305 304 304 304 304 303 303 303 303 302 303 303 303 302 300 301 302 303 305 311
325 325 321 321 320 319 318 318 314 311 310 309 304 299 299 299 299 298 300 302 302 305 304 304 303 303 302 303 302 302 302 303 303 303 302 302 301 301 300 301 299 300 302
323 322 321 321 320 319 317 313 311 310 309 305 301 299 299 298 300 299 301 301 302 304 303 303 300 299 299 299 300 300 301 301 301 301 301 301 299 300 300 299 301 301 298
321 321 320 319 317 314 312 311 310 309 306 302 300 300 300 298 299 300 300 301 300 300 300 298 297 297 297 297 297 298 298 298 299 300 299 300 299 299 299 299 299 301 301
321 320 318 313 312 312 311 310 309 308 303 301 300 300 300 299 297 297 298 299 299 298 297 296 296 295 294 294 294 295 296 296 298 297 297 297 298 297 296 297 298 300 302
319 313 312 312 312 311 310 309 308 303 301 300 300 301 300 299 297 298 297 297 297 297 296 296 295 295 294 293 292 293 294 294 295 295 295 295 295 295 295 296 296 297 299
312 312 312 312 312 311 310 307 303 303 301 301 301 301 300 299 298 299 297 297 296 296 295 294 294 294 293 293 292 292 292 293 293 293 293 294 293 294 294 294 295 295 297
312 312 312 312 310 307 306 304 304 303 303 302 301 301 300 299 300 299 297 296 295 296 296 295 293 293 293 293 292 290 290 291 291 291 292 293 293 293 293 294 294 294 295
312 313 312 309 307 307 306 305 304 304 303 301 301 301 300 300 299 298 297 297 296 295 296 295 293 292 292 292 290 290 290 290 290 290 291 292 292 292 292 293 293 293 294
313 313 310 307 306 306 305 305 304 302 299 298 299 299 298 298 298 298 297 297 296 296 295 294 292 292 292 291 290 289 288 289 289 289 290 290 290 291 291 292 292 292 292
311 310 309 307 306 306 304 302 300 296 294 295 296 297 298 298 298 297 296 296 295 295 294 294 293 292 291 290 290 289 289 289 289 289 288 289 290 289 290 290 291 292 292
311 310 307 305 304 304 302 298 294 293 293 294 295 295 297 298 297 296 296 296 295 295 294 293 292 291 290 289 289 289 289 289 288 288 288 287 288 288 288 289 289 290 290
307 305 305 305 301 298 297 294 293 293 294 294 295 296 297 296 295 294 294 295 293 293 293 291 290 289 289 288 288 288 288 288 287 287 286 285 285 286 287 287 288 288 289
306 307 302 301 299 297 294 293 292 294 295 295 296 295 295 294 294 294 294 293 292 291 291 290 289 288 288 287 286 285 285 285 284 284 284 284 285 286 287 287 288 288 289
307 301 301 298 297 296 294 292 294 295 295 295 292 293 294 294 293 292 292 291 291 290 289 288 287 286 285 284 283 283 283 283 283 283 283 284 284 285 286 286 286 287 287
301 304 301 298 297 296 294 293 294 295 295 293 292 293 293 292 291 290 290 290 289 288 287 286 285 284 283 282 283 283 282 282 282 283 283 283 283 284 284 285 285 286 286
304 300 299 298 298 297 294 293 294 295 294 292 292 291 291 290 290 289 289 288 287 286 285 285 284 283 282 281 281 281 281 281 281 282 282 282 282 283 283 283 284 284 284
299 299 298 298 298 296 294 294 295 295 294 291 291 291 291 290 289 288 287 287 286 286 284 284 283 282 281 281 281 281 281 281 282 281 281 281 282 282 283 284 284 284 284
299 298 298 297 296 294 294 294 294 294 294 292 291 291 290 289 287 286 286 286 285 284 284 283 282 281 279 280 281 281 281 281 280 280 281 281 281 281 282 282 283 283 283
297 297 296 295 294 294 294 294 294 294 294 292 291 291 290 286 285 286 286 285 284 284 283 282 281 279 279 280 280 280 280 280 280 281 282 283 283 283 283 283 283 283 283
296 295 296 294 294 294 294 294 294 293 293 292 292 291 289 286 285 285 285 285 284 284 283 281 279 278 279 280 280 280 280 280 281 282 282 283 283 283 284 283 283 283 284
296 295 293 294 293 294 294 294 293 293 293 293 291 290 289 288 285 285 285 284 284 283 282 280 279 279 279 279 279 279 280 281 282 281 281 282 283 283 284 284 284 284 284
295 293 294 294 294 293 293 293 292 293 292 292 291 290 288 287 285 285 284 284 283 282 281 280 279 278 278 279 279 280 281 281 281 281 281 282 283 284 284 284 284 285 285
293 293 294 293 293 293 293 293 292 292 292 290 290 289 287 286 285 284 284 283 282 281 281 280 279 278 278 279 280 280 280 280 280 281 282 282 283 284 284 284 284 284 285
293 293 293 292 292 291 292 292 292 291 291 290 289 288 287 285 284 284 283 282 281 281 281 280 280 280 278 278 278 279 279 279 280 280 281 282 284 285 284 284 284 284 284

GFSMA_850_thetae_045.txt.gz
Theta_e
324 323 322 320 320 319 318 318 317 317 316 311 310 307 301 299 299 298 298 299 301 303 308 308 307 307 305 304 304 304 303 303 304 304 301 301 300 300 299 298 300 302 303
324 324 323 321 320 319 318 318 317 316 311 310 309 303 299 298 298 298 298 299 302 303 307 306 305 306 305 304 304 303 303 303 303 303 300 299 299 299 298 298 300 298 299
324 325 324 321 320 319 318 317 317 312 310 309 304 299 299 298 298 298 299 300 301 303 305 304 303 303 301 303 303 302 302 302 301 302 302 302 301 299 300 299 300 301 301
326 325 322 320 320 319 318 317 312 310 309 306 300 299 299 299 298 299 300 301 302 305 304 303 301 299 298 298 299 300 300 299 299 300 300 300 300 299 299 298 299 300 301
325 322 321 321 320 318 316 312 310 310 308 301 300 299 299 298 299 297 298 299 300 300 302 300 298 297 296 296 296 297 298 298 298 299 299 298 298 298 298 297 297 298 299
321 321 321 320 318 313 311 310 310 308 302 300 299 299 298 298 298 297 297 297 298 297 297 296 296 295 295 294 294 294 296 296 296 296 296 296 296 296 296 296 297 297 297
321 321 319 315 311 311 311 310 308 303 302 300 299 299 298 298 299 298 298 297 297 295 296 296 295 294 293 293 293 293 294 295 295 295 295 294 295 295 294 294 295 295 296
320 318 313 311 311 311 310 307 305 303 302 302 301 300 299 298 298 297 299 298 296 296 295 296 295 294 293 293 293 293 292 291 292 293 293 293 293 294 294 294 294 295 295
316 313 312 311 312 311 307 306 305 304 303 303 302 300 300 299 299 299 299 297 296 296 296 296 295 294 293 292 292 291 290 290 289 291 292 292 293 293 293 293 294 294 294
313 312 312 312 311 307 306 306 305 304 303 301 299 297 299 299 299 299 297 297 297 296 295 295 295 294 293 292 292 291 290 289 288 289 290 291 291 292 292 292 292 293 294
313 312 312 311 307 306 306 305 305 303 299 296 295 295 296 297 298 298 297 296 296 296 295 294 294 294 293 292 292 291 290 289 289 289 288 290 290 290 291 291 291 292 292
313 312 311 308 307 306 304 304 301 298 295 293 293 293 295 295 296 298 297 296 294 294 294 294 294 293 293 292 290 289 289 289 289 289 288 288 289 289 290 290 290 290 291
313 312 310 307 305 303 305 301 299 297 293 292 293 294 294 295 297 296 295 295 294 294 294 293 292 291 291 290 289 288 288 288 288 288 287 287 287 287 288 288 288 289 289
313 311 309 310 304 303 300 299 297 293 292 293 295 295 293 293 294 294 294 294 294 293 292 291 290 289 289 288 287 286 285 285 284 284 283 283 284 285 286 287 287 288 289
311 308 307 305 305 300 301 295 294 293 293 295 294 294 291 292 293 293 294 293 292 292 290 289 288 288 287 285 284 283 283 283 283 283 283 283 285 285 286 286 287 287 288
311 310 307 306 304 301 297 296 294 293 294 294 294 293 291 292 293 292 291 290 290 289 288 288 287 286 285 283 283 282 282 282 282 282 282 282 283 284 285 285 286 286 287
310 307 306 304 300 298 297 296 294 293 293 294 294 293 291 291 291 290 290 289 289 288 287 286 285 285 283 283 282 281 282 282 282 281 281 282 282 283 282 283 284 285 285
306 304 304 299 298 297 297 295 293 293 294 294 294 293 291 291 290 290 289 288 287 287 286 286 285 284 283 282 281 280 281 281 281 281 281 281 281 281 281 282 283 284 284
303 301 300 298 297 296 295 294 293 294 294 294 294 293 291 291 290 290 289 286 286 286 285 284 284 283 282 281 280 280 281 281 281 280 280 281 282 282 281 281 282 283 283
301 300 298 297 296 296 295 294 294 294 293 294 294 293 292 291 290 288 286 286 286 285 284 284 283 282 281 281 280 280 281 280 279 280 281 282 282 283 282 282 282 282 282
298 297 296 297 296 296 294 294 294 294 294 294 293 293 292 290 291 289 286 285 285 285 284 283 282 282 281 280 279 279 279 279 281 281 281 282 282 282 283 283 283 283 283
297 299 299 299 296 294 294 294 294 294 293 293 293 293 292 291 289 288 287 285 285 284 283 283 282 281 280 279 279 279 279 280 280 281 281 281 281 282 283 283 284 284 283
300 299 297 295 294 294 293 293 293 293 293 292 293 292 291 291 290 288 286 285 285 284 283 282 281 280 280 279 279 279 279 280 280 280 280 281 282 284 284 284 284 284 284
297 295 294 293 293 293 293 293 293 293 292 292 292 292 291 290 289 287 285 285 284 284 283 282 280 280 280 279 279 279 279 279 280 280 280 280 282 283 284 284 284 284 285
293 293 292 292 292 292 292 291 291 292 292 292 291 291 289 289 288 286 284 284 284 283 282 281 280 280 279 279 278 278 278 279 279 279 280 281 281 282 284 284 285 284 284
292 291 291 291 291 290 290 291 291 292 292 291 290 290 289 288 287 286 285 284 283 282 281 281 280 280 280 279 279 278 278 278 278 278 280 280 281 282 283 283 284 284 285

GFSMA_850_thetae_048.txt.gz
Theta_e
321 321 321 320 319 319 318 318 318 317 317 311 310 308 302 299 299 299 298 298 301 302 307 308 307 307 306 305 305 304 304 303 304 303 303 302 302 301 299 298 297 297 297
324 323 322 321 320 319 318 317 317 317 313 310 309 305 300 299 299 298 298 299 300 302 306 306 305 306 305 305 304 303 303 303 302 302 302 302 302 301 300 300 297 297 301
322 323 323 322 321 319 318 317 317 315 311 309 307 300 299 298 298 298 297 299 300 303 305 305 304 304 302 302 302 301 301 301 300 300 301 301 300 300 300 299 299 299 300
322 324 324 322 320 319 318 317 317 311 310 309 302 299 298 297 298 297 297 299 301 303 304 304 303 301 299 298 297 299 299 299 299 299 300 299 298 298 298 298 298 298 299
321 325 323 321 320 319 319 317 312 310 309 303 300 298 298 298 298 297 297 297 297 298 298 298 297 297 296 295 295 295 297 297 297 298 298 297 296 296 297 297 296 297 298
322 324 322 321 320 319 316 312 310 309 304 301 300 300 298 298 298 298 297 297 297 297 295 295 295 295 295 294 293 293 295 296 297 297 296 296 296 296 296 295 295 296 296
319 321 321 320 319 315 311 311 309 305 303 302 302 302 299 297 298 298 297 297 298 296 295 295 295 295 294 293 293 293 294 294 294 294 294 295 295 295 295 295 295 295 295
320 320 320 318 315 311 311 309 306 305 304 303 303 301 299 297 298 298 298 298 298 296 296 296 296 295 295 293 293 293 292 291 292 293 293 293 294 294 294 294 294 294 295
320 320 318 314 312 311 309 306 306 305 304 303 302 300 298 297 297 298 297 297 297 296 296 295 295 295 295 294 293 292 291 291 290 291 292 292 292 293 293 293 293 293 294
319 317 314 312 311 310 307 306 306 305 302 300 298 296 295 297 298 298 297 297 297 296 295 294 295 295 294 293 293 292 291 290 290 289 291 291 291 292 292 292 292 293 293
316 314 312 311 310 309 307 306 305 303 305 299 295 293 293 294 296 297 297 297 297 296 295 293 294 294 294 294 293 292 290 290 289 289 288 289 290 290 290 291 291 291 292
315 313 312 312 311 309 307 307 305 308 299 296 294 293 294 294 294 295 296 297 296 295 294 292 293 293 293 293 291 290 289 289 288 288 288 288 288 289 289 289 290 290 290
315 313 312 312 311 308 310 306 306 301 301 301 293 294 294 294 293 294 295 295 295 293 292 292 292 292 292 290 290 289 288 287 286 285 285 284 284 285 287 287 288 288 289
315 314 314 312 310 313 309 307 306 301 295 293 293 294 293 292 291 291 293 293 293 292 292 291 290 290 288 288 287 286 284 284 283 283 283 283 283 283 285 286 287 288 288
315 315 316 313 312 310 307 305 298 295 293 293 294 294 294 292 290 291 292 292 291 291 290 290 288 288 287 286 285 283 283 283 282 282 283 283 283 284 284 285 286 287 287
318 317 314 310 309 306 303 298 297 295 294 294 294 294 293 292 291 291 291 290 290 289 289 288 287 286 285 284 283 282 282 282 281 282 282 281 281 283 283 284 284 285 285
317 314 309 308 306 302 298 297 295 296 294 293 293 294 293 292 291 290 290 289 289 288 288 287 286 285 284 283 282 282 281 281 281 281 281 281 281 281 281 281 282 283 284
315 309 308 303 300 298 297 295 298 294 293 294 294 294 293 293 291 290 290 289 289 288 286 286 285 284 284 283 282 281 281 281 281 281 280 280 280 281 281 282 281 282 283
306 305 301 300 302 296 297 298 294 294 294 294 293 293 293 293 292 291 290 289 287 285 286 285 284 284 283 282 282 281 281 281 280 280 281 281 281 282 282 282 282 282 282
302 302 301 297 296 299 298 296 295 294 294 294 294 293 293 293 292 291 290 288 287 285 285 285 284 283 282 282 281 280 281 280 280 280 281 281 281 282 282 282 282 283 283
302 298 296 299 299 298 297 294 294 294 294 294 293 293 293 293 292 291 290 289 287 286 285 284 284 283 282 281 280 280 279 280 280 280 281 281 281 281 282 283 283 283 283
297 296 301 300 298 296 294 294 294 293 293 293 293 293 292 292 292 291 290 288 288 285 285 284 283 283 282 281 280 279 279 279 279 280 279 281 281 282 283 284 284 284 283
299 300 300 298 295 294 294 293 293 292 292 292 292 292 292 291 291 291 289 289 286 285 285 284 283 282 281 280 280 279 279 278 279 279 279 280 281 282 283 284 284 284 284
300 298 295 293 293 292 292 292 291 291 291 291 292 292 292 291 291 289 289 288 286 285 284 284 283 281 280 280 280 279 279 279 279 279 279 279 281 282 282 283 284 284 284
293 293 292 292 291 291 290 290 290 290 290 291 291 291 291 291 290 289 288 287 285 284 284 283 282 281 280 280 279 279 279 278 279 279 279 280 279 280 281 283 283 283 284
292 291 290 290 290 290 290 290 290 290 290 290 291 291 291 290 289 289 288 287 285 285 283 282 281 280 280 280 279 279 279 278 278 278 278 278 279 279 280 282 282 283 283

GFSMA_850_thetae_051.txt.gz
Theta_e
313 317 318 318 318 318 318 318 318 317 317 316 310 308 304 300 300 299 298 298 299 302 307 308 308 307 306 305 305 304 304 304 304 303 303 303 303 301 301 301 295 294 296
320 320 320 320 320 319 319 318 318 317 317 313 309 307 301 300 299 298 298 298 299 302 307 305 306 306 306 305 303 302 302 302 301 301 301 302 301 301 301 300 299 297 298
323 322 322 322 320 320 319 318 318 317 314 310 308 303 300 299 298 298 297 298 300 302 303 304 304 304 303 302 300 300 301 300 300 300 300 301 300 298 300 299 299 298 299
321 322 323 323 322 321 319 318 317 315 310 309 304 300 299 298 298 298 297 298 300 302 304 304 303 302 300 298 297 299 298 299 299 299 299 299 298 298 297 298 297 297 297
321 321 321 323 321 319 318 317 316 311 310 306 302 300 300 298 298 298 297 297 297 296 296 296 297 296 296 295 295 295 297 298 298 299 298 298 298 298 297 297 296 296 297
320 319 322 322 320 320 319 317 313 310 308 305 302 302 300 298 298 298 298 297 297 297 295 295 295 295 295 295 295 295 295 297 297 297 297 296 296 296 296 296 296 296 296
318 319 321 322 321 319 318 314 310 310 306 306 304 302 301 299 298 298 298 297 297 297 295 295 296 295 295 295 295 294 294 295 295 295 295 295 295 295 295 295 296 296 296
318 319 320 321 319 318 315 311 310 307 306 305 303 301 302 300 298 297 297 297 297 297 296 296 294 294 295 295 295 295 294 293 292 293 294 294 294 294 294 294 295 295 295
318 320 320 319 318 315 311 311 309 306 305 304 302 303 302 301 298 298 296 296 297 296 296 296 295 294 295 295 294 294 293 292 292 291 292 293 293 293 293 294 294 294 294
319 320 320 317 314 312 311 311 307 306 305 305 304 300 296 294 298 298 298 296 296 297 297 296 295 294 295 295 294 294 293 292 291 290 290 291 292 292 293 293 293 293 293
319 320 319 315 313 312 311 308 306 306 309 305 302 298 297 294 293 296 296 297 297 296 297 296 295 294 293 294 294 293 292 290 289 289 289 289 290 291 291 291 291 291 292
319 319 316 314 312 312 310 307 307 307 306 308 305 301 296 295 296 296 296 296 296 295 295 293 291 292 293 293 293 292 290 290 289 287 286 286 285 286 287 289 289 290 290
319 318 315 313 312 311 312 309 309 306 307 304 298 295 293 293 293 292 295 295 295 294 293 293 292 291 291 291 290 289 288 287 285 285 284 284 283 283 284 287 287 288 289
320 318 316 314 313 313 312 307 306 306 302 296 293 292 293 293 293 291 294 294 294 293 293 292 291 290 288 288 287 287 285 285 284 283 283 283 283 283 283 286 286 287 288
319 317 316 313 313 312 305 306 306 301 295 294 295 295 294 294 293 292 291 293 293 293 291 291 290 289 288 287 286 285 284 283 283 283 283 282 282 282 283 284 285 286 286
318 316 314 311 309 303 306 305 297 296 297 298 296 294 294 293 292 292 291 292 292 291 291 290 289 288 286 285 285 284 283 282 282 282 282 282 282 282 282 283 283 284 284
318 316 312 310 307 306 304 297 297 300 299 295 293 294 294 293 293 292 291 290 291 291 291 290 288 286 285 285 284 283 282 282 282 282 281 281 282 281 281 281 281 282 283
317 316 310 307 306 305 299 300 302 298 294 294 294 294 293 293 293 293 292 291 290 290 289 288 287 286 285 284 283 282 282 282 282 281 281 281 281 281 281 281 282 282 283
317 313 306 306 302 299 302 302 299 296 295 294 294 294 294 293 293 293 292 291 291 290 288 286 287 286 284 284 283 282 281 281 281 282 281 281 281 281 281 282 282 282 282
311 307 304 303 302 302 301 299 298 296 295 294 294 294 293 293 293 293 292 291 291 290 287 286 286 285 284 283 282 281 281 281 281 281 281 281 281 281 281 281 282 282 282
304 302 301 301 302 300 300 299 297 294 294 294 293 294 293 293 293 293 292 292 291 289 287 287 286 285 284 284 282 281 281 281 281 281 282 282 281 282 282 282 283 284 284
301 301 301 300 298 299 299 295 294 294 294 294 293 292 292 293 292 292 292 291 291 288 287 287 286 285 284 283 281 280 281 281 281 281 281 281 281 281 282 283 283 284 284
300 300 300 298 299 297 294 293 293 293 293 293 292 292 292 292 292 292 291 291 290 288 288 286 285 284 284 282 280 280 281 281 281 281 280 281 281 281 282 282 283 284 284
300 300 297 294 293 293 292 292 292 292 291 291 290 290 291 291 292 291 291 290 290 288 288 285 284 284 283 282 280 280 280 280 280 280 280 280 281 281 281 281 283 284 284
294 293 292 292 291 291 290 290 290 290 290 289 290 290 290 291 291 291 291 290 289 289 287 285 284 284 283 281 280 280 280 281 280 280 280 280 281 281 281 281 283 282 283
292 290 290 289 289 289 289 289 289 289 289 289 289 289 290 290 291 291 290 289 290 289 287 286 284 283 282 281 280 280 280 280 280 280 280 279 280 280 280 281 282 282 283

GFSMA_850_thetae_054.txt.gz
Theta_e
313 315 317 317 317 317 317 318 318 318 316 317 310 309 305 302 301 304 307 299 300 306 309 308 305 305 305 305 304 304 304 304 302 303 303 303 303 302 301 301 297 294 294
312 314 316 318 318 318 318 318 318 317 316 314 310 308 302 300 300 302 307 304 300 303 307 306 308 308 307 306 304 302 301 302 301 302 301 302 302 300 300 300 300 295 296
315 318 320 320 320 319 319 319 318 317 316 312 310 306 302 301 300 300 304 306 306 301 301 303 303 304 304 304 302 300 301 300 300 300 300 301 300 299 299 299 299 298 299
320 320 321 321 321 321 321 319 317 315 314 309 307 304 303 302 300 299 304 305 306 305 304 304 304 303 303 301 298 299 299 299 299 300 300 300 299 299 299 298 298 297 297
322 322 322 322 322 322 320 318 317 314 311 308 306 305 305 303 302 300 300 302 301 300 300 300 297 296 296 295 295 295 297 298 299 299 299 299 299 298 298 298 298 297 297
323 322 321 321 322 321 319 317 316 316 310 307 305 306 306 304 302 302 301 300 300 300 299 298 299 299 297 295 295 295 295 297 298 298 298 297 297 297 297 297 297 297 297
322 322 321 321 322 320 318 317 316 312 309 307 308 309 308 305 303 302 301 300 300 300 299 298 298 298 297 296 295 294 295 296 297 297 296 296 296 296 296 296 296 296 297
322 322 320 321 322 321 319 316 314 310 309 307 309 308 310 308 304 303 302 301 300 300 299 298 298 297 297 296 296 295 294 294 294 294 295 295 295 295 295 295 295 296 296
323 320 319 320 321 320 318 316 313 310 310 308 308 308 309 309 305 304 303 302 301 300 299 298 298 298 297 296 296 295 294 293 294 293 292 293 294 294 294 294 294 294 295
323 319 319 320 320 319 317 315 311 310 309 307 307 307 307 303 304 305 303 301 301 300 299 299 299 298 297 296 295 294 293 293 293 292 290 290 292 292 293 293 293 294 294
322 319 319 320 319 319 316 312 311 310 308 308 308 306 303 303 303 302 301 300 299 299 299 299 298 297 296 295 294 294 293 292 292 290 290 289 287 289 290 290 291 291 292
323 320 319 319 318 317 315 312 311 311 308 309 307 307 303 302 301 299 299 299 299 298 298 297 296 295 295 294 293 292 292 290 289 288 287 285 284 284 286 288 289 289 290
324 322 319 319 316 315 314 312 312 309 307 307 306 302 297 298 298 298 298 298 297 297 297 296 296 295 294 293 292 291 288 287 286 285 285 284 283 283 283 284 286 288 289
323 320 319 318 315 315 312 311 308 306 306 305 300 293 297 298 298 297 296 296 297 297 296 295 294 294 293 292 291 289 288 287 285 284 284 283 283 283 283 283 284 286 287
324 321 319 318 317 313 311 311 307 305 303 294 297 300 299 298 297 296 296 296 296 296 295 294 293 293 292 291 290 289 287 286 285 283 283 283 283 283 283 283 284 285 286
323 322 320 316 315 311 309 308 305 305 301 300 301 299 298 297 297 296 296 295 295 295 294 294 293 292 292 290 289 287 286 286 284 283 283 283 283 283 282 282 283 284 284
322 321 318 317 314 309 307 304 304 302 302 301 300 298 297 297 296 296 295 295 294 294 293 293 293 292 290 289 289 288 287 286 285 283 283 283 282 282 282 282 281 281 283
321 320 320 316 311 308 306 305 301 301 300 300 298 298 297 296 296 296 295 295 294 294 293 292 292 291 290 289 288 287 286 285 284 284 283 282 282 283 282 282 282 282 282
320 318 318 312 308 306 304 301 302 300 299 299 298 297 297 296 296 296 295 294 294 293 292 292 291 291 290 289 288 287 286 285 284 284 283 282 282 283 282 282 282 282 282
317 316 312 307 305 304 302 301 301 299 299 299 297 297 296 296 296 295 294 294 294 293 292 292 291 290 289 289 288 287 286 284 284 284 284 284 283 283 283 283 283 282 282
312 307 306 303 301 303 302 301 299 298 298 297 296 296 296 296 295 294 293 293 293 293 292 291 291 290 289 288 288 287 285 284 284 284 284 284 284 284 284 284 284 284 284
305 302 302 301 302 302 301 300 298 296 296 296 296 296 295 295 294 293 292 293 293 292 292 291 290 289 289 288 287 286 285 284 284 284 284 284 283 284 284 284 284 284 283
301 301 302 301 301 300 298 296 294 293 293 294 295 295 294 294 293 293 293 292 292 292 291 291 290 289 289 288 287 286 284 284 284 284 283 283 283 284 284 284 284 283 283
301 301 300 298 297 297 294 292 292 291 292 293 293 293 293 293 293 293 293 292 292 291 291 289 289 288 288 287 286 284 283 283 283 284 283 283 283 283 284 284 283 283 282
298 297 295 294 294 293 291 290 289 289 290 291 292 292 292 292 292 292 292 292 291 291 291 289 289 288 286 285 284 283 283 283 284 284 283 283 283 283 283 283 284 284 283
293 292 291 291 290 290 291 290 290 290 290 291 291 291 291 291 291 290 290 290 291 290 290 289 287 288 286 285 284 283 282 283 283 283 283 282 282 282 283 283 283 283 284

GFSMA_850_thetae_057.txt.gz
Theta_e
319 318 320 320 319 319 318 317 318 318 316 315 310 310 306 305 306 308 310 301 299 304 309 311 308 307 306 305 304 303 303 303 302 303 303 303 303 302 300 300 299 295 293
320 321 321 321 320 319 318 318 317 316 314 313 310 308 306 306 305 306 309 309 299 305 307 307 308 308 307 306 304 303 302 301 301 302 302 302 302 300 300 300 300 299 294
321 321 320 321 320 319 318 317 318 316 314 312 310 309 307 306 305 306 307 309 309 302 300 300 302 303 304 304 304 302 301 301 301 301 301 301 301 300 300 300 299 299 299
316 317 322 320 319 319 319 318 318 316 315 313 310 308 307 306 306 305 308 308 308 309 307 305 304 304 303 302 301 299 299 300 300 300 301 301 301 301 300 300 299 299 299
317 319 321 321 321 320 320 320 317 317 315 313 310 309 309 308 306 304 305 307 306 303 303 302 300 299 297 296 295 295 296 298 299 300 300 300 300 299 299 298 298 298 298
324 322 323 324 322 321 321 320 318 317 315 313 308 308 310 309 307 306 305 304 303 303 303 302 301 301 299 298 297 296 295 297 298 299 299 299 298 298 298 297 297 297 297
325 325 324 324 322 321 318 320 319 316 314 312 311 312 312 311 309 307 305 305 304 303 303 302 301 300 300 299 298 297 296 295 295 297 297 297 297 297 297 297 297 297 297
324 324 324 324 321 320 320 320 318 316 314 312 312 312 313 313 309 307 306 305 304 303 303 302 300 300 300 299 298 297 297 296 295 293 294 296 296 296 296 296 296 296 297
322 322 322 324 321 320 319 320 317 316 314 312 311 312 313 312 310 309 307 306 305 304 303 302 300 300 300 300 299 298 297 296 294 293 293 293 294 294 294 294 295 295 295
318 320 322 322 321 320 319 320 318 316 314 313 311 310 311 309 308 309 308 306 305 303 303 302 301 301 301 300 298 297 296 295 294 292 292 292 291 291 292 292 292 293 293
321 323 323 322 320 319 319 318 316 315 313 312 310 309 310 307 307 307 306 305 303 302 302 301 301 301 299 298 297 296 295 295 293 292 290 289 288 287 288 289 290 290 291
323 323 322 320 319 319 318 317 315 313 313 311 309 308 308 306 306 305 304 303 302 302 301 300 300 299 298 297 296 295 294 293 291 288 287 286 285 285 284 286 288 289 290
325 322 322 322 319 319 316 314 314 313 311 310 308 308 306 303 301 302 301 301 301 300 300 300 299 298 297 296 295 294 293 292 291 288 287 285 284 284 283 283 285 287 288
324 323 323 323 318 315 314 314 313 310 310 307 307 307 303 301 302 301 301 300 299 299 299 299 298 297 296 295 295 294 292 291 290 288 287 285 284 283 283 283 283 285 287
324 322 323 322 320 317 313 315 314 309 307 306 306 304 304 302 301 301 299 299 298 298 298 298 297 296 295 295 294 293 292 290 289 288 286 285 284 283 283 283 283 283 285
322 322 322 322 319 315 315 315 309 307 306 306 305 304 301 301 301 299 299 298 298 297 297 297 296 295 295 294 293 292 291 290 289 288 287 285 284 283 283 283 283 283 283
322 322 322 320 317 316 314 311 307 306 305 304 303 302 301 300 300 299 298 298 297 297 296 296 295 295 294 294 293 292 291 290 289 288 286 285 284 283 283 283 283 282 282
323 322 321 319 316 315 312 308 307 305 303 303 301 301 300 300 299 298 298 297 297 296 296 295 295 294 294 293 292 292 291 289 289 288 286 285 284 284 283 283 283 282 282
321 320 319 318 314 309 307 304 303 304 302 301 301 300 300 299 299 298 298 297 297 296 295 295 295 294 293 292 292 291 291 289 289 287 286 285 285 284 284 284 284 284 283
318 317 317 314 310 307 305 303 303 302 301 300 300 300 299 299 298 298 297 297 296 296 295 295 294 294 293 292 291 291 290 289 288 287 286 286 285 285 285 285 285 285 284
316 314 312 309 305 303 303 303 302 301 300 299 299 299 299 298 297 297 296 296 295 295 294 294 294 294 293 292 291 290 290 289 288 287 286 286 286 286 285 285 285 285 285
311 309 306 304 304 303 303 302 300 300 298 298 297 297 297 297 296 296 296 295 295 294 293 293 293 293 292 292 291 290 289 288 288 286 286 286 286 285 285 285 285 285 284
305 304 303 303 302 301 299 298 296 295 294 294 295 295 295 295 295 294 294 294 294 294 293 292 292 292 292 292 291 290 289 288 287 286 286 285 285 285 285 285 285 284 284
302 302 301 299 299 299 297 296 293 292 291 293 293 293 293 293 293 293 293 293 293 293 293 293 292 291 291 291 290 289 288 287 285 285 285 285 285 285 285 284 284 284 284
300 300 298 297 296 296 294 293 291 290 290 291 292 292 292 292 292 292 291 291 291 291 291 291 291 291 291 290 289 288 287 286 285 285 285 285 285 284 284 284 284 284 284
296 295 294 294 294 293 294 293 291 289 286 285 286 286 286 286 286 288 289 290 290 290 290 290 291 291 290 289 289 288 286 285 285 285 285 285 285 284 283 284 284 284 284

GFSMA_850_thetae_060.txt.gz
Theta_e
316 315 314 315 317 318 318 318 318 318 316 314 310 310 309 307 307 308 310 308 300 301 305 307 305 303 305 303 302 303 302 302 301 302 303 303 303 301 300 301 300 298 296
317 317 320 320 319 319 318 318 318 317 314 316 311 310 309 307 306 309 309 309 308 300 306 306 308 308 308 306 304 303 302 302 300 300 302 302 302 301 301 301 301 300 300
316 321 322 321 321 320 319 318 318 316 315 312 312 309 308 308 309 308 307 308 309 309 303 301 300 301 301 303 305 304 302 301 299 300 301 302 302 301 301 301 301 300 300
321 319 320 320 321 320 319 318 318 317 315 313 311 309 308 309 310 310 308 308 310 310 308 307 305 303 302 301 302 300 299 296 296 298 301 301 301 301 300 300 299 299 299
318 317 322 322 321 320 319 319 319 317 317 314 312 310 309 308 309 307 307 307 308 305 305 305 302 301 300 300 299 298 297 295 295 299 300 301 300 300 299 299 298 298 298
316 315 318 321 322 321 321 320 319 318 317 316 313 309 309 310 310 310 308 306 305 304 303 303 302 301 301 300 299 298 298 298 297 299 299 299 299 298 298 298 297 297 297
319 322 323 322 323 322 322 321 320 319 317 315 313 310 311 312 312 311 308 306 305 304 303 303 303 301 301 300 299 299 298 298 297 296 295 297 297 297 297 297 297 297 297
321 322 322 324 324 323 323 319 320 320 318 316 315 312 313 313 312 311 309 307 305 305 304 303 303 301 300 300 300 299 299 298 297 297 294 292 295 295 295 295 295 295 296
320 321 322 321 323 324 321 319 319 319 317 315 313 313 313 313 312 311 309 308 306 305 305 304 303 301 300 301 300 300 299 298 297 296 295 292 291 291 293 293 293 293 293
321 322 323 322 320 320 321 320 319 319 316 315 313 312 311 312 312 310 309 307 306 306 305 302 302 302 301 301 301 300 299 298 297 296 295 291 289 288 291 291 291 291 292
322 319 321 319 320 320 322 321 320 319 314 314 313 313 312 310 310 307 307 307 306 305 303 302 302 301 301 301 300 298 297 297 296 295 293 291 288 287 288 289 289 290 291
323 319 318 319 322 323 322 321 320 318 314 314 314 312 312 309 309 306 306 305 304 303 302 302 301 301 300 300 298 297 297 296 295 293 292 291 289 287 285 286 288 289 289
325 323 322 322 322 322 321 320 319 315 314 314 313 312 307 307 307 306 305 302 302 301 301 301 300 300 299 299 297 297 296 295 294 293 292 290 289 288 286 284 284 285 288
325 325 323 322 322 322 320 319 318 314 314 313 312 308 307 307 306 306 302 301 301 300 299 299 299 299 298 297 297 296 295 294 293 293 292 290 289 288 286 284 283 283 284
327 326 324 324 322 322 320 317 314 313 313 314 312 307 307 306 305 303 301 301 300 299 299 299 298 298 297 296 296 295 294 294 293 292 291 289 289 288 286 285 284 283 283
327 325 324 323 322 321 318 314 315 314 314 311 308 306 305 304 302 302 301 300 299 299 298 298 297 297 296 296 295 295 294 293 293 292 290 289 289 287 286 285 283 283 283
325 325 321 321 320 319 316 315 314 313 310 308 305 305 304 302 301 301 301 300 299 298 298 297 297 296 296 295 295 294 294 293 292 291 290 289 288 287 286 284 284 284 284
322 322 320 320 319 318 315 314 312 309 306 305 305 303 302 301 301 301 300 299 299 299 298 297 296 296 296 295 295 294 293 292 292 291 290 289 288 286 285 285 285 285 285
321 320 319 318 318 315 312 311 308 306 304 304 302 301 301 301 301 300 299 299 299 298 298 297 297 296 296 296 295 294 293 292 291 291 290 289 287 286 286 286 286 285 285
319 318 318 316 313 312 309 307 305 304 304 303 301 300 299 300 300 298 298 298 298 298 298 297 297 296 296 295 295 294 293 292 291 290 289 289 288 286 286 286 285 285 285
317 316 314 313 310 307 305 304 303 303 302 301 299 298 298 298 298 298 297 297 297 296 296 296 295 295 294 294 294 293 292 292 291 290 289 288 287 286 286 286 285 285 285
312 312 310 308 307 304 303 302 301 300 299 298 297 297 296 296 295 296 296 296 295 295 295 295 295 294 294 294 293 292 292 292 291 290 288 288 286 286 286 285 285 285 285
307 306 305 304 303 302 300 298 296 295 294 293 292 292 292 293 294 294 293 294 294 294 294 294 294 294 293 293 292 292 292 291 290 289 288 287 286 285 285 285 285 285 285
303 303 302 300 299 299 297 296 295 294 293 290 290 291 292 292 292 292 292 292 292 292 292 292 292 292 292 292 291 291 291 290 289 288 288 287 285 285 286 285 285 284 284
301 300 299 298 297 296 295 295 293 291 291 289 287 286 286 285 284 284 284 284 284 285 286 288 289 290 290 290 290 291 290 290 289 288 287 286 285 285 285 284 284 283 284
299 296 295 295 294 293 294 292 290 288 287 286 285 285 284 284 283 282 281 282 283 283 283 284 285 286 288 290 290 291 290 289 288 288 288 285 285 285 285 284 284 284 283

GFSMA_850_thetae_063.txt.gz
Theta_e
315 315 314 314 317 317 318 318 318 318 316 312 311 309 308 307 308 309 310 308 305 304 308 307 302 301 301 302 301 301 300 299 298 297 297 297 300 302 302 302 302 301 298
317 314 314 314 316 318 318 318 318 318 317 316 310 310 310 308 308 310 309 308 309 308 303 303 302 301 302 301 301 302 302 301 299 297 296 297 301 302 302 302 301 301 301
318 314 313 318 319 320 319 318 318 317 317 317 313 310 310 309 307 308 308 309 308 309 309 307 305 304 301 302 303 303 303 301 298 297 298 301 302 302 301 301 300 300 300
314 314 319 321 321 320 320 319 318 318 317 315 313 313 310 309 309 308 310 309 308 309 309 308 307 305 303 301 299 299 299 296 295 295 298 301 301 301 300 300 299 299 299
314 320 320 321 321 321 321 319 319 318 317 315 314 313 311 309 310 310 310 308 307 308 307 306 306 302 302 301 300 300 299 298 297 296 297 295 300 300 299 299 298 298 298
315 318 320 319 321 321 321 320 320 319 317 316 316 313 311 308 309 312 312 310 307 307 306 305 303 303 303 301 300 300 299 299 298 298 297 295 293 296 298 298 297 298 298
320 317 314 317 319 320 321 321 321 320 318 317 316 312 309 308 312 312 312 311 309 307 305 304 304 303 303 301 300 300 300 299 299 298 297 296 294 293 296 296 296 296 296
321 318 316 318 320 322 322 322 322 321 320 318 316 313 311 311 312 312 311 311 309 306 305 305 304 303 303 301 300 300 300 300 299 298 298 296 295 291 290 294 294 294 294
319 319 318 319 320 322 323 322 322 321 319 319 315 314 313 313 313 313 311 310 309 307 307 305 305 303 303 302 300 301 300 300 299 298 297 295 294 292 289 292 293 293 293
319 320 320 320 321 321 322 321 321 322 320 320 317 313 312 312 311 311 311 310 308 307 306 306 305 302 302 302 301 301 301 300 300 297 296 295 293 291 290 289 291 291 292
320 321 321 321 321 322 323 321 320 321 321 319 318 314 313 312 312 310 310 309 307 307 306 305 304 303 302 302 301 301 301 300 298 296 296 294 293 292 290 289 288 288 290
322 323 323 323 322 322 322 320 321 322 321 320 318 314 313 313 311 309 308 308 308 309 303 303 302 301 302 302 301 300 300 298 297 296 295 294 293 292 290 289 289 288 289
322 322 323 323 321 320 319 322 323 322 320 319 315 313 314 312 311 308 308 307 305 307 306 305 302 301 300 300 299 299 298 298 297 296 295 294 293 292 290 289 288 287 286
323 323 324 324 322 321 322 322 321 320 320 316 314 314 314 313 310 307 308 306 304 302 302 302 301 300 300 299 298 297 298 297 296 295 294 294 292 291 290 289 288 287 285
324 325 324 324 323 322 322 322 320 319 317 315 314 314 313 311 307 307 306 305 302 301 301 301 300 299 298 298 297 296 296 295 295 294 294 293 292 292 290 288 288 286 284
325 325 325 325 323 322 321 320 319 316 315 314 313 312 310 308 307 306 305 303 302 301 300 300 299 298 298 297 296 296 295 295 294 294 294 293 292 291 290 288 286 285 285
325 325 325 324 322 321 319 319 318 315 314 314 312 310 306 305 304 303 302 301 302 301 300 299 299 298 298 297 296 296 295 295 295 294 293 293 292 291 290 288 286 285 285
324 325 323 321 320 320 319 318 315 314 313 310 307 306 305 303 302 301 301 301 300 299 299 298 298 298 297 296 297 296 296 295 295 293 292 292 291 291 289 287 286 286 286
324 321 320 320 319 318 317 316 311 311 308 307 305 304 304 302 301 300 300 299 299 298 298 299 298 298 298 297 297 296 296 295 294 293 292 291 291 289 289 287 287 286 286
321 320 320 319 319 316 314 311 309 307 305 305 304 302 301 299 298 298 298 298 298 297 297 297 297 297 297 296 296 295 295 294 293 293 292 291 291 289 288 288 286 286 286
320 319 318 317 314 311 309 308 307 305 304 303 301 299 298 298 297 297 296 296 295 295 295 295 295 295 295 295 294 294 294 294 293 292 292 292 290 289 289 287 286 286 286
317 316 315 312 311 310 307 305 304 303 302 300 298 296 295 294 293 293 293 294 294 294 294 293 293 292 292 292 293 293 293 293 292 292 292 291 289 288 288 287 286 285 285
312 312 309 307 306 305 303 302 301 298 295 293 292 291 291 290 291 291 291 291 291 291 292 292 291 290 290 290 291 291 291 291 291 291 291 290 288 288 288 286 285 285 285
308 305 304 303 301 300 299 298 296 294 293 292 291 290 289 287 286 285 285 284 284 284 283 282 282 282 283 285 287 290 290 290 290 291 290 289 288 288 287 285 285 285 285
303 302 300 299 299 298 297 296 294 293 292 291 287 286 285 285 284 284 283 283 283 283 283 284 284 283 283 283 282 284 288 290 290 291 290 289 288 288 286 285 285 285 284
300 299 298 297 296 296 295 293 292 292 288 286 286 285 285 284 283 282 282 282 282 283 285 285 285 285 285 283 286 285 286 289 290 289 290 288 288 287 285 285 285 284 284

GFSMA_850_thetae_066.txt.gz
Theta_e
316 315 316 317 318 318 318 318 318 316 313 310 308 308 308 308 309 311 311 310 309 306 304 305 307 304 302 301 300 300 300 299 298 297 296 297 299 300 301 302 301 301 301
314 315 314 315 317 317 318 319 318 319 316 313 310 309 309 310 309 311 311 310 309 308 307 307 305 304 304 302 302 301 301 301 299 297 296 296 299 302 301 301 301 300 300
315 314 314 314 316 317 318 318 318 319 318 317 312 310 310 310 309 310 310 310 309 308 309 307 307 306 305 303 302 301 299 300 297 296 296 297 300 302 301 301 300 300 300
317 314 314 317 318 318 319 319 318 319 318 317 316 313 311 310 310 309 310 310 308 308 308 309 307 306 305 302 302 301 299 298 299 298 296 298 299 301 300 300 299 299 299
316 315 318 318 318 318 320 320 319 319 318 317 316 316 316 316 310 310 311 310 309 308 308 307 307 306 304 303 303 302 301 300 299 298 298 298 296 295 295 298 298 298 299
315 316 316 315 315 320 320 321 320 319 319 318 316 316 316 314 311 309 312 312 311 309 309 307 305 305 304 304 303 302 301 300 300 299 298 298 296 294 292 292 297 297 297
315 314 313 314 317 318 318 320 320 320 320 318 317 314 314 313 311 308 312 312 311 310 309 307 306 305 305 303 303 302 301 300 300 300 299 298 297 296 293 290 291 295 295
319 315 314 315 313 315 320 321 321 321 320 319 317 315 314 312 310 309 310 312 312 310 309 307 305 304 305 303 303 302 301 300 300 301 299 299 297 295 293 291 290 293 294
317 318 318 318 315 318 320 320 322 322 322 321 318 316 313 312 312 311 310 311 312 310 309 307 306 305 305 304 302 302 301 301 301 300 300 299 295 294 292 291 290 289 289
315 316 317 317 317 319 319 319 321 322 322 322 318 317 317 314 313 312 312 312 312 310 309 307 306 306 306 304 303 302 301 301 301 300 300 298 296 294 293 292 291 290 289
317 318 318 318 317 319 320 320 321 322 322 321 320 320 318 316 313 312 312 311 310 310 309 307 307 306 305 304 303 302 302 301 301 300 300 297 296 295 294 293 292 291 289
315 316 317 319 319 320 320 320 322 322 321 320 320 319 318 317 314 313 312 311 310 308 308 306 305 306 304 303 302 302 302 301 301 300 299 297 296 295 294 293 292 291 289
319 320 320 321 322 323 323 322 323 322 321 320 320 319 316 315 313 312 311 312 309 308 309 309 307 307 304 300 300 301 301 300 299 299 298 297 296 295 294 293 293 291 289
321 321 321 322 323 323 323 323 322 321 320 322 320 318 316 314 313 313 311 310 308 308 307 307 306 302 301 301 299 299 298 299 298 298 297 296 295 294 294 293 293 291 289
321 321 322 322 323 323 322 321 321 321 321 320 317 315 314 314 314 312 310 308 307 305 304 304 302 301 300 299 298 298 298 296 296 296 295 295 294 294 293 293 292 291 289
322 322 322 323 324 323 323 321 320 319 320 319 315 314 314 313 312 309 307 306 305 303 301 301 301 300 300 299 298 298 297 296 295 295 295 295 294 294 292 292 291 290 288
323 319 320 320 323 323 323 320 320 318 318 316 314 312 312 311 307 306 305 303 302 302 301 301 300 299 299 298 298 298 298 297 296 296 295 294 294 293 292 291 291 289 288
321 324 321 320 325 324 322 320 318 317 316 314 313 311 309 307 306 305 303 302 302 301 300 299 298 298 298 298 298 298 297 297 297 297 296 296 294 293 292 291 291 289 288
319 320 323 324 324 321 320 319 318 316 314 312 310 308 306 305 304 303 300 300 299 299 298 297 297 297 297 297 297 297 296 296 296 296 295 295 294 293 292 291 289 290 287
323 324 323 322 321 319 319 318 315 314 311 309 307 304 303 302 300 298 298 298 298 298 297 296 296 295 295 295 295 294 294 294 294 294 294 293 293 293 291 291 290 287 288
322 321 320 319 319 318 317 313 313 309 308 305 304 302 301 299 298 297 297 296 296 295 295 294 294 294 293 293 292 291 291 292 292 292 293 292 293 292 291 290 289 288 288
321 319 319 318 317 315 312 310 308 306 304 303 303 301 299 297 296 295 294 293 292 292 292 292 291 289 287 284 284 284 287 288 290 291 291 290 290 291 291 289 288 287 287
318 316 315 314 312 310 309 306 304 303 303 302 299 295 292 291 290 290 289 289 287 286 284 283 283 283 283 283 283 282 282 284 286 288 290 290 289 290 291 289 287 287 286
314 313 311 310 309 307 304 303 302 300 298 294 292 291 290 290 288 286 286 285 285 284 284 284 283 284 285 285 284 284 283 283 283 282 284 289 289 290 289 288 287 287 285
310 309 307 306 304 303 302 299 297 295 293 292 291 290 287 286 285 285 285 284 284 283 283 282 282 282 284 286 286 285 284 286 286 286 286 288 289 290 289 288 287 285 285
306 304 303 301 300 300 298 296 295 293 292 290 287 286 285 284 284 283 283 283 283 282 282 281 281 281 282 285 287 286 285 285 285 285 287 289 289 289 287 288 287 285 285

GFSMA_850_thetae_069.txt.gz
Theta_e
317 318 318 318 318 317 318 316 313 311 311 310 308 308 309 309 310 311 311 310 309 309 308 308 306 306 304 302 302 302 301 300 299 297 296 296 298 298 298 298 301 300 300
317 317 318 318 318 318 318 318 318 317 311 310 310 310 309 309 309 311 311 311 309 309 309 308 307 306 306 305 304 302 302 300 299 298 297 296 297 300 298 297 297 299 300
316 317 317 317 317 318 318 319 319 318 314 313 310 310 310 310 310 310 310 311 310 309 309 308 308 307 306 305 304 302 303 301 300 300 298 297 298 297 296 296 295 297 299
315 315 315 316 315 316 318 318 319 319 318 318 316 313 310 310 310 310 311 311 311 310 309 309 308 307 306 305 303 303 302 301 300 300 299 299 298 297 295 294 293 295 299
314 314 314 314 314 316 318 319 319 319 319 318 316 315 315 316 316 310 310 311 312 311 309 309 308 307 306 304 304 303 303 301 301 300 300 299 298 296 295 294 292 291 295
316 315 315 317 317 318 318 319 320 319 319 318 317 315 314 314 314 313 311 311 312 312 309 309 308 306 305 305 304 303 303 302 301 300 300 299 298 297 296 294 292 291 290
316 316 317 318 318 317 315 317 320 320 319 318 317 315 314 314 313 313 310 309 311 312 311 309 309 307 306 306 305 303 302 302 301 301 301 300 299 298 295 293 292 291 290
315 315 318 319 317 315 314 317 320 321 320 319 318 317 316 314 313 312 310 309 310 311 311 310 309 308 306 306 305 303 302 302 302 302 301 300 299 299 296 294 293 292 291
315 315 318 317 316 315 316 317 320 321 321 320 319 317 315 315 315 315 312 310 309 310 310 310 310 308 307 305 305 305 304 302 302 301 301 300 300 299 297 296 294 293 292
316 318 319 319 318 318 318 316 318 320 321 322 321 320 318 316 316 314 315 314 310 309 312 310 310 308 306 306 305 305 304 303 302 302 301 301 300 299 297 296 295 294 293
316 315 316 317 316 317 320 319 319 319 320 321 322 322 321 318 317 314 313 313 312 311 313 311 310 309 307 306 306 305 304 304 303 302 301 301 300 300 298 296 295 294 293
315 315 313 313 315 318 319 320 321 321 321 321 322 322 321 319 319 316 314 315 312 312 311 311 309 308 307 307 306 305 304 302 302 302 301 301 300 299 298 296 295 294 294
315 314 311 312 314 316 318 320 321 322 321 322 321 322 320 320 317 316 315 314 313 312 311 311 310 309 307 305 305 303 301 301 300 301 301 300 299 299 297 296 295 294 294
313 312 312 313 317 319 320 322 322 322 322 322 322 322 320 319 317 315 314 313 312 310 310 311 309 308 307 303 302 301 299 299 298 298 299 299 298 297 296 296 295 294 293
317 318 319 319 320 320 321 320 322 322 322 322 320 320 318 316 315 314 314 313 312 308 307 307 306 305 302 301 300 300 299 298 297 297 296 296 295 296 296 296 295 294 293
322 322 321 321 321 321 321 322 323 321 320 320 320 318 318 315 313 313 313 311 308 307 305 305 304 302 301 300 299 299 298 297 298 298 297 297 296 296 295 295 294 293 292
322 323 323 320 322 322 323 323 323 321 320 317 317 318 315 313 312 311 310 308 306 305 302 302 301 301 299 298 297 296 296 297 297 297 297 297 297 297 296 295 294 294 292
323 318 316 316 321 322 321 320 323 322 320 318 317 315 313 312 310 308 307 306 305 303 301 301 300 299 298 297 296 296 295 295 296 296 296 296 295 295 296 295 294 294 294
323 318 316 319 323 322 321 322 322 321 318 317 316 313 313 309 308 306 305 304 303 302 301 299 299 298 297 296 295 294 294 294 294 294 294 294 294 294 294 294 293 293 293
325 320 319 319 319 320 322 322 321 320 318 316 313 312 309 306 306 304 304 302 300 298 297 297 296 296 294 293 292 291 289 287 286 286 286 289 291 292 291 292 292 293 292
323 322 322 321 321 323 322 321 319 318 316 312 310 308 306 304 304 303 301 298 296 295 294 293 292 291 289 287 285 284 283 284 284 284 284 284 285 288 290 290 291 291 292
322 321 322 323 321 321 320 319 318 315 313 309 308 305 304 303 302 300 297 295 293 291 290 289 287 285 285 284 284 284 284 284 285 284 283 282 282 285 288 290 290 290 291
324 323 321 320 320 319 318 316 313 312 309 306 304 303 303 301 298 295 292 290 290 288 286 285 285 284 284 283 283 283 285 285 285 285 284 285 284 282 283 288 289 290 289
324 322 321 319 318 316 314 312 309 307 305 303 302 302 300 295 292 290 289 287 285 285 285 284 283 283 282 282 282 283 285 286 286 285 284 284 285 285 286 287 288 289 287
321 319 317 315 314 312 309 307 305 304 302 301 299 294 292 291 289 287 285 285 285 285 284 284 283 283 282 281 282 283 284 284 285 286 285 285 284 285 287 288 289 288 286
317 315 313 311 310 308 304 302 302 301 298 295 293 292 290 286 285 284 284 284 284 283 283 283 282 282 281 281 281 283 285 285 285 285 285 285 285 286 287 288 288 286 287

GFSMA_850_thetae_072.txt.gz
Theta_e
309 308 308 308 308 310 310 311 310 310 309 309 309 309 310 310 311 311 311 310 309 309 309 309 308 307 306 304 304 303 302 300 299 299 298 298 298 298 297 296 296 295 294
314 310 309 309 310 310 310 311 311 310 309 309 309 310 310 310 311 311 311 311 310 309 310 309 308 307 306 305 304 303 302 301 300 300 299 298 298 298 297 295 295 294 293
317 317 317 315 317 317 317 318 318 314 310 310 310 310 310 310 310 311 311 311 311 309 309 309 308 308 307 306 304 303 303 302 301 301 300 299 298 298 297 295 294 293 292
315 317 316 317 318 318 318 318 319 318 315 314 311 310 310 310 310 310 310 311 311 310 309 310 309 308 307 306 304 304 303 303 302 301 301 300 298 297 296 295 294 293 292
316 317 317 317 317 317 318 318 319 319 318 318 316 313 310 311 312 310 309 310 311 311 310 309 310 308 307 306 304 304 303 303 302 301 301 300 298 298 297 295 294 293 292
315 316 315 316 316 317 318 319 318 318 319 318 317 316 314 313 313 312 309 309 310 311 311 310 310 309 307 306 305 305 303 303 302 302 301 301 300 300 298 297 295 294 293
315 314 314 314 317 317 318 319 319 320 319 319 318 317 316 315 315 315 313 311 309 310 312 312 310 310 309 307 306 305 303 303 303 303 302 301 301 300 299 298 297 296 295
315 315 315 315 317 318 318 319 319 319 320 320 319 318 317 316 317 317 315 314 313 310 310 311 311 310 309 308 306 306 305 304 303 304 304 302 301 301 300 299 298 297 295
315 315 316 315 317 318 318 318 318 319 319 320 320 318 317 317 318 318 317 316 314 312 310 310 309 310 308 308 306 305 305 305 304 303 303 304 303 301 300 300 299 297 296
317 316 316 315 314 317 319 319 317 315 317 320 321 320 319 318 317 317 318 317 315 312 309 308 309 311 311 309 306 306 304 305 304 303 303 302 304 302 301 300 299 298 296
318 317 315 314 314 316 320 320 320 319 319 319 320 321 321 320 319 317 315 316 316 315 313 308 309 312 310 308 308 305 305 306 304 304 302 303 302 303 302 301 300 298 296
315 314 314 315 315 315 315 317 318 318 320 320 320 321 321 321 320 320 319 316 316 314 312 310 312 311 309 308 308 307 306 305 304 304 301 301 302 301 301 301 300 300 299
315 314 314 315 315 314 313 314 316 318 320 321 321 321 321 321 320 320 318 317 315 314 313 313 312 310 308 309 307 306 305 303 301 300 301 300 301 301 300 300 300 299 299
316 314 314 315 315 314 312 313 314 317 320 321 321 321 321 321 320 319 317 315 314 312 312 312 311 310 309 307 306 303 301 300 299 299 298 298 298 298 299 298 297 296 297
316 315 314 314 314 313 313 317 319 320 319 318 320 322 322 321 320 318 315 314 313 312 312 311 309 308 307 305 303 301 299 298 298 298 297 297 297 297 297 297 296 296 295
315 314 314 313 315 319 321 321 321 321 318 319 322 321 319 319 318 316 314 313 313 312 308 308 308 307 306 304 301 299 298 297 296 296 296 297 297 297 297 297 297 296 296
315 315 316 320 322 321 322 321 320 321 322 322 321 319 317 315 317 315 312 312 311 310 308 306 306 305 304 302 300 297 297 295 295 294 293 293 294 295 295 295 295 295 296
316 319 320 321 321 320 320 318 319 322 321 322 321 319 317 316 316 314 312 311 309 307 307 306 304 302 301 299 297 295 294 292 291 290 289 289 289 289 291 293 294 294 294
317 319 320 318 322 317 318 319 319 321 320 321 321 320 318 316 315 314 311 310 307 306 304 303 302 300 298 295 293 291 289 288 288 287 287 287 286 286 285 285 286 291 293
316 320 321 322 322 316 317 320 319 320 320 320 320 318 316 314 313 311 309 307 304 304 301 299 297 295 293 291 289 287 288 288 288 287 286 285 286 285 285 284 285 285 290
321 321 320 320 323 317 321 321 318 320 321 319 317 315 313 312 311 307 306 304 302 301 298 295 293 290 289 287 287 287 286 286 286 286 285 285 285 285 285 285 283 287 289
323 323 322 321 323 323 321 321 321 320 319 318 316 313 311 310 307 304 303 301 299 296 293 291 289 287 287 286 285 285 285 284 285 285 284 285 286 286 285 284 284 283 289
324 324 324 323 322 321 321 321 320 317 316 315 311 311 308 306 303 301 301 298 294 291 289 287 286 286 286 285 284 284 284 283 283 283 283 285 286 285 285 284 286 285 286
321 322 321 320 320 320 320 319 319 316 313 311 309 306 304 303 301 300 296 291 290 287 285 286 285 285 284 283 283 282 282 282 282 283 284 285 285 286 285 284 286 287 288
323 321 320 320 320 319 318 317 314 312 309 306 304 303 302 300 297 293 291 288 286 285 285 285 284 284 283 282 281 281 281 282 282 283 284 284 285 285 285 285 286 288 289
320 319 318 317 315 314 311 310 309 307 305 304 302 301 298 294 291 289 286 285 285 284 284 284 283 282 282 281 281 280 280 281 282 283 283 284 284 284 285 285 285 288 288

GFSMA_850_thetae_075.txt.gz
Theta_e
312 312 311 316 316 315 315 314 313 312 310 309 309 309 311 311 311 311 310 309 309 310 310 308 307 306 305 305 304 303 302 301 300 300 300 299 299 298 297 296 296 295 295
311 308 311 313 315 314 314 312 311 310 309 310 309 309 310 311 311 312 311 310 309 310 311 310 308 307 306 305 304 304 303 303 302 301 300 300 299 298 297 296 295 294 293
310 307 307 310 311 311 310 310 310 309 310 310 309 309 309 310 311 311 311 311 310 309 310 310 309 308 308 307 305 305 304 303 302 301 301 301 299 298 297 296 295 294 293
308 308 309 312 312 310 311 312 309 310 310 310 309 309 309 309 309 310 310 310 310 310 309 310 310 309 308 307 306 306 305 303 303 302 301 301 299 298 298 297 296 294 293
308 315 315 315 316 317 317 316 315 316 313 312 310 310 309 309 309 309 309 309 310 311 310 309 309 309 308 307 306 305 305 304 304 303 302 301 301 300 300 299 298 296 295
317 317 316 317 318 318 317 316 318 318 318 318 316 315 313 312 312 313 311 309 309 310 310 310 309 309 309 307 306 305 305 305 304 304 303 303 302 301 301 301 300 299 297
316 318 317 317 317 317 317 317 318 318 318 318 317 317 316 315 315 314 314 313 310 309 309 310 310 309 309 308 306 305 305 305 306 305 304 304 303 302 301 301 300 299 299
316 317 316 314 314 315 318 318 319 319 319 318 318 318 317 318 318 317 316 315 313 311 309 309 310 310 309 308 307 306 305 305 305 307 307 306 305 304 303 302 301 300 299
315 315 314 314 314 316 318 319 319 319 319 319 320 319 318 318 319 319 319 318 317 314 311 310 308 308 308 310 309 308 306 305 304 304 306 307 307 306 305 304 302 301 300
315 314 314 314 316 315 317 316 316 317 319 319 319 320 320 320 319 319 319 319 319 319 315 312 313 309 307 308 311 309 306 307 304 304 305 303 304 306 305 305 303 302 300
316 315 315 315 316 315 316 315 317 319 319 320 320 318 320 320 320 319 318 318 319 318 317 316 314 314 307 309 312 309 308 307 304 305 304 303 304 303 304 304 304 303 302
315 315 316 315 316 317 315 317 316 317 317 317 316 319 320 320 320 320 319 319 319 317 316 315 315 311 307 312 310 309 308 307 306 305 304 305 304 303 301 302 304 304 303
315 316 318 317 316 316 316 316 315 315 316 317 318 319 319 321 321 321 320 319 318 316 316 314 312 312 311 308 308 308 307 306 305 304 303 302 301 300 299 300 300 302 302
316 317 318 317 317 316 315 315 315 313 313 315 315 317 320 320 321 321 320 319 316 316 314 313 311 311 310 310 308 306 304 302 301 301 300 300 299 298 297 297 297 298 298
315 315 314 314 315 314 315 315 315 314 318 319 320 320 319 319 321 321 319 317 316 315 312 312 312 311 309 308 307 305 303 302 301 298 297 295 295 296 296 296 297 297 297
316 315 315 315 316 316 315 314 314 314 320 321 321 317 318 319 320 320 318 317 315 314 312 311 311 310 309 307 306 304 302 301 298 296 294 293 292 292 292 293 293 295 295
316 316 315 315 316 315 314 314 316 320 321 321 319 317 320 320 320 319 317 316 315 313 312 310 310 309 308 306 304 302 300 296 294 292 290 289 289 288 288 288 288 287 288
315 315 314 314 314 314 314 314 318 319 320 320 319 319 321 321 320 316 315 316 313 312 311 309 308 306 305 305 302 299 295 293 290 289 289 289 289 288 288 288 287 287 286
315 315 315 315 315 317 320 320 321 318 318 319 319 321 319 320 319 316 315 314 313 310 310 307 305 304 302 300 296 293 290 289 289 289 289 289 288 288 288 287 286 286 286
315 315 316 316 316 318 319 319 321 318 320 321 321 320 319 319 319 317 315 313 311 309 306 304 303 300 297 294 291 288 288 288 289 288 289 288 288 288 287 286 286 286 285
315 315 315 315 316 318 320 321 321 318 319 319 319 318 319 318 315 313 313 312 310 307 304 303 301 296 292 289 287 287 287 287 288 288 288 288 288 287 286 285 285 285 284
315 315 316 317 321 319 319 320 322 320 321 319 319 318 318 314 313 311 311 309 305 304 301 299 295 291 288 286 286 286 286 286 286 287 286 287 286 286 284 284 286 285 285
317 317 318 320 321 323 322 322 322 321 320 320 318 316 316 314 310 309 306 305 302 302 299 293 290 287 286 286 285 285 285 285 285 285 285 285 285 284 285 285 285 285 285
321 322 322 322 323 323 323 322 321 320 319 317 314 312 311 310 307 306 303 302 300 295 290 288 286 285 285 285 284 284 284 284 284 285 284 284 284 285 286 286 285 285 286
323 322 322 322 322 321 321 320 319 318 315 314 310 308 306 305 303 302 300 297 292 289 286 285 285 285 284 284 284 283 283 283 282 283 284 283 285 285 286 286 286 285 285
323 321 321 320 320 319 319 319 317 313 311 308 307 305 302 301 300 299 294 290 286 285 284 284 283 283 282 283 282 283 282 282 281 281 284 282 283 284 285 286 286 286 286

GFSMA_850_thetae_078.txt.gz
Theta_e
321 318 317 322 322 323 321 320 320 317 311 311 312 315 316 317 318 318 317 311 311 311 310 308 307 306 306 305 305 305 304 303 302 302 301 300 299 298 297 296 296 295 295
315 317 316 317 320 323 322 320 319 315 313 314 315 313 315 317 318 318 318 313 312 312 311 309 308 307 306 305 305 305 304 304 303 302 302 301 300 298 297 296 296 295 295
313 313 315 316 316 317 317 318 318 315 314 314 314 313 315 317 317 318 318 317 312 311 311 311 309 309 308 307 306 306 305 304 303 303 302 301 300 299 299 299 298 296 295
313 314 314 315 315 314 313 313 316 314 314 314 314 314 315 316 316 316 317 317 316 315 310 311 310 309 309 308 307 307 306 305 305 304 303 302 302 301 301 301 300 300 298
309 310 309 310 311 311 310 310 310 310 313 313 314 314 314 315 313 315 314 311 315 316 316 313 310 310 309 308 308 307 306 306 306 306 305 304 303 302 302 302 302 301 300
315 314 310 310 310 310 313 313 313 310 312 312 311 312 312 312 313 314 313 311 311 310 313 316 313 312 310 309 309 310 309 307 307 307 306 305 305 304 303 302 302 302 301
315 309 311 314 313 316 318 318 316 313 314 314 312 313 313 312 312 313 313 312 311 309 312 313 315 313 313 310 309 308 308 310 309 308 306 306 306 306 305 305 304 303 302
310 310 313 315 317 317 318 318 317 316 317 316 316 318 318 316 316 316 315 315 314 313 312 309 309 310 310 313 311 308 306 306 309 310 309 308 307 307 307 307 306 305 305
315 314 316 317 317 316 315 317 318 318 318 319 318 319 319 319 319 319 319 319 318 316 315 315 312 309 309 309 309 308 310 306 305 305 307 308 308 308 308 307 306 305 305
317 317 316 316 317 314 314 316 318 319 319 320 319 319 320 320 319 321 319 320 319 319 318 318 316 311 309 311 309 309 310 309 306 304 304 303 303 304 304 306 307 307 306
316 316 316 314 314 314 314 317 318 319 318 320 319 319 319 319 319 318 320 320 318 318 319 318 317 316 315 312 310 307 308 311 308 306 307 304 305 304 304 304 305 307 306
315 315 316 315 314 314 316 315 316 317 317 319 318 318 318 317 320 320 320 321 320 319 319 317 316 316 315 314 311 307 311 311 309 308 306 306 305 305 305 304 303 302 302
315 315 316 315 314 315 316 315 316 317 318 317 315 317 317 316 320 320 320 320 320 319 319 317 315 315 313 312 309 311 309 308 309 308 307 306 305 303 302 302 302 301 301
316 315 316 316 315 316 316 317 317 317 319 315 314 315 316 318 319 318 320 320 317 318 318 316 316 314 312 312 312 311 309 309 307 306 305 303 302 297 296 295 296 295 295
316 316 316 315 315 317 318 317 317 318 319 319 319 316 318 319 320 320 319 319 319 315 316 316 313 312 311 311 309 309 308 307 306 304 303 302 295 294 293 292 291 291 292
317 316 317 318 318 317 318 318 319 319 319 320 317 314 318 321 319 318 319 319 320 317 316 316 312 311 310 307 309 306 306 305 304 303 301 294 293 291 290 289 289 289 288
318 318 318 318 318 319 318 318 319 320 320 316 314 317 320 321 318 317 318 320 319 317 315 314 312 309 309 309 307 307 304 303 300 298 293 291 290 290 289 289 289 289 289
318 319 318 318 318 318 318 318 318 316 315 315 315 315 315 318 318 319 319 319 319 317 315 313 313 312 311 307 307 305 302 299 297 293 290 290 290 290 289 289 289 289 288
319 319 319 319 319 318 318 318 316 315 314 316 319 316 318 319 318 316 319 319 317 315 314 313 312 311 309 306 306 305 301 295 292 290 290 290 289 289 289 289 289 288 287
318 318 319 319 318 318 318 314 315 316 318 320 320 319 318 316 317 319 320 318 317 315 313 312 310 308 306 304 303 298 292 290 289 289 289 289 289 289 290 290 289 288 286
318 317 317 317 317 318 316 315 316 317 318 319 321 318 318 320 319 319 318 317 316 313 311 310 307 305 303 300 296 291 289 288 288 288 289 288 288 289 289 289 288 288 285
318 319 319 318 316 316 315 315 316 317 319 321 321 319 319 319 318 318 316 315 313 312 309 307 305 301 299 293 290 288 288 288 289 289 288 288 288 288 289 288 287 287 285
318 318 318 317 317 317 315 316 319 318 318 319 321 319 321 320 317 315 312 311 309 307 304 303 301 298 293 289 287 287 287 288 289 288 287 288 289 289 288 288 288 286 285
319 319 319 319 319 317 317 318 320 321 321 321 321 319 319 317 314 311 308 305 304 303 301 300 296 292 288 286 286 285 285 285 286 286 286 287 288 288 288 288 287 287 286
320 320 320 320 321 322 323 322 322 321 320 320 319 317 314 311 308 305 306 303 301 300 297 293 290 287 286 285 285 284 284 285 286 286 286 285 287 288 286 286 288 288 287
321 321 322 322 322 322 322 321 322 321 319 318 315 311 307 305 304 301 300 299 297 295 291 287 285 285 285 284 284 283 282 282 284 285 286 285 285 284 286 286 287 287 288

GFSMA_850_thetae_081.txt.gz
Theta_e
322 322 320 322 320 320 319 316 320 319 319 318 319 319 320 320 320 319 315 312 312 310 309 307 306 306 306 306 306 306 306 305 304 303 303 302 301 299 297 296 296 295 295
323 319 317 322 322 322 321 320 321 320 319 318 319 319 319 320 320 319 317 311 314 312 310 308 308 307 306 306 307 307 306 305 304 304 303 303 301 300 300 300 299 298 297
320 319 320 322 324 323 322 322 320 317 317 318 318 319 319 320 320 320 318 315 312 313 313 310 309 309 308 307 307 306 305 305 305 305 305 304 303 303 302 302 302 302 301
321 319 318 320 322 323 322 320 318 316 317 317 318 318 319 319 320 320 319 319 317 316 312 313 311 310 309 308 308 307 307 306 307 307 306 306 305 305 304 303 303 303 303
317 313 316 320 320 321 320 319 318 317 317 316 317 317 318 318 319 319 319 319 319 318 317 313 311 310 310 309 309 308 308 307 307 307 307 306 306 305 305 305 304 304 304
313 313 315 316 315 314 314 312 315 316 316 316 316 316 317 317 318 318 318 318 318 318 318 317 316 311 310 310 310 310 310 308 308 307 307 307 306 307 306 306 306 305 305
313 314 313 314 313 314 315 311 311 313 314 315 314 315 315 316 316 317 318 318 317 313 311 317 317 316 314 311 311 310 312 312 311 309 308 308 307 307 308 308 307 306 307
313 312 312 312 313 314 312 312 314 314 316 316 316 317 317 316 315 315 315 315 315 316 316 315 315 316 315 312 312 312 310 311 311 311 311 311 309 308 308 308 307 307 307
311 313 314 314 315 314 316 317 317 319 321 318 318 321 321 321 320 317 316 315 315 315 315 316 314 313 312 313 312 313 313 309 308 309 309 311 310 310 309 308 308 308 307
314 315 315 315 312 318 319 317 318 318 320 319 318 319 320 321 320 318 319 319 319 319 320 319 316 314 314 314 310 309 310 310 309 308 308 305 304 305 305 305 305 305 306
313 314 312 314 315 317 317 317 317 317 318 320 320 319 319 320 319 319 319 319 320 320 320 319 319 319 318 317 315 311 309 309 309 309 310 307 306 307 305 304 304 304 304
309 310 313 316 317 316 316 316 316 317 318 318 318 319 319 319 319 319 318 319 320 320 318 319 319 318 317 314 314 313 311 311 308 307 312 311 309 308 307 306 305 305 303
310 314 316 317 317 316 316 315 315 316 317 317 317 318 318 318 319 319 319 319 320 321 320 320 319 318 316 315 314 315 313 312 308 311 311 310 309 308 306 304 303 301 299
313 316 317 316 315 315 316 315 316 316 316 317 317 318 317 319 319 320 321 320 320 320 320 318 318 318 316 315 314 313 312 311 311 310 310 308 307 306 304 303 296 294 293
315 316 316 316 316 316 316 315 316 317 316 317 318 318 319 318 319 319 321 321 320 319 318 318 319 318 316 312 313 311 311 311 309 309 307 307 306 304 303 295 293 292 291
315 315 315 315 315 315 316 315 316 317 317 317 317 318 318 319 319 318 320 321 320 320 318 318 318 316 314 312 311 311 310 307 309 307 307 306 304 303 295 292 291 291 290
320 319 318 316 316 316 316 316 316 317 319 318 319 320 320 319 318 320 320 320 318 318 318 316 317 315 314 312 308 310 308 308 306 306 306 303 299 294 291 290 290 290 290
321 319 319 318 317 316 317 317 317 319 319 320 319 320 319 318 318 316 316 316 317 317 317 317 317 314 313 311 310 309 307 306 305 301 303 300 292 290 290 290 290 290 290
322 321 320 319 318 319 320 319 320 320 320 319 320 320 319 317 315 316 317 317 317 316 317 317 317 315 313 311 312 310 306 306 304 303 299 294 290 290 290 290 290 290 290
321 321 321 320 320 320 320 320 320 320 319 319 319 319 318 317 317 319 318 318 315 316 316 317 315 314 312 312 309 307 305 303 299 296 291 291 290 290 290 290 290 291 291
322 321 321 321 321 321 321 320 320 320 320 320 320 319 316 318 320 317 316 316 315 316 317 315 314 314 311 311 308 307 303 300 294 294 290 290 290 290 290 290 290 291 291
322 322 321 321 321 320 320 319 320 321 320 320 319 317 317 318 320 320 317 318 319 318 318 314 312 310 312 309 307 303 299 295 291 291 291 290 290 290 290 289 291 290 289
321 320 320 320 320 320 319 319 318 319 319 319 317 316 316 319 321 320 319 318 317 316 312 311 310 308 306 305 302 299 293 290 289 290 291 290 289 289 289 290 290 290 289
322 322 321 321 321 321 320 320 320 319 319 318 317 317 319 318 318 320 319 314 313 309 307 305 303 303 300 298 297 292 289 288 289 289 288 288 289 289 289 289 290 289 288
323 322 322 321 321 321 321 321 321 321 319 317 318 319 320 319 319 319 318 311 307 304 302 302 301 298 293 291 289 286 286 285 286 287 287 288 288 287 289 289 288 288 288
323 323 322 321 321 321 321 321 321 319 319 319 319 318 317 315 312 309 307 304 303 301 299 299 298 293 289 285 285 284 285 284 285 286 287 287 288 287 286 287 287 287 287

GFSMA_850_thetae_087.txt.gz
Theta_e
327 327 325 324 323 317 309 310 307 307 317 320 321 321 321 321 320 317 310 311 310 308 308 307 306 306 306 306 306 306 305 304 304 304 303 301 300 300 300 300 299 299 300
327 327 325 324 324 318 307 307 307 311 320 320 320 321 321 321 320 317 309 310 309 308 307 307 307 306 307 307 307 307 306 305 305 305 304 303 303 303 304 303 303 303 303
328 327 325 324 325 319 307 311 312 314 319 319 320 320 321 320 320 317 309 309 309 308 308 308 308 308 308 308 308 307 307 306 306 306 305 305 305 305 305 305 305 305 305
329 327 326 324 323 312 311 319 317 313 317 319 320 320 320 320 319 317 309 310 310 309 309 310 310 309 309 309 309 309 309 308 308 308 307 307 307 307 306 306 306 306 306
329 327 326 324 319 310 320 320 318 319 319 318 319 319 321 320 320 319 317 311 311 311 310 310 310 310 310 310 310 310 310 309 309 308 308 308 307 307 307 306 306 307 307
328 327 325 320 318 314 320 320 319 319 318 318 319 320 320 320 320 319 318 318 316 315 312 312 311 311 311 311 310 310 310 310 309 309 308 308 308 307 308 308 308 308 308
325 325 323 322 318 316 321 320 318 318 318 318 319 319 319 319 320 320 320 320 319 318 318 316 316 316 315 313 311 311 311 311 311 310 309 309 309 308 309 309 308 308 308
325 325 321 318 317 321 321 319 317 317 318 317 318 318 318 319 319 318 319 320 319 319 318 318 315 315 316 316 316 314 312 312 313 313 314 313 312 312 311 311 310 309 308
323 321 320 322 321 321 320 317 316 317 317 317 317 315 317 317 318 318 318 318 318 318 318 318 317 315 314 316 316 315 315 314 312 314 315 315 314 313 312 312 312 310 309
323 321 320 321 320 320 320 317 315 313 314 314 315 316 315 315 316 316 317 317 318 317 317 317 316 317 317 318 317 317 316 315 314 313 312 313 314 313 312 311 310 309 309
320 320 320 318 316 315 317 313 313 313 315 314 315 315 315 318 318 317 317 316 316 317 317 318 318 317 318 318 319 318 317 315 317 316 312 311 312 311 309 310 309 309 307
318 318 316 315 315 315 314 313 314 314 313 314 315 314 315 318 319 318 317 317 318 317 317 318 318 319 319 319 319 319 317 316 317 316 315 312 311 311 310 309 308 308 308
317 314 314 314 313 313 313 314 315 313 313 315 318 316 316 319 319 319 319 319 318 317 318 318 319 319 318 318 319 319 319 318 318 316 315 314 311 310 309 309 308 310 310
314 314 315 315 314 314 313 313 314 315 315 318 319 319 318 318 318 317 318 318 318 318 318 317 316 316 316 317 318 319 319 318 317 316 315 314 312 310 309 309 307 310 308
314 314 314 315 315 313 312 313 316 316 317 318 317 317 317 317 317 317 316 318 317 318 318 316 317 317 317 316 317 318 319 318 317 317 315 314 313 311 311 308 310 309 307
315 314 313 313 313 312 314 314 314 316 317 317 317 317 317 317 316 316 316 316 318 318 317 317 317 317 317 317 318 317 318 318 318 317 316 314 311 310 309 309 308 307 306
315 315 314 313 312 312 314 315 313 315 316 317 317 317 317 316 316 316 316 317 318 318 319 318 317 318 318 318 318 317 317 317 317 316 315 313 311 310 309 308 307 306 304
318 316 314 314 314 314 314 315 313 314 316 316 317 317 316 317 316 316 317 317 317 317 318 318 318 317 318 317 317 317 315 315 316 316 314 313 311 310 309 308 306 305 302
320 319 315 314 314 312 313 312 312 313 314 316 317 316 316 316 316 316 316 316 317 317 318 318 318 318 316 317 317 316 316 315 315 315 314 312 310 310 308 307 305 304 299
321 321 320 320 319 314 310 311 312 312 313 316 317 316 316 316 315 317 317 316 317 319 319 318 318 317 316 317 317 316 315 315 314 313 314 312 308 307 307 304 303 299 298
321 321 321 322 321 319 316 311 310 311 314 315 315 315 315 316 316 316 317 317 318 320 319 318 318 317 317 317 317 315 316 315 314 310 308 307 306 303 302 302 296 295 291
321 322 322 322 322 321 320 318 316 313 314 314 316 318 318 317 317 317 317 318 320 320 319 319 320 318 318 317 318 315 315 313 310 308 305 304 303 301 301 292 292 292 290
324 323 322 324 323 323 322 321 320 319 320 320 320 319 319 318 318 319 320 321 321 320 320 320 319 318 317 315 315 314 313 311 307 303 303 302 300 299 296 293 292 291 290
326 325 324 323 323 323 323 323 322 322 321 321 321 320 320 320 320 321 321 321 321 321 321 320 319 316 315 312 310 308 307 304 301 300 299 297 296 295 292 291 290 290 288
326 325 325 324 324 323 323 323 323 323 322 321 321 321 321 321 321 321 321 321 321 321 320 319 317 313 307 306 304 302 300 298 297 295 292 291 291 288 289 290 289 288 288
326 326 325 324 324 324 324 323 323 322 322 322 322 322 322 321 320 320 320 319 320 318 313 308 303 301 300 299 298 297 295 293 292 289 288 287 288 289 288 288 287 287 287

GFSMA_850_thetae_090.txt.gz
Theta_e
327 325 324 322 322 326 314 315 315 323 322 320 321 321 320 320 319 319 309 313 313 309 307 306 306 305 305 305 305 304 304 303 303 302 301 300 300 299 298 298 299 299 299
328 326 324 323 326 323 312 313 312 321 319 320 320 321 321 320 319 319 309 308 309 308 307 307 306 305 305 305 305 305 304 304 303 303 301 301 301 301 301 302 302 303 304
328 326 326 325 323 318 314 312 309 315 318 320 321 321 321 320 320 318 309 308 308 308 308 307 307 307 306 306 306 306 306 305 304 304 303 303 304 304 305 305 305 306 306
328 327 326 325 324 318 310 309 307 310 320 320 320 321 321 320 319 317 309 309 309 308 307 307 307 308 308 308 308 308 307 307 307 306 305 305 306 306 307 306 306 306 306
328 327 327 325 323 318 308 307 307 319 320 320 320 320 320 319 319 318 310 309 309 309 308 308 309 310 310 310 310 310 309 309 308 308 307 308 307 307 307 307 307 307 307
328 328 328 325 324 319 307 309 314 319 319 319 320 320 320 320 319 318 317 310 311 310 310 310 310 310 310 311 311 310 311 310 309 309 309 309 309 308 308 308 308 308 308
329 327 328 325 324 309 312 314 312 313 318 319 319 320 320 320 319 319 318 317 317 314 313 311 311 310 311 311 311 311 311 311 311 310 309 309 309 309 309 308 309 309 309
328 327 326 325 323 308 320 318 318 318 318 319 319 320 320 320 320 320 318 319 319 319 318 318 315 315 315 316 316 315 315 312 312 312 312 311 310 309 310 311 311 311 311
325 327 327 325 318 312 318 319 319 319 318 319 319 319 319 319 319 319 319 319 319 319 319 318 317 316 315 315 315 316 316 316 314 313 315 314 315 314 313 312 312 311 312
324 324 326 321 317 313 320 319 320 318 318 318 319 318 316 317 318 318 319 319 318 318 318 317 317 317 317 316 317 317 317 316 316 315 315 314 314 314 315 315 313 313 311
321 321 321 319 317 316 320 319 318 316 317 317 318 317 316 315 316 317 318 318 318 318 317 317 317 317 317 316 317 318 318 318 317 316 315 314 314 313 313 314 313 312 311
322 322 321 321 317 321 318 319 317 317 317 316 316 317 315 316 316 316 315 316 317 316 316 317 317 317 317 318 318 319 319 318 318 317 316 314 314 315 313 312 313 312 311
322 321 321 322 319 321 320 319 317 316 316 316 316 314 315 316 316 317 318 318 317 317 318 318 317 317 317 318 318 318 318 318 318 318 318 316 314 315 314 313 312 312 311
321 321 320 320 319 319 320 318 316 313 313 313 313 314 315 315 316 317 318 319 318 318 318 317 317 316 315 316 316 316 317 317 318 318 319 318 317 316 314 313 312 311 310
319 319 319 318 316 315 315 316 315 313 313 313 312 313 316 316 316 317 318 318 318 318 318 318 317 318 316 316 317 317 317 316 317 318 318 318 318 316 314 313 312 311 310
319 319 318 315 315 314 314 314 314 313 313 314 313 313 318 317 318 318 317 318 317 316 317 317 317 317 317 317 317 317 317 318 317 317 317 318 318 315 316 314 312 311 310
319 318 317 314 314 314 314 313 313 314 313 315 316 317 318 317 317 317 317 317 317 316 316 316 316 317 318 318 318 317 317 317 318 316 317 316 316 317 316 314 312 311 310
320 317 316 315 314 314 316 314 313 313 312 313 315 317 317 317 317 317 316 316 316 316 316 316 317 316 317 317 318 318 318 317 316 317 316 315 316 316 315 313 311 309 308
320 319 316 316 315 314 314 314 313 313 313 314 314 313 314 316 316 317 317 317 317 316 316 316 316 316 317 317 317 318 317 316 316 316 316 316 315 315 314 311 309 308 305
321 321 319 318 317 316 314 314 314 313 313 314 315 314 313 315 316 316 317 316 316 316 316 316 317 316 317 317 319 318 317 315 316 316 315 316 315 314 313 309 307 304 303
321 321 321 320 320 319 317 314 314 314 314 314 314 314 313 314 314 314 316 316 316 316 315 316 318 318 318 318 319 318 318 318 316 317 317 316 316 313 311 308 306 304 303
321 320 320 320 320 320 321 320 318 317 316 313 311 311 312 312 312 312 315 316 316 316 316 317 318 317 318 319 319 318 318 317 316 315 314 313 313 310 306 303 303 301 298
323 321 321 321 321 320 321 321 321 321 319 318 317 313 311 311 311 312 314 315 317 318 318 319 319 319 319 319 319 319 318 317 315 312 310 308 306 304 302 301 299 298 298
325 324 323 322 322 322 321 321 322 322 320 320 319 318 317 317 317 319 320 319 319 319 319 319 320 320 321 320 319 316 315 313 310 307 305 302 301 299 298 297 296 293 291
326 325 325 324 324 324 324 323 322 322 322 322 321 320 320 320 321 320 320 320 320 320 321 320 321 320 319 316 314 315 310 308 303 301 299 298 295 295 295 294 295 292 290
325 325 325 325 325 325 325 324 324 324 323 322 322 322 322 322 320 319 320 321 321 320 321 320 318 315 315 312 309 304 303 302 300 295 294 293 293 293 292 291 291 290 288

GFSMA_850_thetae_093.txt.gz
Theta_e
326 328 325 324 326 325 325 327 325 323 322 323 322 321 320 319 318 312 310 317 319 319 319 317 313 307 306 305 305 304 304 303 303 302 302 301 301 300 300 299 299 299 299
326 325 327 325 322 327 322 326 323 322 322 321 321 321 320 320 319 317 309 311 314 315 319 318 313 308 305 305 305 305 304 304 303 302 302 301 301 300 301 301 302 302 303
324 322 323 325 323 327 319 318 324 321 321 320 320 321 320 320 319 317 311 309 311 315 314 314 310 306 305 305 305 305 306 305 305 304 303 302 303 303 304 305 305 305 305
324 326 325 325 321 326 317 316 322 321 320 320 320 320 321 320 319 317 311 310 309 309 308 309 306 306 306 306 306 306 306 306 306 305 305 304 306 306 306 306 306 306 306
325 327 326 324 323 326 317 317 319 322 320 319 320 321 321 320 319 317 312 310 310 308 308 307 307 307 307 307 308 308 308 307 308 308 308 307 307 307 308 308 307 307 307
326 327 327 325 325 324 316 315 313 321 320 320 320 320 320 320 319 317 312 310 309 309 308 308 308 308 309 309 309 309 309 309 310 310 309 309 309 308 308 308 308 308 308
328 327 328 326 326 324 317 314 312 316 318 320 320 320 320 319 319 317 312 311 310 310 309 309 310 310 310 310 310 310 311 311 311 310 310 310 309 309 309 308 308 309 309
327 327 327 327 326 325 315 311 308 313 319 320 320 320 318 318 318 318 317 313 313 313 311 311 310 310 310 311 311 312 312 312 311 312 311 311 310 310 309 309 309 309 310
324 325 327 327 327 325 316 309 308 319 319 319 319 320 319 319 319 319 318 318 318 318 317 316 315 315 315 315 315 316 316 315 315 313 313 314 314 313 312 311 311 311 311
324 323 323 326 326 325 318 309 308 319 318 319 319 320 318 319 320 319 319 319 319 319 319 318 317 317 317 317 316 316 316 315 316 316 316 315 316 316 315 315 314 314 314
322 323 322 326 325 324 316 312 312 315 315 318 319 319 319 318 318 318 318 318 318 318 318 318 317 317 317 317 317 317 316 316 316 316 317 316 316 315 315 316 314 314 314
322 323 325 323 324 325 313 316 317 316 316 317 314 313 319 317 317 317 316 316 317 316 316 315 316 317 317 317 317 318 318 317 317 317 317 317 317 316 316 315 315 315 315
320 321 322 323 322 320 316 316 316 315 317 315 314 317 318 315 316 315 316 315 315 316 316 316 316 317 317 317 317 317 318 318 318 318 318 318 317 316 316 316 314 315 315
321 321 321 321 320 319 318 318 317 319 317 318 316 315 314 316 316 315 316 315 316 317 317 316 317 317 318 316 316 316 317 316 316 316 316 317 317 318 317 315 315 313 314
322 322 322 320 320 319 317 318 320 317 317 317 317 317 316 317 316 315 315 317 317 318 318 318 317 317 317 318 317 317 317 317 317 317 317 317 317 317 317 318 317 313 314
321 322 322 321 322 319 319 320 318 317 317 316 315 315 315 315 314 315 315 315 316 318 318 318 316 317 317 317 317 317 317 317 317 317 316 317 317 318 317 317 318 316 313
320 320 320 321 320 320 319 318 318 319 317 316 314 313 313 313 313 315 317 316 317 317 317 316 317 317 316 316 316 316 317 317 317 317 317 317 316 316 317 317 316 316 315
320 320 319 320 319 318 316 316 315 315 316 314 313 313 314 314 313 313 317 318 317 317 317 317 317 317 316 316 316 316 316 316 317 317 317 317 316 316 316 316 315 317 316
320 320 319 319 318 318 315 315 314 314 314 314 314 313 313 313 315 316 317 318 317 316 316 317 316 316 316 316 316 315 315 316 316 316 318 317 316 316 315 315 315 314 315
320 320 320 319 318 317 315 314 314 314 313 313 313 313 314 313 313 314 316 317 317 317 317 317 317 317 316 316 316 315 316 316 316 316 318 318 317 316 316 316 315 314 315
320 321 320 320 319 318 316 315 314 314 314 315 315 313 313 313 312 313 314 314 314 315 316 316 316 316 316 316 315 316 316 317 317 318 318 317 318 317 316 315 316 315 314
320 319 320 321 321 320 320 318 316 315 315 314 313 313 313 313 313 313 314 314 314 314 315 315 314 316 316 316 316 316 316 316 315 317 317 317 316 315 316 315 314 312 308
323 322 321 321 320 320 320 320 320 319 319 319 318 316 315 315 315 314 313 312 312 313 313 313 313 314 315 315 316 317 317 317 317 316 316 316 316 315 313 311 309 306 305
324 324 323 323 323 323 322 321 320 320 320 320 320 320 320 320 320 319 318 316 315 314 313 313 315 317 316 317 317 318 318 317 317 316 313 309 310 308 305 302 301 299 299
324 324 324 324 323 323 323 324 323 322 321 321 320 320 320 320 321 320 319 318 319 318 318 318 319 319 319 319 319 318 317 316 313 307 305 307 304 300 299 296 295 294 293
323 323 323 324 324 324 323 323 322 322 323 323 324 323 323 321 321 320 320 320 318 319 319 319 319 318 317 317 316 313 310 308 306 302 298 295 295 294 294 293 292 292 291

GFSMA_850_thetae_096.txt.gz
Theta_e
326 326 326 326 326 326 328 326 327 326 326 326 324 323 321 318 314 311 317 319 319 320 320 319 318 316 310 314 308 305 304 303 303 303 302 302 302 302 302 301 301 301 300
326 327 326 325 326 326 326 326 327 326 326 325 323 322 321 318 317 312 315 319 319 319 319 318 317 314 309 309 306 304 304 303 303 303 302 302 302 302 301 302 302 303 304
325 325 327 326 326 325 324 326 326 326 324 323 323 321 320 319 318 316 311 316 319 318 319 318 318 316 308 306 304 304 304 304 304 303 303 302 302 302 303 304 304 305 306
323 323 322 324 326 324 324 326 326 325 322 322 321 321 320 319 319 317 313 311 315 317 317 318 317 311 307 305 305 305 305 305 304 304 304 304 304 305 305 306 306 307 307
324 322 321 322 324 323 326 326 326 324 321 321 320 320 320 320 319 317 314 311 311 312 310 312 310 308 306 306 306 306 307 306 306 306 306 306 306 307 307 307 307 307 307
326 325 323 324 325 322 325 324 324 323 321 320 320 320 320 320 318 317 315 310 313 311 310 308 307 307 307 307 308 308 308 308 308 308 308 308 308 308 308 308 308 308 308
327 326 325 326 325 323 324 321 321 321 320 320 320 320 320 319 318 317 315 312 312 311 310 309 308 308 309 309 310 310 310 310 310 309 310 309 309 309 309 308 309 309 309
325 327 327 326 326 324 326 320 319 321 319 319 320 320 319 318 318 317 316 313 311 311 311 309 309 310 310 310 310 310 311 311 312 312 311 311 311 311 310 310 309 310 310
326 326 326 326 327 325 326 321 319 319 319 319 320 320 318 318 318 317 316 315 313 311 312 310 310 310 310 310 310 311 312 312 313 314 315 313 313 313 312 311 311 310 310
324 323 326 326 327 325 325 324 318 317 319 319 320 320 319 319 318 318 318 318 316 314 315 314 315 315 314 314 314 315 315 315 315 315 315 316 316 316 316 315 315 314 314
321 322 323 324 326 325 325 324 318 313 313 317 318 320 320 319 318 318 318 318 319 318 318 318 318 318 317 317 317 317 317 317 317 316 316 316 316 317 317 316 316 315 315
320 322 323 322 325 323 324 324 318 312 308 316 317 319 320 319 316 314 318 317 317 317 316 315 315 316 316 316 317 317 317 317 317 316 316 316 316 316 316 316 317 317 317
322 321 322 322 323 322 323 322 318 311 312 316 316 319 319 319 313 312 315 316 316 316 315 315 315 316 314 316 316 317 317 317 317 317 317 317 317 317 317 317 316 316 316
321 321 321 322 323 323 323 322 316 311 312 315 317 318 319 315 312 313 317 315 314 315 315 314 315 316 315 316 317 317 316 316 317 317 317 317 317 317 317 317 317 317 317
321 322 321 320 321 322 322 321 316 313 312 314 314 312 315 314 312 316 315 315 315 315 315 315 316 316 317 316 318 316 316 317 317 316 316 317 317 317 316 317 317 317 317
321 321 321 321 321 321 319 317 315 313 316 317 314 314 315 314 315 316 313 314 316 316 316 315 315 317 317 318 317 316 317 317 317 316 317 317 317 317 317 317 317 316 317
320 321 321 321 321 320 318 317 316 316 317 316 317 318 317 317 316 316 317 317 316 315 316 315 315 316 317 317 316 316 316 316 316 316 316 316 316 317 317 317 317 316 316
319 320 320 321 321 321 320 319 317 317 318 319 318 317 317 316 316 315 315 314 313 314 315 316 316 317 317 317 316 317 316 316 316 316 316 315 315 316 316 317 318 316 316
320 320 319 319 320 320 320 319 319 319 318 318 318 317 317 316 315 313 313 313 313 313 314 317 318 317 317 316 316 317 317 316 316 316 316 316 315 316 316 317 318 318 316
320 320 320 319 319 319 320 320 319 318 316 316 316 316 318 316 314 313 313 313 313 314 315 315 317 317 317 317 317 317 317 316 316 316 316 316 316 316 316 317 318 318 316
318 319 320 320 320 319 318 318 318 317 317 315 315 314 315 316 315 314 314 313 313 313 314 315 315 315 315 315 315 315 316 314 314 315 315 316 316 317 317 318 318 317 317
320 320 319 319 320 320 320 319 318 317 316 315 314 314 314 314 314 314 313 313 313 313 313 313 314 315 315 315 314 314 314 314 314 313 314 316 316 316 317 316 317 317 316
323 323 323 322 322 321 320 320 320 320 319 318 317 316 316 316 315 315 314 314 313 313 313 312 313 314 315 315 315 314 314 314 314 314 315 316 316 316 316 316 315 314 313
323 323 323 323 323 323 323 323 322 321 320 320 320 319 319 319 319 319 319 319 318 318 317 316 315 314 315 315 315 314 314 314 315 316 316 315 314 313 311 309 303 302 298
321 321 323 323 323 323 323 323 323 321 320 321 321 322 321 321 321 320 319 319 319 319 319 318 316 315 315 314 314 313 314 313 314 313 312 309 307 303 300 296 294 293 292
321 322 321 321 322 322 322 322 322 321 321 320 320 320 319 318 320 320 318 316 315 315 314 314 314 313 312 311 312 314 315 311 310 306 301 298 294 294 292 290 290 290 290

GFSMA_850_thetae_099.txt.gz
Theta_e
330 330 329 328 326 328 328 326 325 326 327 326 324 322 322 321 320 320 321 320 321 320 320 320 320 319 317 315 310 307 304 304 304 303 302 302 301 301 302 302 302 302 302
328 325 325 325 327 325 326 328 326 326 326 325 324 323 322 320 316 317 320 319 320 319 319 319 319 318 317 317 309 306 304 304 303 303 302 302 301 301 301 301 302 303 304
326 326 325 327 327 327 326 326 326 326 326 325 325 324 321 319 316 314 318 317 319 319 319 318 319 318 317 311 306 305 304 303 303 302 302 302 302 302 302 302 304 305 306
326 324 326 327 326 326 326 326 326 325 325 326 325 323 321 318 317 315 315 317 317 318 318 318 318 318 317 312 306 305 304 304 303 303 302 302 303 303 303 304 306 307 307
325 323 326 326 326 326 325 327 327 325 325 325 324 323 320 319 317 317 316 316 318 318 318 318 317 317 313 307 305 305 305 305 305 304 304 304 304 305 306 306 307 308 308
325 323 322 322 323 326 324 325 325 325 324 323 323 321 320 318 318 317 316 315 316 316 317 316 316 313 307 306 306 306 307 307 306 306 307 306 306 307 307 308 308 309 309
326 324 322 321 322 324 324 324 323 322 318 320 322 320 319 319 319 317 317 315 314 315 315 315 314 313 308 307 307 308 310 309 308 309 309 309 309 308 308 309 309 309 310
326 327 326 323 324 324 323 325 322 323 322 319 321 320 318 318 318 318 317 316 314 315 312 313 312 309 308 308 309 310 310 311 311 311 311 311 311 310 310 310 310 309 310
325 324 327 326 325 325 323 321 324 323 321 321 320 320 318 318 318 318 317 316 315 313 313 311 312 311 309 310 309 309 310 311 312 313 314 314 313 312 312 311 310 310 310
324 326 324 327 325 326 325 322 323 323 322 320 319 320 320 318 319 318 317 317 315 312 312 311 310 310 311 310 310 310 310 311 313 314 315 317 317 316 316 315 315 315 314
322 324 324 325 324 327 325 325 323 321 321 320 319 319 320 319 318 318 318 318 316 316 312 311 312 311 313 313 312 313 314 315 315 316 316 316 316 316 316 317 317 317 316
320 321 323 323 323 325 326 326 324 321 319 320 320 319 319 319 319 318 318 317 316 316 315 315 317 316 316 316 316 317 317 317 317 317 317 317 317 316 316 316 317 317 317
320 319 322 323 322 325 324 324 324 324 322 318 318 319 319 317 315 318 317 314 314 316 318 316 316 316 316 315 316 315 316 317 317 317 317 317 317 317 316 316 316 316 317
321 322 322 323 322 321 321 323 323 322 321 318 317 316 317 316 318 318 314 313 313 314 316 316 315 315 315 314 316 315 316 316 317 317 317 317 317 318 317 317 317 317 317
319 320 320 321 322 322 322 323 322 323 321 318 315 313 312 316 318 316 314 313 312 314 316 315 315 315 315 314 316 316 316 317 316 317 317 317 317 317 317 317 317 317 317
320 320 320 320 322 322 322 322 321 321 319 316 313 313 314 313 317 318 315 313 313 314 316 315 315 315 316 315 316 317 317 317 317 316 316 317 317 316 316 316 317 317 317
321 321 320 321 321 320 320 320 319 319 317 315 313 314 315 315 318 316 315 314 312 315 315 314 315 316 315 316 315 316 315 315 316 316 316 316 316 316 317 316 316 317 316
320 320 320 320 321 320 320 319 318 317 316 315 313 314 315 315 315 313 315 314 314 315 316 315 316 316 314 315 315 316 317 317 317 316 316 316 316 316 316 316 316 316 315
319 319 320 320 320 320 320 320 318 317 317 315 313 314 315 316 315 314 317 317 316 316 316 316 314 314 313 313 314 315 317 317 317 316 316 317 317 316 316 316 316 316 315
320 320 320 320 319 319 320 320 321 319 317 317 317 318 318 318 318 318 317 317 315 315 313 313 313 313 314 314 315 315 317 317 316 315 314 315 315 316 314 314 315 316 316
319 320 320 320 320 319 319 319 319 320 320 318 318 318 317 316 317 318 317 317 317 316 314 314 314 315 315 316 316 315 316 314 313 314 315 314 314 314 314 315 316 316 316
319 318 318 318 319 320 320 320 319 319 319 318 318 318 318 316 315 315 315 316 317 316 315 314 315 315 314 314 314 315 314 315 315 314 315 315 314 313 313 314 315 316 316
321 321 321 320 321 321 321 320 320 320 320 320 319 319 318 317 316 315 314 314 314 314 314 314 314 314 314 314 314 314 314 314 314 314 315 314 314 314 314 314 314 316 316
321 322 322 321 322 320 321 322 322 322 321 321 320 320 320 320 320 319 319 318 318 318 318 317 316 315 314 314 314 314 314 315 315 315 315 314 313 313 312 311 310 309 308
320 321 320 320 320 319 320 321 321 321 320 322 321 319 318 319 318 318 316 315 316 316 315 315 314 313 313 313 314 314 314 313 313 311 310 308 306 302 299 298 297 296 294
318 318 318 319 319 318 318 320 320 320 319 317 317 317 317 317 317 317 316 315 314 313 312 311 311 311 310 309 309 309 311 309 307 304 302 299 297 295 291 289 289 290 290

GFSMA_850_thetae_102.txt.gz
Theta_e
331 331 330 327 326 327 328 327 329 326 329 327 328 328 326 325 325 324 323 321 322 320 320 319 319 319 318 319 317 314 310 307 305 304 303 303 302 302 302 302 301 301 301
330 330 329 329 329 329 328 327 328 326 327 328 328 327 326 325 324 323 322 321 322 321 320 319 320 318 318 317 316 312 309 308 308 304 303 302 302 302 301 302 301 302 302
330 330 330 330 329 327 327 328 327 325 326 327 327 326 325 325 323 321 323 322 321 320 319 319 319 319 318 316 315 311 308 308 308 303 302 302 302 301 302 302 302 303 305
330 329 327 326 326 326 326 326 327 324 327 326 326 325 325 324 322 321 320 322 322 321 319 319 318 318 317 317 311 306 306 306 304 303 302 302 302 302 302 303 304 305 306
328 327 327 325 325 326 327 326 326 325 326 325 325 325 325 323 322 321 320 319 320 320 318 318 318 318 318 316 310 306 305 304 304 303 302 302 302 303 304 305 306 307 308
327 326 326 325 323 326 325 327 325 326 324 325 325 324 324 322 322 321 321 319 320 319 319 319 318 317 317 316 312 306 306 306 305 305 304 304 305 305 306 307 308 308 309
327 327 323 322 324 326 326 326 325 325 322 324 323 323 322 322 321 321 321 319 319 319 320 320 318 317 315 316 313 307 310 309 307 307 307 308 307 307 308 308 309 309 309
326 327 323 322 321 324 326 324 324 325 324 323 321 322 320 320 320 321 321 320 318 318 318 319 318 317 318 316 310 308 309 312 310 309 310 310 310 309 309 309 310 310 309
325 326 324 322 321 323 325 323 322 322 322 321 321 321 319 320 319 319 320 320 319 318 318 318 318 317 316 317 316 309 309 310 313 313 312 312 311 311 311 311 310 310 311
324 325 325 325 322 323 324 325 324 324 320 318 318 319 321 321 320 321 320 319 319 318 318 318 317 317 317 316 317 315 310 310 310 313 314 315 316 316 315 315 314 314 314
323 325 323 324 326 324 325 324 323 323 321 318 317 321 322 322 320 320 320 319 318 319 318 317 318 318 317 316 316 313 310 310 310 311 312 314 316 316 316 316 316 317 317
322 322 323 325 325 323 325 325 324 322 324 324 322 321 321 322 321 321 320 321 320 319 318 315 317 317 317 313 311 311 311 312 314 314 315 315 316 316 317 317 317 317 317
321 321 322 323 323 325 325 324 325 324 322 323 323 322 320 320 319 319 319 319 320 320 318 318 318 311 313 314 314 315 316 316 317 317 317 317 317 317 317 317 317 317 317
320 320 321 322 323 323 323 325 325 324 324 323 323 321 321 319 319 319 319 316 317 317 316 315 314 316 316 316 315 315 314 315 317 317 317 317 317 317 317 317 317 317 317
322 322 321 321 322 323 322 323 322 323 324 324 323 320 320 319 319 319 318 316 317 316 315 314 314 316 316 315 315 315 314 313 316 316 316 317 317 317 317 317 317 317 317
320 321 321 321 323 323 322 321 322 322 323 322 322 319 320 319 319 319 317 316 317 315 315 315 316 318 317 315 315 315 314 314 317 317 317 317 316 316 317 317 316 317 316
321 320 320 321 321 322 321 322 321 322 322 320 320 318 318 318 318 317 315 316 315 314 314 314 314 317 318 316 315 316 315 316 315 314 314 315 315 316 316 316 316 316 316
320 321 320 320 321 321 322 321 321 321 320 319 318 318 317 316 315 315 314 316 317 317 317 316 314 313 316 319 319 319 316 315 315 315 316 317 315 316 316 316 316 316 316
320 321 321 320 321 321 320 320 320 319 319 318 317 316 315 316 316 316 315 314 316 315 315 315 315 316 317 317 318 319 319 318 314 314 314 315 317 317 316 316 316 317 317
320 319 320 320 321 321 320 320 320 319 319 318 317 317 316 316 315 316 315 315 316 315 314 315 316 316 316 317 317 317 317 317 318 318 317 316 315 315 314 314 314 314 315
320 320 319 319 319 320 320 320 320 320 321 319 318 317 317 317 317 317 316 317 317 316 315 317 317 316 315 315 316 317 317 317 317 317 317 317 317 318 317 316 315 315 314
319 319 319 319 319 320 320 319 319 319 319 320 320 319 318 318 318 318 318 316 316 318 318 317 316 316 317 317 317 317 317 318 318 317 318 317 317 317 318 318 317 317 315
319 319 319 318 319 318 318 319 319 318 319 319 319 319 319 319 319 317 317 317 316 315 315 316 317 317 318 318 317 316 316 316 316 317 317 317 317 317 317 316 316 315 314
320 319 319 319 318 319 320 320 319 318 318 318 319 319 319 319 319 318 317 317 317 317 315 314 314 314 314 314 314 315 315 315 315 315 314 314 314 314 313 311 310 309 308
320 320 320 319 319 319 320 320 320 321 321 318 316 316 316 316 315 316 315 315 315 315 314 314 313 313 313 313 313 312 312 312 312 311 309 308 307 306 305 304 301 299 296
317 317 318 318 319 318 320 320 319 320 320 319 318 317 318 317 317 317 315 313 312 312 311 310 310 310 309 309 310 309 307 307 305 303 303 301 300 298 295 292 291 290 290

GFSMA_850_thetae_105.txt.gz
Theta_e
334 333 332 332 332 331 329 326 326 326 327 325 326 327 328 328 326 325 324 323 323 322 321 319 319 318 319 318 318 319 314 311 310 310 306 305 304 302 302 302 302 302 302
333 333 331 331 329 328 327 326 327 328 327 325 327 328 328 326 325 325 322 322 322 322 320 320 320 319 318 319 318 317 309 306 304 305 304 304 302 302 302 302 302 302 302
333 332 330 331 330 328 326 328 329 328 327 329 328 327 327 325 324 324 322 323 322 321 320 319 320 319 318 318 318 313 306 306 306 305 303 303 302 302 302 301 302 302 304
331 331 331 330 330 329 329 329 328 327 326 327 328 327 326 324 322 323 321 324 322 321 320 319 319 319 318 318 318 313 307 305 306 304 303 302 302 302 302 302 302 303 305
329 331 330 329 329 329 327 326 326 326 326 327 328 326 324 323 322 321 324 321 322 321 320 318 318 318 318 318 317 311 309 306 305 304 303 303 303 302 302 303 304 306 307
329 330 330 328 327 328 325 326 325 327 326 326 326 325 323 323 322 321 321 323 321 320 321 319 318 318 318 317 317 312 307 306 305 304 304 304 304 304 304 305 306 307 308
329 329 329 327 326 325 324 327 326 326 325 326 325 324 323 322 321 321 320 320 320 320 320 320 319 319 317 317 316 315 313 314 306 306 306 305 305 305 306 307 308 308 309
327 328 328 327 324 322 323 326 325 325 326 325 324 323 322 322 321 322 321 321 321 320 319 320 320 320 319 315 314 314 310 318 315 309 307 308 308 308 308 309 308 309 310
327 328 327 327 323 322 323 325 325 325 325 324 323 323 321 321 322 321 320 320 320 320 319 318 320 319 319 319 317 312 310 314 316 316 310 310 310 310 310 310 310 310 310
327 327 326 327 324 321 323 325 324 324 324 323 323 322 321 320 321 321 321 321 320 320 319 319 319 319 319 318 319 317 310 309 312 315 318 314 312 312 312 311 311 311 311
328 327 325 325 325 321 322 324 323 322 323 322 323 320 319 317 321 321 321 321 320 320 319 318 319 318 318 318 317 318 316 312 310 310 312 315 317 316 316 316 317 317 316
328 326 325 325 326 325 322 323 324 323 322 323 321 319 320 320 321 320 321 321 321 320 320 320 318 319 319 319 318 318 315 311 310 310 310 310 311 313 315 316 317 317 317
326 326 324 325 324 325 324 324 324 324 324 323 322 320 320 321 321 320 321 321 321 320 320 320 319 318 318 318 318 313 311 311 312 312 314 314 314 315 316 317 317 317 317
324 324 324 324 324 324 325 324 324 323 323 323 322 320 319 320 320 321 321 320 317 319 319 320 320 319 318 315 312 313 313 315 315 316 316 316 317 317 317 316 317 317 317
325 323 322 323 324 323 323 323 325 324 324 322 321 323 323 322 321 320 320 319 316 317 316 318 319 317 314 314 316 316 315 315 315 315 315 314 315 317 317 315 316 317 317
323 322 322 322 323 324 323 323 324 323 323 323 322 322 323 323 322 321 320 319 319 317 316 316 317 317 316 316 315 316 315 315 315 315 314 314 316 316 317 317 317 317 317
325 323 322 324 323 322 323 323 322 321 322 322 322 323 322 321 321 321 320 319 319 318 316 316 316 316 317 317 316 316 315 316 315 316 315 315 315 316 315 315 315 315 316
324 322 322 322 321 322 322 322 322 322 321 322 321 320 321 321 320 319 319 319 319 318 316 316 316 314 314 315 316 316 318 318 317 317 316 315 314 314 315 316 316 315 316
325 323 321 322 321 321 321 322 323 323 322 322 321 320 320 319 318 318 318 318 319 317 316 317 318 318 318 317 317 315 315 317 318 319 318 316 315 314 314 314 314 316 316
325 326 323 321 321 321 322 321 320 320 320 319 319 318 317 317 317 317 317 317 317 317 316 317 316 316 317 317 317 317 317 318 318 318 319 318 318 318 317 317 317 317 317
323 321 320 321 322 321 320 323 321 321 320 321 320 320 319 319 318 318 318 317 317 317 316 315 315 316 316 316 317 316 316 316 317 318 318 318 318 319 319 319 319 318 318
323 320 321 320 320 320 321 320 321 322 322 322 321 321 319 318 318 318 317 317 317 318 317 317 317 317 317 317 317 318 317 318 318 318 319 319 319 320 319 319 319 318 317
320 320 319 320 320 321 320 320 319 319 320 320 319 319 319 319 319 319 318 319 319 318 318 318 318 318 318 318 317 318 318 318 318 317 317 316 316 316 316 316 315 316 317
319 319 320 319 319 319 319 318 318 318 318 319 319 319 320 320 320 320 319 319 319 319 318 317 317 317 316 315 316 315 315 314 314 314 314 311 311 311 310 310 310 310 310
320 320 320 319 319 319 319 319 319 319 318 318 318 319 319 319 319 320 319 318 317 317 316 316 315 315 315 314 314 314 313 312 312 310 307 306 306 305 304 303 302 301 298
314 314 316 316 317 317 318 319 320 319 319 318 318 318 318 316 317 317 316 316 314 313 313 312 311 311 311 310 310 309 308 306 304 303 303 301 300 298 297 295 294 293 291

GFSMA_850_thetae_111.txt.gz
Theta_e
333 332 332 332 332 333 332 331 330 328 327 325 326 327 326 326 325 327 328 327 325 324 322 323 322 319 319 319 320 320 313 310 311 310 305 304 303 303 304 304 303 303 304
332 332 333 334 333 333 332 332 331 329 328 326 326 326 327 325 325 327 328 325 324 322 322 320 318 319 320 320 319 319 312 310 308 307 305 304 303 304 304 304 304 304 304
332 332 333 333 332 333 332 331 330 328 328 327 326 326 327 325 325 327 327 324 323 322 322 319 319 319 319 320 319 318 316 308 308 305 306 304 303 304 304 304 304 304 304
332 332 332 333 333 332 331 331 330 329 329 327 326 327 326 325 327 327 325 324 322 321 322 320 317 319 319 319 318 317 313 308 306 306 307 304 304 304 304 304 304 304 305
330 332 331 333 332 332 331 331 331 329 328 327 327 327 325 325 327 327 325 322 321 321 321 317 319 319 318 319 317 316 311 308 305 306 306 304 303 303 303 303 303 304 305
325 329 328 331 331 331 330 330 330 329 328 327 328 326 324 325 327 326 323 320 320 321 320 319 320 320 319 317 317 315 312 311 307 310 308 305 304 303 303 303 303 304 306
321 324 327 329 330 330 330 331 329 328 329 327 326 327 325 324 326 326 321 321 320 320 321 320 319 320 319 318 318 317 314 313 311 311 309 305 304 303 303 303 303 305 307
321 321 325 328 329 329 329 329 330 330 327 325 325 326 325 325 324 324 322 321 321 320 320 318 317 318 319 318 318 317 317 313 313 310 310 309 306 304 304 304 304 306 307
323 323 326 328 328 329 328 328 328 328 326 323 326 325 324 323 323 324 322 322 321 319 318 318 319 318 317 317 317 316 316 314 316 317 310 307 307 306 306 306 307 308 308
325 325 325 325 328 327 327 327 325 322 325 325 326 325 323 323 322 323 323 322 321 320 319 318 319 318 319 318 317 317 315 313 309 311 315 310 309 307 307 307 308 309 309
327 328 325 324 326 326 326 326 322 322 323 326 326 325 323 323 322 321 320 320 321 321 319 319 320 317 318 317 317 317 319 318 313 308 309 313 313 310 310 310 310 310 311
328 328 324 326 325 327 326 324 322 323 323 325 325 324 322 322 321 320 320 320 319 322 321 320 320 319 319 317 316 317 318 318 316 314 310 309 312 313 312 313 313 314 315
328 325 324 325 328 325 325 325 322 323 325 325 324 324 322 322 321 320 320 319 318 319 321 321 321 320 320 319 318 318 317 318 317 315 314 313 311 310 310 310 311 312 313
328 327 324 325 325 325 324 325 322 324 322 322 323 322 321 321 321 320 319 317 320 318 317 319 320 320 320 319 320 319 319 318 317 316 315 315 313 311 310 310 311 313 313
329 326 323 326 325 326 323 324 322 323 323 322 322 323 323 322 322 321 320 319 320 321 321 320 319 319 319 319 318 318 318 317 316 315 314 313 312 313 314 315 315 315 315
329 323 322 324 326 325 326 324 324 324 322 323 324 323 323 323 322 321 320 320 321 321 321 320 319 319 317 318 319 320 319 316 315 316 315 314 315 315 315 315 315 314 315
328 327 324 324 325 325 324 323 323 323 324 323 323 323 323 323 322 322 321 321 321 322 322 320 319 318 318 317 318 318 315 317 317 317 316 317 316 315 315 314 315 314 314
328 327 325 323 323 323 323 323 323 323 323 324 323 323 322 323 324 323 322 321 320 322 321 320 320 320 320 319 317 316 317 317 318 317 316 316 316 316 316 315 315 316 317
327 326 324 321 324 323 322 322 322 323 320 322 322 322 320 321 321 322 321 321 322 322 322 321 320 321 320 319 318 317 316 315 316 316 315 316 316 316 316 315 316 317 318
327 324 320 321 323 321 322 323 323 322 321 322 321 321 322 320 321 321 322 321 321 321 320 320 320 319 319 319 319 316 316 316 316 317 317 317 317 318 318 318 319 318 318
324 323 321 321 320 321 320 320 321 321 322 321 321 321 320 321 320 319 318 318 319 318 318 318 318 317 316 317 317 317 317 317 317 317 317 317 317 317 317 317 318 317 316
322 321 321 320 320 319 319 319 319 319 319 319 319 318 318 318 316 316 316 316 316 316 316 316 316 316 316 317 316 316 316 316 316 316 316 317 317 316 316 315 314 313 313
322 321 320 320 320 319 319 319 319 319 319 319 318 318 318 318 318 317 316 317 318 317 318 318 318 318 317 316 317 317 317 317 316 317 317 316 315 315 312 310 308 309 307
321 320 320 320 320 319 319 319 319 320 321 320 320 320 320 320 319 319 319 318 317 318 318 318 317 317 318 317 317 317 317 316 316 315 314 312 312 310 307 305 304 303 302
319 319 320 320 319 320 320 320 320 319 319 320 319 319 320 320 320 319 319 319 319 319 318 318 318 317 317 317 317 316 315 315 312 311 310 309 307 306 303 300 299 297 296
306 301 307 308 315 317 318 319 319 319 319 319 318 317 318 319 318 318 318 318 317 315 314 314 314 314 313 313 314 313 311 310 309 306 305 303 301 300 297 296 294 292 292

GFSMA_850_thetae_114.txt.gz
Theta_e
329 331 331 332 332 332 332 332 331 329 328 327 327 326 327 326 326 326 327 327 327 326 325 323 322 314 317 318 318 320 319 319 314 308 308 310 308 303 303 303 304 304 304
328 331 331 331 332 332 331 332 332 331 330 329 327 325 326 327 326 326 326 326 326 326 324 323 321 315 316 317 320 320 318 318 313 308 306 306 308 304 303 303 303 303 304
325 329 331 331 332 333 332 332 332 332 330 329 327 325 326 326 326 326 325 327 327 325 323 322 321 316 314 318 320 319 319 318 311 306 305 304 305 304 303 303 303 303 303
324 329 331 332 333 333 332 332 331 331 330 328 328 327 326 326 327 326 326 327 326 324 322 321 320 314 318 320 320 319 318 318 311 306 306 305 304 304 303 303 303 303 303
321 326 330 331 332 333 332 332 331 330 330 329 329 328 326 327 327 325 326 327 325 323 322 321 318 319 319 320 320 319 318 317 313 308 307 305 304 304 303 303 302 302 303
323 323 329 331 331 332 333 331 331 331 330 329 329 327 326 327 325 325 326 326 324 322 321 321 319 317 319 319 319 318 318 317 310 311 307 305 304 303 303 303 302 302 303
325 324 327 328 330 332 332 331 331 329 328 327 327 326 326 325 325 324 325 325 323 322 322 321 317 319 319 319 318 317 316 316 314 313 311 306 304 304 303 303 303 303 303
327 323 323 324 326 330 331 329 328 327 327 326 326 325 326 326 324 326 325 325 322 321 321 321 318 320 319 319 318 318 317 318 319 318 317 309 305 304 304 304 304 304 305
331 324 323 324 324 327 329 329 328 327 326 325 325 324 325 325 325 325 325 323 321 320 320 320 319 319 319 319 318 318 317 317 317 318 315 314 307 306 305 305 304 305 305
332 327 323 325 324 327 327 328 328 329 326 325 324 324 324 324 324 324 324 322 321 320 319 318 318 317 317 317 317 317 317 315 315 316 317 316 310 308 306 306 306 306 307
334 330 325 327 327 326 327 327 328 329 329 327 325 322 324 323 324 323 323 324 322 320 319 319 318 318 318 318 318 317 317 316 315 314 314 316 314 311 309 308 307 308 309
335 333 330 327 328 325 326 326 327 326 325 321 322 323 324 323 324 324 323 323 323 322 321 320 319 319 319 317 318 316 316 318 318 317 313 310 310 311 312 310 310 310 311
335 335 332 326 329 327 326 325 326 325 322 321 322 325 325 323 323 323 322 322 321 320 318 315 319 319 320 318 318 317 316 317 318 318 317 316 314 310 310 313 313 314 314
334 334 331 327 330 328 324 325 326 323 322 322 323 325 324 323 322 322 321 321 320 320 320 321 320 320 320 319 319 319 318 318 318 318 318 316 315 316 314 311 310 310 310
334 332 330 328 328 328 325 326 326 324 322 323 324 322 322 323 322 322 321 320 319 319 318 319 320 319 320 319 318 320 319 319 319 319 318 317 316 316 315 314 312 312 313
333 331 329 328 326 326 325 324 325 324 323 323 322 322 323 322 322 322 322 321 320 319 319 317 316 317 318 320 320 320 319 318 317 318 318 317 317 316 316 314 314 315 315
332 331 330 328 326 325 325 323 322 323 322 323 322 323 322 322 321 321 322 321 320 319 319 320 320 320 320 320 319 318 319 319 319 315 317 317 317 316 316 316 316 316 316
332 331 330 324 323 325 324 324 324 323 322 322 323 323 323 323 323 323 323 322 320 321 321 321 321 321 320 319 318 318 318 317 318 316 317 317 317 316 316 316 316 314 315
332 331 329 327 324 324 324 324 323 321 323 322 323 323 323 323 323 323 323 322 322 321 321 322 321 320 320 319 319 320 318 317 316 317 317 316 315 316 316 316 316 316 316
331 329 328 326 324 322 322 322 322 322 322 322 322 323 323 323 322 322 322 321 322 322 321 321 321 321 320 320 320 320 318 317 317 316 316 315 316 317 317 317 317 317 318
329 328 327 326 322 321 322 322 322 322 322 322 319 320 321 321 320 321 320 320 321 321 321 320 320 320 319 319 319 319 318 319 317 316 317 318 318 317 317 316 317 317 317
327 326 325 323 321 321 320 320 322 322 321 322 321 322 321 321 321 321 320 319 318 318 318 319 318 318 317 317 316 316 316 316 317 317 317 316 316 316 315 315 315 315 315
322 324 322 322 321 321 320 320 319 320 321 320 321 320 319 319 318 317 316 316 316 317 316 317 317 316 316 316 316 317 317 316 316 316 316 316 315 315 312 311 312 311 310
322 321 321 321 322 320 320 319 318 318 319 319 318 318 318 317 317 317 316 315 316 316 316 316 317 317 318 317 317 316 316 316 317 317 316 313 311 309 308 307 304 303 302
312 315 319 320 321 320 320 319 319 319 319 319 319 318 318 318 318 318 318 318 317 317 317 317 318 318 317 316 317 317 317 316 316 314 312 311 310 306 301 300 298 298 297
302 303 303 310 309 314 318 319 319 320 320 319 318 318 318 319 319 320 319 319 319 319 318 318 317 317 317 316 316 315 315 312 313 311 310 306 305 302 297 296 294 293 292

GFSMA_850_thetae_117.txt.gz
Theta_e
324 327 329 330 332 332 331 330 329 329 328 328 327 327 326 327 326 325 326 327 328 326 325 326 324 322 316 318 320 320 321 321 318 316 312 307 307 306 306 304 303 303 304
323 325 328 330 331 332 332 332 331 330 330 329 328 327 326 326 327 326 326 326 327 326 326 326 325 322 316 316 320 320 319 319 319 317 311 310 308 305 304 303 303 303 304
322 323 327 329 330 331 332 332 332 332 331 330 329 328 326 325 326 327 326 326 326 327 327 326 325 324 319 316 319 319 319 319 315 315 313 310 309 304 303 303 303 303 303
322 323 326 328 330 331 332 331 331 332 331 331 330 329 327 325 325 326 326 326 326 326 326 326 324 323 322 317 320 319 319 318 317 319 315 312 310 304 303 303 302 302 303
324 322 324 327 330 331 332 333 332 332 331 331 330 328 327 327 325 326 326 326 326 327 325 324 324 322 321 317 320 319 318 317 318 318 314 312 310 306 304 303 303 303 303
325 323 322 326 330 332 332 332 332 332 331 330 330 328 328 328 326 326 326 326 326 327 325 324 323 321 320 319 320 318 318 318 316 318 318 314 310 309 304 303 303 303 303
327 325 323 325 330 331 334 330 331 333 331 329 328 328 327 327 326 324 325 325 325 326 325 323 322 319 319 319 320 319 319 318 317 319 318 317 313 305 304 304 303 303 303
329 327 325 324 328 331 332 329 329 328 328 328 328 328 326 325 324 325 324 326 324 325 325 322 321 320 318 319 319 319 318 317 318 319 318 317 310 305 306 303 303 303 303
332 329 328 324 325 328 334 329 329 327 327 327 327 326 325 324 324 325 324 325 323 325 324 322 321 319 318 319 319 318 317 317 317 318 317 317 315 307 306 304 304 303 303
332 332 330 326 324 326 328 329 331 330 326 326 327 326 325 324 324 324 324 324 325 324 323 322 321 319 319 319 319 318 318 317 317 316 318 317 317 313 310 307 305 304 304
333 333 332 328 324 324 327 328 327 327 328 326 326 325 324 324 323 324 324 322 324 323 322 320 320 320 319 319 319 319 318 317 317 315 315 316 316 316 314 311 309 307 306
333 334 333 330 326 324 324 326 327 326 326 326 326 324 323 323 323 324 323 324 324 322 321 320 319 318 318 317 317 317 317 316 317 316 315 314 315 316 315 315 312 310 308
331 332 333 332 330 327 326 327 329 328 327 328 325 325 324 322 323 323 324 323 322 322 321 320 319 319 319 319 319 318 318 317 316 317 318 316 314 313 311 310 311 314 312
328 330 332 333 333 331 327 329 328 328 328 326 327 324 321 322 323 324 323 323 322 322 321 321 318 315 317 319 319 317 318 317 316 317 318 318 318 317 316 315 312 311 312
329 329 331 334 334 333 329 328 327 324 327 325 323 320 322 322 324 322 323 323 322 321 321 320 318 316 313 318 319 319 319 318 318 318 318 318 318 317 316 316 316 315 313
330 330 330 333 334 332 328 328 326 323 324 326 322 321 322 324 321 322 322 323 322 322 320 319 319 317 316 320 319 320 320 320 318 318 318 318 319 318 318 317 317 316 315
330 329 328 331 331 330 329 328 325 323 322 323 324 323 323 321 322 323 322 322 322 320 319 319 319 319 318 317 316 318 317 317 318 319 318 317 319 318 317 317 317 317 316
329 329 328 329 330 329 328 327 324 323 322 323 323 322 322 321 323 322 322 322 321 321 320 320 319 319 319 318 319 319 319 320 318 318 319 314 314 318 318 317 317 317 317
328 329 328 330 330 329 327 327 323 322 322 322 322 322 323 323 323 321 321 321 322 322 320 320 320 319 320 321 321 320 319 320 318 319 319 318 314 317 317 317 316 316 316
329 327 328 328 329 326 324 324 322 322 323 322 321 321 321 323 323 322 322 322 322 322 322 321 321 321 321 321 321 321 319 319 319 318 317 317 316 316 316 315 316 316 316
328 327 327 328 327 327 324 323 322 321 322 322 322 323 322 323 323 321 321 322 322 322 321 321 321 321 320 321 320 320 319 319 319 317 316 316 316 316 315 316 316 317 317
326 328 327 328 327 326 324 322 321 321 322 322 322 322 323 320 320 321 321 319 319 320 320 320 321 321 320 320 319 319 319 319 317 317 317 317 316 317 317 317 317 316 315
324 325 326 325 325 324 322 321 320 321 321 322 322 322 320 320 321 321 320 320 320 319 318 318 318 318 318 318 318 316 316 316 316 316 316 316 316 316 315 314 313 313 313
308 316 321 322 322 321 321 320 320 321 320 320 320 319 321 321 320 320 319 318 317 317 317 316 316 316 317 317 316 316 316 316 316 316 316 315 314 313 311 309 307 309 309
306 305 304 316 314 320 320 321 320 320 319 319 319 320 319 319 318 318 317 316 316 316 316 315 315 315 316 317 317 318 317 317 315 316 315 314 312 308 304 302 300 299 301
302 303 304 305 305 306 314 319 319 319 319 318 318 318 318 318 317 317 317 318 317 316 316 316 316 317 317 317 317 316 316 317 316 314 311 308 308 304 299 298 298 298 297

GFSMA_850_thetae_120.txt.gz
Theta_e
327 328 329 330 331 331 331 330 330 330 329 328 327 327 326 326 326 326 327 326 327 328 328 328 326 324 321 319 321 322 320 319 320 316 315 316 312 308 306 304 304 304 304
325 326 327 328 330 331 332 331 331 330 329 329 328 328 327 327 326 326 325 325 326 327 327 327 326 325 321 318 320 321 320 319 319 317 316 316 310 307 305 304 304 304 304
321 325 326 327 328 330 330 332 332 331 329 329 329 328 327 327 327 326 326 325 326 326 326 327 326 326 324 319 319 320 320 319 318 318 319 316 313 307 304 304 303 303 304
320 322 324 326 328 330 330 331 332 332 331 330 330 330 328 328 327 325 325 326 326 326 326 327 327 326 324 322 320 320 319 319 319 318 318 318 313 307 305 304 303 303 304
321 321 322 324 328 330 330 331 331 331 332 331 331 330 330 328 327 326 325 325 325 325 326 327 326 326 324 322 319 320 319 319 318 318 317 318 314 310 307 304 303 303 303
323 323 323 323 326 330 330 330 331 332 332 332 331 331 330 329 327 326 327 325 325 325 325 327 326 324 324 322 319 319 319 319 318 318 318 317 316 314 308 304 303 303 303
327 326 325 325 325 328 330 330 330 330 330 330 329 329 329 328 328 327 328 326 325 325 324 325 324 324 323 321 319 320 319 318 318 317 317 316 315 314 308 304 303 303 303
330 327 327 326 323 326 330 331 329 328 328 327 329 328 328 325 327 325 325 325 325 324 324 326 324 324 322 320 319 320 320 317 318 317 317 317 316 313 308 309 304 303 303
332 330 328 328 327 325 328 330 329 328 327 327 323 325 327 326 325 323 323 323 324 324 324 324 325 324 321 319 319 319 320 319 318 318 317 317 317 316 308 310 304 303 303
333 333 330 330 328 327 325 328 329 327 327 327 326 326 327 325 324 323 323 324 324 323 325 325 325 323 321 319 318 318 318 318 317 318 317 317 317 316 314 312 314 305 303
335 336 334 332 331 330 327 325 329 330 326 327 327 325 326 327 326 324 323 323 323 323 324 324 326 322 321 319 318 318 318 318 317 317 316 316 316 316 316 313 314 309 305
333 333 333 332 332 331 329 326 329 327 327 326 328 327 325 325 326 325 324 322 323 323 323 324 324 321 321 319 318 318 318 318 318 317 316 316 316 317 316 316 314 310 311
333 330 330 331 331 332 331 326 327 327 327 325 324 325 325 325 325 323 322 323 323 323 323 324 322 320 320 319 319 319 318 318 317 317 317 316 315 314 315 316 315 315 314
332 328 328 331 330 331 332 329 325 327 326 326 324 324 324 324 323 323 322 322 323 322 322 324 321 320 319 318 318 318 318 318 318 317 316 316 317 316 315 314 313 313 313
330 325 326 330 328 330 332 331 328 327 327 326 324 324 324 326 325 322 321 322 323 322 321 322 320 319 319 319 319 319 318 318 317 317 316 318 318 318 318 317 316 315 315
330 325 329 329 329 331 331 332 330 328 327 326 324 323 324 325 320 322 322 321 322 323 322 321 320 319 319 318 315 316 319 319 318 318 317 317 318 319 318 318 317 316 317
331 330 330 330 330 330 330 332 331 328 327 325 321 321 322 322 321 322 321 321 322 323 322 322 321 320 319 318 316 314 318 319 320 319 319 318 318 318 318 318 318 317 317
331 331 330 330 330 329 329 330 331 328 327 324 322 321 321 322 322 322 321 320 321 322 322 322 321 319 319 319 316 317 319 319 319 319 318 317 318 318 319 318 317 318 317
330 328 328 327 327 328 327 329 330 329 326 324 321 322 321 323 323 323 321 322 322 322 322 321 320 319 319 319 318 318 318 317 319 319 318 319 318 318 316 314 314 317 317
328 329 328 326 326 327 327 328 328 326 326 323 322 322 322 322 322 322 322 322 322 321 321 321 320 320 320 319 319 320 320 320 320 320 319 320 318 319 317 313 315 317 317
326 327 328 329 329 326 326 327 328 327 326 323 322 322 321 321 321 322 322 322 320 321 321 321 321 321 320 321 320 320 320 320 320 320 320 320 319 319 317 316 314 316 316
324 325 325 325 326 326 327 328 325 324 322 321 321 322 322 322 322 322 322 322 322 320 321 321 321 321 320 320 321 320 320 320 318 320 319 318 318 317 317 316 316 316 316
314 316 321 323 323 322 326 325 325 323 322 320 320 320 322 321 321 321 320 319 321 320 319 319 320 320 320 320 320 320 319 319 319 318 318 316 316 316 316 316 316 315 315
307 308 310 307 312 313 323 324 324 322 321 321 322 322 322 321 322 318 321 320 320 319 320 319 319 318 318 317 318 318 318 318 317 317 316 315 315 313 313 312 313 313 314
303 303 304 306 306 308 315 316 321 321 320 321 321 321 321 321 320 321 320 318 320 319 318 318 318 317 316 316 315 317 316 316 316 316 316 315 314 311 308 305 304 305 305
299 300 301 302 303 306 307 306 312 317 314 319 319 320 320 320 318 319 319 318 318 318 317 316 315 315 316 315 316 316 316 317 316 315 314 312 312 308 298 295 296 296 297

GFSMA_850_thetae_123.txt.gz
Theta_e
326 328 330 331 332 332 332 331 330 329 328 327 327 327 327 326 326 326 326 328 327 326 327 328 329 326 322 321 322 323 323 322 321 318 319 319 318 315 307 304 305 305 305
324 325 327 329 331 332 332 332 331 330 330 329 328 327 327 327 327 326 326 326 326 326 327 328 330 326 324 321 321 321 322 321 320 319 319 318 318 316 309 305 305 305 305
323 323 325 326 328 331 332 332 332 331 331 330 329 329 328 328 327 327 326 326 326 326 326 327 328 327 326 322 320 321 320 320 319 319 318 318 318 316 308 305 304 304 304
321 322 323 324 325 328 330 332 332 332 331 330 330 329 329 329 328 327 327 326 326 326 326 326 326 327 327 324 320 318 320 320 319 318 318 317 318 317 310 306 304 304 304
321 322 322 324 326 326 328 331 332 332 332 331 331 330 330 330 329 328 327 326 325 325 326 326 325 326 326 324 323 318 320 319 319 318 318 317 317 317 311 306 304 304 304
323 323 323 323 325 326 327 330 331 332 332 332 331 331 331 330 329 329 328 327 326 325 325 325 325 327 327 324 323 320 319 319 319 318 317 317 316 317 312 306 304 303 303
323 324 323 324 324 325 326 328 330 331 331 331 330 330 330 329 330 329 327 327 327 327 326 325 324 325 327 324 324 322 319 319 318 317 317 317 316 316 314 308 304 303 303
323 324 323 324 324 324 326 327 329 331 331 327 329 328 328 327 327 326 326 325 325 325 325 324 324 326 324 323 323 322 318 320 318 317 318 317 316 316 316 311 305 303 303
327 326 325 327 325 325 324 325 327 331 331 326 328 328 327 328 325 325 324 324 324 323 323 322 323 324 323 324 323 321 319 321 319 317 317 317 317 316 316 316 313 304 303
332 330 328 331 329 328 327 325 324 331 329 327 327 326 326 325 327 326 324 324 323 323 324 323 323 323 322 325 322 320 320 320 320 318 318 317 316 316 316 315 315 309 304
335 334 332 334 333 331 330 328 327 328 329 327 326 326 326 325 327 326 326 325 324 323 322 323 322 324 324 324 321 319 319 319 319 319 318 318 317 316 316 315 313 314 306
335 337 334 332 333 331 331 330 330 328 327 327 326 325 325 327 326 326 325 325 324 324 323 322 323 324 324 323 321 319 318 318 318 318 317 317 317 317 316 316 315 314 314
334 334 335 332 330 329 328 331 331 330 327 327 327 325 325 325 327 326 325 325 324 323 322 321 323 323 324 323 320 319 318 318 317 318 318 317 316 316 317 316 316 316 315
331 332 333 333 329 325 326 326 331 332 329 327 327 327 327 324 325 326 325 324 324 322 321 323 322 323 323 323 319 319 318 318 318 318 318 317 317 315 315 315 316 316 316
333 332 330 332 331 328 326 323 329 333 332 327 327 327 326 323 323 323 323 323 323 322 322 321 323 323 323 322 319 319 319 319 319 319 318 318 317 316 316 315 314 314 314
333 330 331 332 330 327 324 328 330 331 332 329 327 327 326 325 324 323 322 323 322 321 322 322 322 323 323 320 319 319 318 318 318 318 318 318 317 317 317 317 317 317 317
331 333 333 332 329 325 327 328 329 329 331 331 329 328 327 325 323 322 323 321 322 322 322 322 322 322 323 319 318 318 318 316 312 318 318 318 317 317 318 318 319 318 318
327 330 332 333 331 324 326 328 329 329 330 331 330 328 328 325 319 321 322 321 322 321 321 322 322 321 320 319 319 318 318 318 317 319 319 318 318 318 318 318 318 318 318
327 327 327 329 330 330 329 328 329 328 327 329 330 328 328 322 319 321 321 320 321 321 321 321 321 322 320 320 319 319 319 315 315 317 319 319 320 319 319 318 318 318 318
326 326 326 325 327 328 331 330 328 327 327 327 330 327 327 321 321 321 321 321 322 321 321 321 321 321 321 320 319 319 318 317 318 319 318 319 319 319 318 318 318 318 318
320 322 323 324 325 325 324 325 325 328 328 327 330 328 324 322 321 321 322 322 322 321 321 321 321 321 320 319 320 320 319 319 318 318 318 320 320 319 319 319 319 318 317
314 316 318 319 319 321 324 325 325 326 326 326 328 327 322 321 321 321 321 321 321 322 322 320 321 321 320 320 321 319 319 319 320 320 320 320 320 320 319 319 318 319 317
306 308 309 311 312 313 319 324 322 325 324 325 326 325 321 321 321 321 321 322 321 322 322 321 320 320 321 320 321 321 320 320 320 319 319 319 319 316 316 316 317 317 317
302 303 304 305 306 309 312 318 320 321 322 322 323 323 322 321 321 322 322 321 320 321 320 321 321 320 319 319 320 320 320 319 319 319 319 316 315 313 311 310 312 313 315
299 299 301 302 302 302 304 311 313 315 319 318 321 321 321 322 321 321 322 322 320 320 320 320 319 320 320 319 319 318 317 318 318 317 317 316 314 309 306 304 306 305 306
297 297 297 297 298 299 298 299 302 306 307 307 304 311 320 319 321 321 319 320 319 319 320 319 319 319 319 318 317 316 318 316 317 316 315 314 313 310 300 298 300 300 300

GFSMA_850_thetae_126.txt.gz
Theta_e
338 337 339 340 340 338 338 339 338 334 332 332 332 333 334 334 333 332 333 329 328 328 327 328 327 328 326 326 324 321 323 324 323 322 321 320 319 320 318 310 304 305 305
337 338 337 337 337 336 339 339 337 333 335 335 333 331 332 333 332 332 332 332 327 328 326 326 328 329 326 324 322 321 323 324 323 321 319 319 320 318 318 312 308 305 305
327 328 331 335 331 337 336 336 336 333 334 334 334 333 331 328 330 332 331 332 332 327 326 326 327 328 327 325 323 321 322 322 322 321 318 318 318 318 316 313 310 306 305
325 324 328 330 331 333 333 333 332 331 334 334 334 333 333 332 332 332 332 331 331 329 327 326 326 327 328 327 327 321 321 322 320 320 319 318 318 318 315 314 310 305 305
325 322 323 326 328 327 329 331 331 332 333 334 334 334 333 333 332 332 332 332 331 329 330 327 326 326 326 326 325 322 318 320 319 319 319 318 318 317 314 313 307 305 305
324 323 323 323 325 327 327 328 330 331 332 332 332 334 332 331 331 331 330 330 330 330 329 327 327 326 325 325 325 322 319 318 320 319 318 317 317 317 315 312 307 305 304
324 324 324 323 323 324 325 325 328 330 332 332 332 331 331 330 330 330 329 328 328 328 328 328 327 326 325 324 327 323 321 319 319 319 318 317 317 317 317 313 307 305 304
323 324 325 325 324 325 326 327 327 330 332 332 332 331 331 330 328 329 328 327 329 328 327 325 326 327 326 325 325 324 323 321 320 318 318 318 318 316 316 315 313 305 303
327 324 325 328 327 325 325 325 326 327 330 331 331 330 330 328 328 329 326 326 325 327 325 326 324 325 324 324 325 325 323 321 321 319 318 317 317 316 316 316 314 308 303
332 330 327 331 332 326 326 326 327 327 329 330 332 330 328 329 328 328 329 324 325 325 325 325 325 325 324 323 326 323 323 321 320 321 319 317 318 317 316 315 315 313 306
336 334 333 331 329 327 327 328 329 329 330 330 331 330 327 329 329 327 327 329 326 325 327 326 323 324 323 323 324 324 323 321 319 321 320 318 317 317 316 315 316 315 314
333 336 337 334 332 330 329 332 330 330 330 330 332 331 330 329 328 327 327 326 327 327 327 326 325 323 324 323 322 322 323 320 319 320 320 319 319 317 316 316 315 314 315
337 334 338 339 336 334 333 331 330 326 324 329 330 330 329 328 328 327 327 327 327 327 327 325 324 323 323 323 324 323 323 320 319 320 320 319 319 318 317 317 316 316 314
336 336 337 337 335 333 334 332 329 326 324 327 331 330 330 329 329 328 326 329 328 327 326 325 323 323 321 323 324 324 323 320 319 318 318 318 317 317 316 316 316 316 316
334 334 336 336 337 333 332 332 330 328 328 328 330 328 331 329 328 327 326 327 328 326 324 324 323 323 321 323 323 323 322 320 318 318 317 317 318 317 317 315 317 317 316
330 331 333 334 336 335 332 332 329 332 329 328 327 326 331 329 328 327 326 323 323 324 323 324 323 321 322 322 322 323 323 319 318 318 318 318 318 318 318 317 316 315 315
324 327 329 331 331 334 333 334 332 330 327 326 327 328 331 329 329 328 326 325 324 323 323 325 322 322 322 322 322 323 323 320 319 319 318 319 319 319 318 317 317 316 316
326 327 327 327 328 330 334 332 331 328 327 328 328 328 330 330 328 328 327 325 324 321 323 322 323 322 322 322 322 322 320 321 320 319 319 318 318 318 318 318 317 318 318
324 326 326 327 327 327 328 329 331 327 326 327 328 329 328 330 329 329 328 326 320 322 322 322 322 321 322 322 321 321 319 318 318 317 316 317 317 316 317 317 317 318 318
318 320 322 324 325 326 327 327 327 328 329 329 328 328 327 327 330 330 328 324 319 321 321 322 321 321 321 321 321 320 318 318 319 319 317 313 317 318 318 318 318 318 318
311 312 313 315 318 321 323 325 325 326 326 326 328 328 328 328 328 329 327 321 321 321 321 322 321 321 320 321 321 319 320 319 319 319 316 315 315 319 319 319 320 319 319
306 307 308 308 311 313 314 319 324 325 325 325 325 326 325 326 326 327 322 321 321 323 322 323 321 321 321 321 321 320 320 319 318 318 316 316 318 319 319 320 320 319 319
302 302 303 304 305 307 311 313 317 319 321 321 322 323 323 324 325 326 321 322 322 322 322 322 322 322 321 321 321 321 320 319 319 319 316 315 318 318 319 319 319 319 319
300 300 300 300 301 301 305 307 309 313 316 314 317 319 321 321 322 323 322 322 322 321 321 322 321 321 321 321 320 321 320 320 320 319 319 318 318 318 318 316 317 317 317
298 298 298 299 299 298 299 301 304 305 306 306 307 309 314 317 319 321 322 322 322 322 322 322 321 321 321 320 320 320 320 319 319 319 318 318 314 309 307 309 307 309 307
294 294 294 295 296 297 297 298 299 300 301 301 302 306 308 307 308 320 321 321 322 322 322 321 320 321 320 320 319 319 319 319 319 318 317 316 314 310 301 299 301 302 300